<?xml version="1.0" encoding="UTF-8" standalone="no" ?>
<gpx xmlns="http://www.topografix.com/GPX/1/1" xmlns:xsi="http://www.w3.org/2001/XMLSchema-instance" xsi:schemaLocation="http://www.topografix.com/GPX/1/1 http://www.topografix.com/GPX/1/1/gpx.xsd" version="1.1" creator="VisuGPX - https://www.visugpx.com">
  <metadata>
    <name>Perso-HteMarne-18-06-25-IsEnBassigny-Essey-Donnemarie-Lanques-Mennouveaux-Cuve-Buxières-Ninville-Is</name>
    <desc><![CDATA[Rando dans mon Bassigny]]></desc>
  </metadata>
  <wpt lat="48.03444" lon="5.44751">
    <ele>390</ele>
    <name><![CDATA[011]]></name>
    <type><![CDATA[Marks]]></type>
  </wpt>
  <wpt lat="48.05334" lon="5.41688">
    <ele>363</ele>
    <name><![CDATA[012]]></name>
    <type><![CDATA[Marks]]></type>
  </wpt>
  <wpt lat="48.07013" lon="5.39747">
    <ele>404.9</ele>
    <name><![CDATA[013]]></name>
    <type><![CDATA[Marks]]></type>
  </wpt>
  <wpt lat="48.08338" lon="5.38287">
    <ele>343.1</ele>
    <name><![CDATA[014]]></name>
    <type><![CDATA[Marks]]></type>
  </wpt>
  <wpt lat="48.10325" lon="5.38807">
    <ele>342.5</ele>
    <name><![CDATA[015]]></name>
    <type><![CDATA[Marks]]></type>
  </wpt>
  <wpt lat="48.1069" lon="5.41673">
    <ele>402.4</ele>
    <name><![CDATA[016]]></name>
    <type><![CDATA[Marks]]></type>
  </wpt>
  <wpt lat="48.10776" lon="5.42672">
    <ele>398.8</ele>
    <name><![CDATA[017]]></name>
    <type><![CDATA[Marks]]></type>
  </wpt>
  <wpt lat="48.09591" lon="5.441">
    <ele>391.2</ele>
    <name><![CDATA[018]]></name>
    <type><![CDATA[Marks]]></type>
  </wpt>
  <wpt lat="48.0946" lon="5.45788">
    <ele>425.1</ele>
    <name><![CDATA[019]]></name>
    <type><![CDATA[Marks]]></type>
  </wpt>
  <wpt lat="48.07524" lon="5.43787">
    <ele>400.5</ele>
    <name><![CDATA[020]]></name>
    <type><![CDATA[Marks]]></type>
  </wpt>
  <wpt lat="48.07329" lon="5.43854">
    <ele>385.1</ele>
    <name><![CDATA[021]]></name>
    <type><![CDATA[Marks]]></type>
  </wpt>
  <wpt lat="48.06209" lon="5.4417">
    <ele>386.1</ele>
    <name><![CDATA[022]]></name>
    <type><![CDATA[Marks]]></type>
  </wpt>
  <wpt lat="48.04996" lon="5.44587">
    <ele>415.2</ele>
    <name><![CDATA[023]]></name>
    <type><![CDATA[Marks]]></type>
  </wpt>
  <wpt lat="48.03568" lon="5.44518">
    <ele>391.3</ele>
    <name><![CDATA[024]]></name>
    <type><![CDATA[Marks]]></type>
  </wpt>
  <trk>
    <name><![CDATA[18-06-25Is-Essey-Donnemarie-Lanques-Mennouveaux-Cuve-BuxièresLesClefmont-Ninville-Is]]></name>
    <trkseg>
      <trkpt lat="48.03438" lon="5.4474">
        <ele>415</ele>
        <time>2018-06-25T06:40:06Z</time>
      </trkpt>
      <trkpt lat="48.03442" lon="5.44736">
        <ele>410</ele>
        <time>2018-06-25T06:40:37Z</time>
      </trkpt>
      <trkpt lat="48.03447" lon="5.44721">
        <ele>411</ele>
        <time>2018-06-25T06:40:46Z</time>
      </trkpt>
      <trkpt lat="48.03451" lon="5.44708">
        <ele>411</ele>
        <time>2018-06-25T06:40:54Z</time>
      </trkpt>
      <trkpt lat="48.03456" lon="5.44693">
        <ele>411</ele>
        <time>2018-06-25T06:41:03Z</time>
      </trkpt>
      <trkpt lat="48.03457" lon="5.44678">
        <ele>411</ele>
        <time>2018-06-25T06:41:11Z</time>
      </trkpt>
      <trkpt lat="48.03454" lon="5.44662">
        <ele>411</ele>
        <time>2018-06-25T06:41:19Z</time>
      </trkpt>
      <trkpt lat="48.03451" lon="5.44651">
        <ele>411</ele>
        <time>2018-06-25T06:41:31Z</time>
      </trkpt>
      <trkpt lat="48.03448" lon="5.44635">
        <ele>411</ele>
        <time>2018-06-25T06:41:41Z</time>
      </trkpt>
      <trkpt lat="48.03448" lon="5.44617">
        <ele>410</ele>
        <time>2018-06-25T06:41:49Z</time>
      </trkpt>
      <trkpt lat="48.03445" lon="5.44603">
        <ele>411</ele>
        <time>2018-06-25T06:41:56Z</time>
      </trkpt>
      <trkpt lat="48.03441" lon="5.4459">
        <ele>410</ele>
        <time>2018-06-25T06:42:03Z</time>
      </trkpt>
      <trkpt lat="48.03438" lon="5.44577">
        <ele>410</ele>
        <time>2018-06-25T06:42:10Z</time>
      </trkpt>
      <trkpt lat="48.03434" lon="5.44564">
        <ele>410</ele>
        <time>2018-06-25T06:42:17Z</time>
      </trkpt>
      <trkpt lat="48.03432" lon="5.4455">
        <ele>410</ele>
        <time>2018-06-25T06:42:24Z</time>
      </trkpt>
      <trkpt lat="48.03429" lon="5.44536">
        <ele>410</ele>
        <time>2018-06-25T06:42:31Z</time>
      </trkpt>
      <trkpt lat="48.03424" lon="5.44522">
        <ele>409</ele>
        <time>2018-06-25T06:42:39Z</time>
      </trkpt>
      <trkpt lat="48.0342" lon="5.44509">
        <ele>409</ele>
        <time>2018-06-25T06:42:47Z</time>
      </trkpt>
      <trkpt lat="48.03417" lon="5.44496">
        <ele>407</ele>
        <time>2018-06-25T06:42:54Z</time>
      </trkpt>
      <trkpt lat="48.03415" lon="5.44481">
        <ele>408</ele>
        <time>2018-06-25T06:43:02Z</time>
      </trkpt>
      <trkpt lat="48.03413" lon="5.44467">
        <ele>408</ele>
        <time>2018-06-25T06:43:10Z</time>
      </trkpt>
      <trkpt lat="48.0341" lon="5.44451">
        <ele>407</ele>
        <time>2018-06-25T06:43:18Z</time>
      </trkpt>
      <trkpt lat="48.03407" lon="5.44435">
        <ele>406</ele>
        <time>2018-06-25T06:43:26Z</time>
      </trkpt>
      <trkpt lat="48.03406" lon="5.4442">
        <ele>406</ele>
        <time>2018-06-25T06:43:34Z</time>
      </trkpt>
      <trkpt lat="48.03409" lon="5.44406">
        <ele>405</ele>
        <time>2018-06-25T06:43:42Z</time>
      </trkpt>
      <trkpt lat="48.03414" lon="5.44392">
        <ele>405</ele>
        <time>2018-06-25T06:43:50Z</time>
      </trkpt>
      <trkpt lat="48.03418" lon="5.44378">
        <ele>405</ele>
        <time>2018-06-25T06:43:58Z</time>
      </trkpt>
      <trkpt lat="48.03422" lon="5.44362">
        <ele>404</ele>
        <time>2018-06-25T06:44:07Z</time>
      </trkpt>
      <trkpt lat="48.03427" lon="5.44348">
        <ele>404</ele>
        <time>2018-06-25T06:44:16Z</time>
      </trkpt>
      <trkpt lat="48.03432" lon="5.44331">
        <ele>404</ele>
        <time>2018-06-25T06:44:24Z</time>
      </trkpt>
      <trkpt lat="48.03436" lon="5.44317">
        <ele>404</ele>
        <time>2018-06-25T06:44:31Z</time>
      </trkpt>
      <trkpt lat="48.03439" lon="5.44305">
        <ele>404</ele>
        <time>2018-06-25T06:44:38Z</time>
      </trkpt>
      <trkpt lat="48.03442" lon="5.44291">
        <ele>404</ele>
        <time>2018-06-25T06:44:46Z</time>
      </trkpt>
      <trkpt lat="48.03443" lon="5.44277">
        <ele>404</ele>
        <time>2018-06-25T06:44:54Z</time>
      </trkpt>
      <trkpt lat="48.03446" lon="5.44262">
        <ele>403</ele>
        <time>2018-06-25T06:45:02Z</time>
      </trkpt>
      <trkpt lat="48.03447" lon="5.44246">
        <ele>404</ele>
        <time>2018-06-25T06:45:11Z</time>
      </trkpt>
      <trkpt lat="48.03449" lon="5.44233">
        <ele>404</ele>
        <time>2018-06-25T06:45:18Z</time>
      </trkpt>
      <trkpt lat="48.03451" lon="5.44219">
        <ele>404</ele>
        <time>2018-06-25T06:45:26Z</time>
      </trkpt>
      <trkpt lat="48.03454" lon="5.44205">
        <ele>405</ele>
        <time>2018-06-25T06:45:34Z</time>
      </trkpt>
      <trkpt lat="48.03456" lon="5.44191">
        <ele>405</ele>
        <time>2018-06-25T06:45:41Z</time>
      </trkpt>
      <trkpt lat="48.03457" lon="5.44177">
        <ele>404</ele>
        <time>2018-06-25T06:45:49Z</time>
      </trkpt>
      <trkpt lat="48.03458" lon="5.44162">
        <ele>404</ele>
        <time>2018-06-25T06:45:57Z</time>
      </trkpt>
      <trkpt lat="48.03461" lon="5.44147">
        <ele>405</ele>
        <time>2018-06-25T06:46:05Z</time>
      </trkpt>
      <trkpt lat="48.03463" lon="5.44133">
        <ele>405</ele>
        <time>2018-06-25T06:46:12Z</time>
      </trkpt>
      <trkpt lat="48.03466" lon="5.44121">
        <ele>405</ele>
        <time>2018-06-25T06:46:20Z</time>
      </trkpt>
      <trkpt lat="48.03468" lon="5.44106">
        <ele>405</ele>
        <time>2018-06-25T06:46:28Z</time>
      </trkpt>
      <trkpt lat="48.03471" lon="5.4409">
        <ele>404</ele>
        <time>2018-06-25T06:46:36Z</time>
      </trkpt>
      <trkpt lat="48.03473" lon="5.44077">
        <ele>404</ele>
        <time>2018-06-25T06:46:44Z</time>
      </trkpt>
      <trkpt lat="48.03477" lon="5.44062">
        <ele>403</ele>
        <time>2018-06-25T06:46:52Z</time>
      </trkpt>
      <trkpt lat="48.0348" lon="5.44049">
        <ele>403</ele>
        <time>2018-06-25T06:46:59Z</time>
      </trkpt>
      <trkpt lat="48.03484" lon="5.44034">
        <ele>403</ele>
        <time>2018-06-25T06:47:08Z</time>
      </trkpt>
      <trkpt lat="48.03487" lon="5.4402">
        <ele>402</ele>
        <time>2018-06-25T06:47:16Z</time>
      </trkpt>
      <trkpt lat="48.03491" lon="5.44006">
        <ele>402</ele>
        <time>2018-06-25T06:47:24Z</time>
      </trkpt>
      <trkpt lat="48.03496" lon="5.43993">
        <ele>402</ele>
        <time>2018-06-25T06:47:32Z</time>
      </trkpt>
      <trkpt lat="48.03501" lon="5.4398">
        <ele>402</ele>
        <time>2018-06-25T06:47:40Z</time>
      </trkpt>
      <trkpt lat="48.03503" lon="5.43966">
        <ele>402</ele>
        <time>2018-06-25T06:47:48Z</time>
      </trkpt>
      <trkpt lat="48.03506" lon="5.43953">
        <ele>402</ele>
        <time>2018-06-25T06:47:55Z</time>
      </trkpt>
      <trkpt lat="48.0351" lon="5.43939">
        <ele>403</ele>
        <time>2018-06-25T06:48:02Z</time>
      </trkpt>
      <trkpt lat="48.03514" lon="5.43927">
        <ele>402</ele>
        <time>2018-06-25T06:48:10Z</time>
      </trkpt>
      <trkpt lat="48.03517" lon="5.43912">
        <ele>402</ele>
        <time>2018-06-25T06:48:18Z</time>
      </trkpt>
      <trkpt lat="48.03522" lon="5.43898">
        <ele>402</ele>
        <time>2018-06-25T06:48:26Z</time>
      </trkpt>
      <trkpt lat="48.03525" lon="5.43885">
        <ele>402</ele>
        <time>2018-06-25T06:48:33Z</time>
      </trkpt>
      <trkpt lat="48.0353" lon="5.43872">
        <ele>402</ele>
        <time>2018-06-25T06:48:41Z</time>
      </trkpt>
      <trkpt lat="48.03535" lon="5.43859">
        <ele>402</ele>
        <time>2018-06-25T06:48:49Z</time>
      </trkpt>
      <trkpt lat="48.03539" lon="5.43845">
        <ele>401</ele>
        <time>2018-06-25T06:48:57Z</time>
      </trkpt>
      <trkpt lat="48.03545" lon="5.43832">
        <ele>401</ele>
        <time>2018-06-25T06:49:05Z</time>
      </trkpt>
      <trkpt lat="48.0355" lon="5.43819">
        <ele>401</ele>
        <time>2018-06-25T06:49:13Z</time>
      </trkpt>
      <trkpt lat="48.03554" lon="5.43807">
        <ele>401</ele>
        <time>2018-06-25T06:49:20Z</time>
      </trkpt>
      <trkpt lat="48.03559" lon="5.43795">
        <ele>401</ele>
        <time>2018-06-25T06:49:28Z</time>
      </trkpt>
      <trkpt lat="48.03562" lon="5.43781">
        <ele>401</ele>
        <time>2018-06-25T06:49:36Z</time>
      </trkpt>
      <trkpt lat="48.03566" lon="5.43767">
        <ele>401</ele>
        <time>2018-06-25T06:49:44Z</time>
      </trkpt>
      <trkpt lat="48.0357" lon="5.43754">
        <ele>401</ele>
        <time>2018-06-25T06:49:51Z</time>
      </trkpt>
      <trkpt lat="48.03573" lon="5.43741">
        <ele>401</ele>
        <time>2018-06-25T06:49:58Z</time>
      </trkpt>
      <trkpt lat="48.03575" lon="5.43727">
        <ele>401</ele>
        <time>2018-06-25T06:50:06Z</time>
      </trkpt>
      <trkpt lat="48.03577" lon="5.43712">
        <ele>401</ele>
        <time>2018-06-25T06:50:14Z</time>
      </trkpt>
      <trkpt lat="48.03579" lon="5.43699">
        <ele>401</ele>
        <time>2018-06-25T06:50:21Z</time>
      </trkpt>
      <trkpt lat="48.03582" lon="5.43684">
        <ele>400</ele>
        <time>2018-06-25T06:50:29Z</time>
      </trkpt>
      <trkpt lat="48.03585" lon="5.43671">
        <ele>401</ele>
        <time>2018-06-25T06:50:36Z</time>
      </trkpt>
      <trkpt lat="48.03587" lon="5.43656">
        <ele>400</ele>
        <time>2018-06-25T06:50:45Z</time>
      </trkpt>
      <trkpt lat="48.0359" lon="5.43641">
        <ele>401</ele>
        <time>2018-06-25T06:50:53Z</time>
      </trkpt>
      <trkpt lat="48.03595" lon="5.43627">
        <ele>400</ele>
        <time>2018-06-25T06:51:01Z</time>
      </trkpt>
      <trkpt lat="48.03599" lon="5.43615">
        <ele>399</ele>
        <time>2018-06-25T06:51:08Z</time>
      </trkpt>
      <trkpt lat="48.03604" lon="5.43603">
        <ele>400</ele>
        <time>2018-06-25T06:51:16Z</time>
      </trkpt>
      <trkpt lat="48.03609" lon="5.43589">
        <ele>400</ele>
        <time>2018-06-25T06:51:24Z</time>
      </trkpt>
      <trkpt lat="48.03614" lon="5.43576">
        <ele>399</ele>
        <time>2018-06-25T06:51:32Z</time>
      </trkpt>
      <trkpt lat="48.0362" lon="5.43563">
        <ele>399</ele>
        <time>2018-06-25T06:51:40Z</time>
      </trkpt>
      <trkpt lat="48.03625" lon="5.43551">
        <ele>399</ele>
        <time>2018-06-25T06:51:48Z</time>
      </trkpt>
      <trkpt lat="48.03629" lon="5.43538">
        <ele>399</ele>
        <time>2018-06-25T06:51:56Z</time>
      </trkpt>
      <trkpt lat="48.03634" lon="5.43526">
        <ele>398</ele>
        <time>2018-06-25T06:52:04Z</time>
      </trkpt>
      <trkpt lat="48.03639" lon="5.43513">
        <ele>398</ele>
        <time>2018-06-25T06:52:12Z</time>
      </trkpt>
      <trkpt lat="48.03643" lon="5.435">
        <ele>397</ele>
        <time>2018-06-25T06:52:21Z</time>
      </trkpt>
      <trkpt lat="48.03647" lon="5.43487">
        <ele>398</ele>
        <time>2018-06-25T06:52:29Z</time>
      </trkpt>
      <trkpt lat="48.03652" lon="5.43474">
        <ele>397</ele>
        <time>2018-06-25T06:52:38Z</time>
      </trkpt>
      <trkpt lat="48.03657" lon="5.43459">
        <ele>397</ele>
        <time>2018-06-25T06:52:47Z</time>
      </trkpt>
      <trkpt lat="48.0366" lon="5.43444">
        <ele>396</ele>
        <time>2018-06-25T06:52:56Z</time>
      </trkpt>
      <trkpt lat="48.03664" lon="5.4343">
        <ele>397</ele>
        <time>2018-06-25T06:53:04Z</time>
      </trkpt>
      <trkpt lat="48.03668" lon="5.43414">
        <ele>397</ele>
        <time>2018-06-25T06:53:13Z</time>
      </trkpt>
      <trkpt lat="48.03672" lon="5.43397">
        <ele>397</ele>
        <time>2018-06-25T06:53:22Z</time>
      </trkpt>
      <trkpt lat="48.03675" lon="5.43383">
        <ele>396</ele>
        <time>2018-06-25T06:53:29Z</time>
      </trkpt>
      <trkpt lat="48.03679" lon="5.43369">
        <ele>396</ele>
        <time>2018-06-25T06:53:36Z</time>
      </trkpt>
      <trkpt lat="48.03683" lon="5.43355">
        <ele>396</ele>
        <time>2018-06-25T06:53:44Z</time>
      </trkpt>
      <trkpt lat="48.03687" lon="5.43341">
        <ele>396</ele>
        <time>2018-06-25T06:53:51Z</time>
      </trkpt>
      <trkpt lat="48.03691" lon="5.43328">
        <ele>396</ele>
        <time>2018-06-25T06:53:58Z</time>
      </trkpt>
      <trkpt lat="48.03696" lon="5.43315">
        <ele>395</ele>
        <time>2018-06-25T06:54:06Z</time>
      </trkpt>
      <trkpt lat="48.03699" lon="5.433">
        <ele>395</ele>
        <time>2018-06-25T06:54:14Z</time>
      </trkpt>
      <trkpt lat="48.03704" lon="5.43288">
        <ele>395</ele>
        <time>2018-06-25T06:54:21Z</time>
      </trkpt>
      <trkpt lat="48.03708" lon="5.43276">
        <ele>394</ele>
        <time>2018-06-25T06:54:28Z</time>
      </trkpt>
      <trkpt lat="48.03714" lon="5.43264">
        <ele>394</ele>
        <time>2018-06-25T06:54:36Z</time>
      </trkpt>
      <trkpt lat="48.03721" lon="5.43253">
        <ele>394</ele>
        <time>2018-06-25T06:54:43Z</time>
      </trkpt>
      <trkpt lat="48.03727" lon="5.43242">
        <ele>393</ele>
        <time>2018-06-25T06:54:50Z</time>
      </trkpt>
      <trkpt lat="48.03733" lon="5.43231">
        <ele>394</ele>
        <time>2018-06-25T06:54:58Z</time>
      </trkpt>
      <trkpt lat="48.0374" lon="5.43219">
        <ele>393</ele>
        <time>2018-06-25T06:55:06Z</time>
      </trkpt>
      <trkpt lat="48.03746" lon="5.43208">
        <ele>393</ele>
        <time>2018-06-25T06:55:13Z</time>
      </trkpt>
      <trkpt lat="48.03753" lon="5.43197">
        <ele>393</ele>
        <time>2018-06-25T06:55:21Z</time>
      </trkpt>
      <trkpt lat="48.0376" lon="5.43187">
        <ele>393</ele>
        <time>2018-06-25T06:55:28Z</time>
      </trkpt>
      <trkpt lat="48.03766" lon="5.43177">
        <ele>393</ele>
        <time>2018-06-25T06:55:35Z</time>
      </trkpt>
      <trkpt lat="48.03773" lon="5.43165">
        <ele>392</ele>
        <time>2018-06-25T06:55:43Z</time>
      </trkpt>
      <trkpt lat="48.03779" lon="5.43154">
        <ele>392</ele>
        <time>2018-06-25T06:55:51Z</time>
      </trkpt>
      <trkpt lat="48.03785" lon="5.43141">
        <ele>391</ele>
        <time>2018-06-25T06:55:59Z</time>
      </trkpt>
      <trkpt lat="48.03792" lon="5.43131">
        <ele>390</ele>
        <time>2018-06-25T06:56:06Z</time>
      </trkpt>
      <trkpt lat="48.03798" lon="5.4312">
        <ele>389</ele>
        <time>2018-06-25T06:56:13Z</time>
      </trkpt>
      <trkpt lat="48.03804" lon="5.43107">
        <ele>388</ele>
        <time>2018-06-25T06:56:21Z</time>
      </trkpt>
      <trkpt lat="48.03809" lon="5.43095">
        <ele>389</ele>
        <time>2018-06-25T06:56:29Z</time>
      </trkpt>
      <trkpt lat="48.03815" lon="5.43082">
        <ele>389</ele>
        <time>2018-06-25T06:56:37Z</time>
      </trkpt>
      <trkpt lat="48.03821" lon="5.4307">
        <ele>389</ele>
        <time>2018-06-25T06:56:44Z</time>
      </trkpt>
      <trkpt lat="48.03827" lon="5.43059">
        <ele>389</ele>
        <time>2018-06-25T06:56:52Z</time>
      </trkpt>
      <trkpt lat="48.03833" lon="5.43048">
        <ele>389</ele>
        <time>2018-06-25T06:56:59Z</time>
      </trkpt>
      <trkpt lat="48.03839" lon="5.43036">
        <ele>388</ele>
        <time>2018-06-25T06:57:06Z</time>
      </trkpt>
      <trkpt lat="48.03845" lon="5.43025">
        <ele>388</ele>
        <time>2018-06-25T06:57:14Z</time>
      </trkpt>
      <trkpt lat="48.0385" lon="5.43013">
        <ele>388</ele>
        <time>2018-06-25T06:57:22Z</time>
      </trkpt>
      <trkpt lat="48.03857" lon="5.43001">
        <ele>388</ele>
        <time>2018-06-25T06:57:29Z</time>
      </trkpt>
      <trkpt lat="48.03862" lon="5.4299">
        <ele>388</ele>
        <time>2018-06-25T06:57:36Z</time>
      </trkpt>
      <trkpt lat="48.03867" lon="5.42979">
        <ele>388</ele>
        <time>2018-06-25T06:57:44Z</time>
      </trkpt>
      <trkpt lat="48.03873" lon="5.42968">
        <ele>388</ele>
        <time>2018-06-25T06:58:30Z</time>
      </trkpt>
      <trkpt lat="48.0388" lon="5.42955">
        <ele>388</ele>
        <time>2018-06-25T06:58:38Z</time>
      </trkpt>
      <trkpt lat="48.03886" lon="5.42943">
        <ele>387</ele>
        <time>2018-06-25T06:58:46Z</time>
      </trkpt>
      <trkpt lat="48.03892" lon="5.42931">
        <ele>387</ele>
        <time>2018-06-25T06:58:54Z</time>
      </trkpt>
      <trkpt lat="48.03899" lon="5.42917">
        <ele>387</ele>
        <time>2018-06-25T06:59:03Z</time>
      </trkpt>
      <trkpt lat="48.03906" lon="5.42905">
        <ele>387</ele>
        <time>2018-06-25T06:59:11Z</time>
      </trkpt>
      <trkpt lat="48.03913" lon="5.42894">
        <ele>387</ele>
        <time>2018-06-25T06:59:29Z</time>
      </trkpt>
      <trkpt lat="48.0392" lon="5.42883">
        <ele>387</ele>
        <time>2018-06-25T06:59:39Z</time>
      </trkpt>
      <trkpt lat="48.03927" lon="5.42872">
        <ele>387</ele>
        <time>2018-06-25T06:59:48Z</time>
      </trkpt>
      <trkpt lat="48.03935" lon="5.42862">
        <ele>386</ele>
        <time>2018-06-25T06:59:56Z</time>
      </trkpt>
      <trkpt lat="48.03943" lon="5.42854">
        <ele>387</ele>
        <time>2018-06-25T07:00:03Z</time>
      </trkpt>
      <trkpt lat="48.03951" lon="5.42846">
        <ele>387</ele>
        <time>2018-06-25T07:00:10Z</time>
      </trkpt>
      <trkpt lat="48.0396" lon="5.42838">
        <ele>387</ele>
        <time>2018-06-25T07:00:18Z</time>
      </trkpt>
      <trkpt lat="48.03968" lon="5.4283">
        <ele>387</ele>
        <time>2018-06-25T07:00:25Z</time>
      </trkpt>
      <trkpt lat="48.03977" lon="5.42822">
        <ele>386</ele>
        <time>2018-06-25T07:00:32Z</time>
      </trkpt>
      <trkpt lat="48.03985" lon="5.42814">
        <ele>386</ele>
        <time>2018-06-25T07:00:39Z</time>
      </trkpt>
      <trkpt lat="48.03992" lon="5.42805">
        <ele>385</ele>
        <time>2018-06-25T07:00:46Z</time>
      </trkpt>
      <trkpt lat="48.03998" lon="5.42797">
        <ele>385</ele>
        <time>2018-06-25T07:00:58Z</time>
      </trkpt>
      <trkpt lat="48.04006" lon="5.42789">
        <ele>385</ele>
        <time>2018-06-25T07:01:05Z</time>
      </trkpt>
      <trkpt lat="48.04014" lon="5.4278">
        <ele>384</ele>
        <time>2018-06-25T07:01:13Z</time>
      </trkpt>
      <trkpt lat="48.04022" lon="5.42771">
        <ele>384</ele>
        <time>2018-06-25T07:01:20Z</time>
      </trkpt>
      <trkpt lat="48.04029" lon="5.42762">
        <ele>384</ele>
        <time>2018-06-25T07:01:29Z</time>
      </trkpt>
      <trkpt lat="48.04038" lon="5.42755">
        <ele>384</ele>
        <time>2018-06-25T07:01:36Z</time>
      </trkpt>
      <trkpt lat="48.04047" lon="5.42749">
        <ele>384</ele>
        <time>2018-06-25T07:01:43Z</time>
      </trkpt>
      <trkpt lat="48.04055" lon="5.42744">
        <ele>383</ele>
        <time>2018-06-25T07:01:50Z</time>
      </trkpt>
      <trkpt lat="48.04065" lon="5.42738">
        <ele>383</ele>
        <time>2018-06-25T07:01:57Z</time>
      </trkpt>
      <trkpt lat="48.04074" lon="5.42734">
        <ele>383</ele>
        <time>2018-06-25T07:02:04Z</time>
      </trkpt>
      <trkpt lat="48.04084" lon="5.42728">
        <ele>383</ele>
        <time>2018-06-25T07:02:12Z</time>
      </trkpt>
      <trkpt lat="48.04094" lon="5.42722">
        <ele>383</ele>
        <time>2018-06-25T07:02:20Z</time>
      </trkpt>
      <trkpt lat="48.04103" lon="5.42715">
        <ele>383</ele>
        <time>2018-06-25T07:02:28Z</time>
      </trkpt>
      <trkpt lat="48.04109" lon="5.42705">
        <ele>384</ele>
        <time>2018-06-25T07:02:35Z</time>
      </trkpt>
      <trkpt lat="48.04116" lon="5.42696">
        <ele>384</ele>
        <time>2018-06-25T07:02:42Z</time>
      </trkpt>
      <trkpt lat="48.04123" lon="5.42685">
        <ele>384</ele>
        <time>2018-06-25T07:02:50Z</time>
      </trkpt>
      <trkpt lat="48.04129" lon="5.42674">
        <ele>384</ele>
        <time>2018-06-25T07:02:57Z</time>
      </trkpt>
      <trkpt lat="48.04135" lon="5.42663">
        <ele>383</ele>
        <time>2018-06-25T07:03:05Z</time>
      </trkpt>
      <trkpt lat="48.04142" lon="5.42652">
        <ele>383</ele>
        <time>2018-06-25T07:03:13Z</time>
      </trkpt>
      <trkpt lat="48.04148" lon="5.42643">
        <ele>383</ele>
        <time>2018-06-25T07:03:20Z</time>
      </trkpt>
      <trkpt lat="48.04156" lon="5.42632">
        <ele>382</ele>
        <time>2018-06-25T07:03:28Z</time>
      </trkpt>
      <trkpt lat="48.04163" lon="5.42624">
        <ele>383</ele>
        <time>2018-06-25T07:03:35Z</time>
      </trkpt>
      <trkpt lat="48.04171" lon="5.42614">
        <ele>383</ele>
        <time>2018-06-25T07:03:43Z</time>
      </trkpt>
      <trkpt lat="48.0418" lon="5.42605">
        <ele>382</ele>
        <time>2018-06-25T07:03:51Z</time>
      </trkpt>
      <trkpt lat="48.04187" lon="5.42596">
        <ele>383</ele>
        <time>2018-06-25T07:03:58Z</time>
      </trkpt>
      <trkpt lat="48.04195" lon="5.42588">
        <ele>382</ele>
        <time>2018-06-25T07:04:06Z</time>
      </trkpt>
      <trkpt lat="48.04203" lon="5.42581">
        <ele>382</ele>
        <time>2018-06-25T07:04:13Z</time>
      </trkpt>
      <trkpt lat="48.0421" lon="5.42572">
        <ele>381</ele>
        <time>2018-06-25T07:04:21Z</time>
      </trkpt>
      <trkpt lat="48.04217" lon="5.42562">
        <ele>381</ele>
        <time>2018-06-25T07:04:28Z</time>
      </trkpt>
      <trkpt lat="48.04224" lon="5.42553">
        <ele>382</ele>
        <time>2018-06-25T07:04:35Z</time>
      </trkpt>
      <trkpt lat="48.04232" lon="5.42543">
        <ele>381</ele>
        <time>2018-06-25T07:04:43Z</time>
      </trkpt>
      <trkpt lat="48.04239" lon="5.42533">
        <ele>381</ele>
        <time>2018-06-25T07:04:50Z</time>
      </trkpt>
      <trkpt lat="48.04247" lon="5.42523">
        <ele>380</ele>
        <time>2018-06-25T07:04:58Z</time>
      </trkpt>
      <trkpt lat="48.04254" lon="5.42512">
        <ele>381</ele>
        <time>2018-06-25T07:05:06Z</time>
      </trkpt>
      <trkpt lat="48.04261" lon="5.42505">
        <ele>380</ele>
        <time>2018-06-25T07:05:13Z</time>
      </trkpt>
      <trkpt lat="48.0427" lon="5.42497">
        <ele>381</ele>
        <time>2018-06-25T07:05:21Z</time>
      </trkpt>
      <trkpt lat="48.04279" lon="5.42491">
        <ele>379</ele>
        <time>2018-06-25T07:05:29Z</time>
      </trkpt>
      <trkpt lat="48.04289" lon="5.42484">
        <ele>379</ele>
        <time>2018-06-25T07:05:37Z</time>
      </trkpt>
      <trkpt lat="48.04297" lon="5.42479">
        <ele>380</ele>
        <time>2018-06-25T07:05:44Z</time>
      </trkpt>
      <trkpt lat="48.04306" lon="5.42475">
        <ele>380</ele>
        <time>2018-06-25T07:05:51Z</time>
      </trkpt>
      <trkpt lat="48.04314" lon="5.42468">
        <ele>380</ele>
        <time>2018-06-25T07:05:59Z</time>
      </trkpt>
      <trkpt lat="48.04323" lon="5.42463">
        <ele>379</ele>
        <time>2018-06-25T07:06:06Z</time>
      </trkpt>
      <trkpt lat="48.04332" lon="5.42458">
        <ele>380</ele>
        <time>2018-06-25T07:06:14Z</time>
      </trkpt>
      <trkpt lat="48.04341" lon="5.42454">
        <ele>380</ele>
        <time>2018-06-25T07:06:21Z</time>
      </trkpt>
      <trkpt lat="48.04351" lon="5.4245">
        <ele>380</ele>
        <time>2018-06-25T07:06:29Z</time>
      </trkpt>
      <trkpt lat="48.04362" lon="5.4245">
        <ele>379</ele>
        <time>2018-06-25T07:06:37Z</time>
      </trkpt>
      <trkpt lat="48.04371" lon="5.42452">
        <ele>380</ele>
        <time>2018-06-25T07:06:45Z</time>
      </trkpt>
      <trkpt lat="48.04381" lon="5.42454">
        <ele>379</ele>
        <time>2018-06-25T07:06:53Z</time>
      </trkpt>
      <trkpt lat="48.04392" lon="5.42456">
        <ele>379</ele>
        <time>2018-06-25T07:07:00Z</time>
      </trkpt>
      <trkpt lat="48.04401" lon="5.42456">
        <ele>379</ele>
        <time>2018-06-25T07:07:08Z</time>
      </trkpt>
      <trkpt lat="48.04411" lon="5.42455">
        <ele>380</ele>
        <time>2018-06-25T07:07:16Z</time>
      </trkpt>
      <trkpt lat="48.04421" lon="5.42453">
        <ele>379</ele>
        <time>2018-06-25T07:07:23Z</time>
      </trkpt>
      <trkpt lat="48.04431" lon="5.42449">
        <ele>380</ele>
        <time>2018-06-25T07:07:31Z</time>
      </trkpt>
      <trkpt lat="48.0444" lon="5.42444">
        <ele>379</ele>
        <time>2018-06-25T07:07:38Z</time>
      </trkpt>
      <trkpt lat="48.04449" lon="5.42438">
        <ele>379</ele>
        <time>2018-06-25T07:07:46Z</time>
      </trkpt>
      <trkpt lat="48.04458" lon="5.42432">
        <ele>380</ele>
        <time>2018-06-25T07:07:54Z</time>
      </trkpt>
      <trkpt lat="48.04466" lon="5.42425">
        <ele>379</ele>
        <time>2018-06-25T07:08:01Z</time>
      </trkpt>
      <trkpt lat="48.04476" lon="5.42419">
        <ele>379</ele>
        <time>2018-06-25T07:08:08Z</time>
      </trkpt>
      <trkpt lat="48.04484" lon="5.42412">
        <ele>380</ele>
        <time>2018-06-25T07:08:15Z</time>
      </trkpt>
      <trkpt lat="48.04493" lon="5.42407">
        <ele>379</ele>
        <time>2018-06-25T07:08:22Z</time>
      </trkpt>
      <trkpt lat="48.04501" lon="5.42401">
        <ele>379</ele>
        <time>2018-06-25T07:08:29Z</time>
      </trkpt>
      <trkpt lat="48.0451" lon="5.42396">
        <ele>379</ele>
        <time>2018-06-25T07:08:36Z</time>
      </trkpt>
      <trkpt lat="48.0452" lon="5.4239">
        <ele>379</ele>
        <time>2018-06-25T07:08:44Z</time>
      </trkpt>
      <trkpt lat="48.04529" lon="5.42384">
        <ele>379</ele>
        <time>2018-06-25T07:08:51Z</time>
      </trkpt>
      <trkpt lat="48.04538" lon="5.4238">
        <ele>378</ele>
        <time>2018-06-25T07:08:58Z</time>
      </trkpt>
      <trkpt lat="48.04547" lon="5.42374">
        <ele>378</ele>
        <time>2018-06-25T07:09:05Z</time>
      </trkpt>
      <trkpt lat="48.04556" lon="5.42369">
        <ele>378</ele>
        <time>2018-06-25T07:09:12Z</time>
      </trkpt>
      <trkpt lat="48.04566" lon="5.42364">
        <ele>377</ele>
        <time>2018-06-25T07:09:20Z</time>
      </trkpt>
      <trkpt lat="48.04574" lon="5.42359">
        <ele>378</ele>
        <time>2018-06-25T07:09:27Z</time>
      </trkpt>
      <trkpt lat="48.04583" lon="5.42354">
        <ele>377</ele>
        <time>2018-06-25T07:09:34Z</time>
      </trkpt>
      <trkpt lat="48.04592" lon="5.4235">
        <ele>378</ele>
        <time>2018-06-25T07:09:41Z</time>
      </trkpt>
      <trkpt lat="48.04601" lon="5.42346">
        <ele>378</ele>
        <time>2018-06-25T07:09:49Z</time>
      </trkpt>
      <trkpt lat="48.0461" lon="5.42342">
        <ele>378</ele>
        <time>2018-06-25T07:09:56Z</time>
      </trkpt>
      <trkpt lat="48.04619" lon="5.42337">
        <ele>377</ele>
        <time>2018-06-25T07:10:04Z</time>
      </trkpt>
      <trkpt lat="48.04629" lon="5.42332">
        <ele>377</ele>
        <time>2018-06-25T07:10:12Z</time>
      </trkpt>
      <trkpt lat="48.04639" lon="5.42327">
        <ele>376</ele>
        <time>2018-06-25T07:10:20Z</time>
      </trkpt>
      <trkpt lat="48.04648" lon="5.42324">
        <ele>378</ele>
        <time>2018-06-25T07:10:27Z</time>
      </trkpt>
      <trkpt lat="48.04657" lon="5.42318">
        <ele>377</ele>
        <time>2018-06-25T07:10:35Z</time>
      </trkpt>
      <trkpt lat="48.04667" lon="5.42312">
        <ele>377</ele>
        <time>2018-06-25T07:10:43Z</time>
      </trkpt>
      <trkpt lat="48.04677" lon="5.42306">
        <ele>376</ele>
        <time>2018-06-25T07:10:50Z</time>
      </trkpt>
      <trkpt lat="48.04685" lon="5.42301">
        <ele>377</ele>
        <time>2018-06-25T07:10:57Z</time>
      </trkpt>
      <trkpt lat="48.04694" lon="5.42294">
        <ele>377</ele>
        <time>2018-06-25T07:11:05Z</time>
      </trkpt>
      <trkpt lat="48.04702" lon="5.42289">
        <ele>376</ele>
        <time>2018-06-25T07:11:12Z</time>
      </trkpt>
      <trkpt lat="48.0471" lon="5.42281">
        <ele>376</ele>
        <time>2018-06-25T07:11:20Z</time>
      </trkpt>
      <trkpt lat="48.04718" lon="5.42273">
        <ele>376</ele>
        <time>2018-06-25T07:11:27Z</time>
      </trkpt>
      <trkpt lat="48.04726" lon="5.42266">
        <ele>376</ele>
        <time>2018-06-25T07:11:34Z</time>
      </trkpt>
      <trkpt lat="48.04734" lon="5.4226">
        <ele>376</ele>
        <time>2018-06-25T07:11:43Z</time>
      </trkpt>
      <trkpt lat="48.04742" lon="5.4225">
        <ele>376</ele>
        <time>2018-06-25T07:11:51Z</time>
      </trkpt>
      <trkpt lat="48.0475" lon="5.42242">
        <ele>376</ele>
        <time>2018-06-25T07:11:58Z</time>
      </trkpt>
      <trkpt lat="48.04758" lon="5.42234">
        <ele>376</ele>
        <time>2018-06-25T07:12:05Z</time>
      </trkpt>
      <trkpt lat="48.04766" lon="5.42226">
        <ele>376</ele>
        <time>2018-06-25T07:12:13Z</time>
      </trkpt>
      <trkpt lat="48.04775" lon="5.42218">
        <ele>375</ele>
        <time>2018-06-25T07:12:21Z</time>
      </trkpt>
      <trkpt lat="48.04782" lon="5.4221">
        <ele>375</ele>
        <time>2018-06-25T07:12:28Z</time>
      </trkpt>
      <trkpt lat="48.04791" lon="5.42201">
        <ele>375</ele>
        <time>2018-06-25T07:12:36Z</time>
      </trkpt>
      <trkpt lat="48.04799" lon="5.42191">
        <ele>375</ele>
        <time>2018-06-25T07:12:44Z</time>
      </trkpt>
      <trkpt lat="48.04807" lon="5.42184">
        <ele>375</ele>
        <time>2018-06-25T07:12:51Z</time>
      </trkpt>
      <trkpt lat="48.04816" lon="5.42176">
        <ele>375</ele>
        <time>2018-06-25T07:12:59Z</time>
      </trkpt>
      <trkpt lat="48.04824" lon="5.42169">
        <ele>374</ele>
        <time>2018-06-25T07:13:06Z</time>
      </trkpt>
      <trkpt lat="48.04831" lon="5.42161">
        <ele>374</ele>
        <time>2018-06-25T07:13:14Z</time>
      </trkpt>
      <trkpt lat="48.0484" lon="5.42153">
        <ele>374</ele>
        <time>2018-06-25T07:13:41Z</time>
      </trkpt>
      <trkpt lat="48.04848" lon="5.42146">
        <ele>374</ele>
        <time>2018-06-25T07:13:48Z</time>
      </trkpt>
      <trkpt lat="48.04857" lon="5.42139">
        <ele>373</ele>
        <time>2018-06-25T07:13:56Z</time>
      </trkpt>
      <trkpt lat="48.04866" lon="5.42133">
        <ele>373</ele>
        <time>2018-06-25T07:14:03Z</time>
      </trkpt>
      <trkpt lat="48.04874" lon="5.42126">
        <ele>372</ele>
        <time>2018-06-25T07:14:10Z</time>
      </trkpt>
      <trkpt lat="48.04882" lon="5.4212">
        <ele>372</ele>
        <time>2018-06-25T07:14:17Z</time>
      </trkpt>
      <trkpt lat="48.0489" lon="5.42112">
        <ele>373</ele>
        <time>2018-06-25T07:14:25Z</time>
      </trkpt>
      <trkpt lat="48.04899" lon="5.42103">
        <ele>373</ele>
        <time>2018-06-25T07:14:33Z</time>
      </trkpt>
      <trkpt lat="48.04907" lon="5.42095">
        <ele>373</ele>
        <time>2018-06-25T07:14:40Z</time>
      </trkpt>
      <trkpt lat="48.04915" lon="5.42087">
        <ele>373</ele>
        <time>2018-06-25T07:14:48Z</time>
      </trkpt>
      <trkpt lat="48.04922" lon="5.42079">
        <ele>373</ele>
        <time>2018-06-25T07:14:55Z</time>
      </trkpt>
      <trkpt lat="48.0493" lon="5.4207">
        <ele>373</ele>
        <time>2018-06-25T07:15:03Z</time>
      </trkpt>
      <trkpt lat="48.04938" lon="5.42058">
        <ele>373</ele>
        <time>2018-06-25T07:15:11Z</time>
      </trkpt>
      <trkpt lat="48.04946" lon="5.4205">
        <ele>373</ele>
        <time>2018-06-25T07:15:18Z</time>
      </trkpt>
      <trkpt lat="48.04954" lon="5.42042">
        <ele>372</ele>
        <time>2018-06-25T07:15:25Z</time>
      </trkpt>
      <trkpt lat="48.04962" lon="5.42033">
        <ele>372</ele>
        <time>2018-06-25T07:15:32Z</time>
      </trkpt>
      <trkpt lat="48.0497" lon="5.42025">
        <ele>372</ele>
        <time>2018-06-25T07:15:39Z</time>
      </trkpt>
      <trkpt lat="48.04977" lon="5.42016">
        <ele>372</ele>
        <time>2018-06-25T07:15:46Z</time>
      </trkpt>
      <trkpt lat="48.04985" lon="5.42008">
        <ele>372</ele>
        <time>2018-06-25T07:15:53Z</time>
      </trkpt>
      <trkpt lat="48.04992" lon="5.41999">
        <ele>372</ele>
        <time>2018-06-25T07:16:00Z</time>
      </trkpt>
      <trkpt lat="48.04999" lon="5.4199">
        <ele>372</ele>
        <time>2018-06-25T07:16:07Z</time>
      </trkpt>
      <trkpt lat="48.05007" lon="5.41981">
        <ele>372</ele>
        <time>2018-06-25T07:16:15Z</time>
      </trkpt>
      <trkpt lat="48.05016" lon="5.41973">
        <ele>372</ele>
        <time>2018-06-25T07:16:22Z</time>
      </trkpt>
      <trkpt lat="48.05023" lon="5.41963">
        <ele>372</ele>
        <time>2018-06-25T07:16:30Z</time>
      </trkpt>
      <trkpt lat="48.05031" lon="5.41955">
        <ele>372</ele>
        <time>2018-06-25T07:16:37Z</time>
      </trkpt>
      <trkpt lat="48.05039" lon="5.41946">
        <ele>372</ele>
        <time>2018-06-25T07:16:45Z</time>
      </trkpt>
      <trkpt lat="48.05047" lon="5.41939">
        <ele>371</ele>
        <time>2018-06-25T07:16:52Z</time>
      </trkpt>
      <trkpt lat="48.05055" lon="5.41931">
        <ele>371</ele>
        <time>2018-06-25T07:17:00Z</time>
      </trkpt>
      <trkpt lat="48.05063" lon="5.41924">
        <ele>371</ele>
        <time>2018-06-25T07:17:07Z</time>
      </trkpt>
      <trkpt lat="48.05072" lon="5.41917">
        <ele>371</ele>
        <time>2018-06-25T07:17:15Z</time>
      </trkpt>
      <trkpt lat="48.05081" lon="5.4191">
        <ele>372</ele>
        <time>2018-06-25T07:17:23Z</time>
      </trkpt>
      <trkpt lat="48.0509" lon="5.41902">
        <ele>371</ele>
        <time>2018-06-25T07:17:31Z</time>
      </trkpt>
      <trkpt lat="48.05098" lon="5.41895">
        <ele>371</ele>
        <time>2018-06-25T07:17:38Z</time>
      </trkpt>
      <trkpt lat="48.05107" lon="5.41888">
        <ele>371</ele>
        <time>2018-06-25T07:17:45Z</time>
      </trkpt>
      <trkpt lat="48.05115" lon="5.4188">
        <ele>371</ele>
        <time>2018-06-25T07:17:53Z</time>
      </trkpt>
      <trkpt lat="48.05124" lon="5.41874">
        <ele>371</ele>
        <time>2018-06-25T07:18:00Z</time>
      </trkpt>
      <trkpt lat="48.05131" lon="5.41866">
        <ele>371</ele>
        <time>2018-06-25T07:18:07Z</time>
      </trkpt>
      <trkpt lat="48.0514" lon="5.41857">
        <ele>371</ele>
        <time>2018-06-25T07:18:15Z</time>
      </trkpt>
      <trkpt lat="48.05148" lon="5.41847">
        <ele>371</ele>
        <time>2018-06-25T07:18:23Z</time>
      </trkpt>
      <trkpt lat="48.05155" lon="5.41838">
        <ele>371</ele>
        <time>2018-06-25T07:18:30Z</time>
      </trkpt>
      <trkpt lat="48.05163" lon="5.41828">
        <ele>371</ele>
        <time>2018-06-25T07:18:38Z</time>
      </trkpt>
      <trkpt lat="48.0517" lon="5.41818">
        <ele>371</ele>
        <time>2018-06-25T07:18:46Z</time>
      </trkpt>
      <trkpt lat="48.05178" lon="5.41808">
        <ele>371</ele>
        <time>2018-06-25T07:18:54Z</time>
      </trkpt>
      <trkpt lat="48.05186" lon="5.41799">
        <ele>370</ele>
        <time>2018-06-25T07:19:02Z</time>
      </trkpt>
      <trkpt lat="48.05195" lon="5.41791">
        <ele>371</ele>
        <time>2018-06-25T07:19:10Z</time>
      </trkpt>
      <trkpt lat="48.05203" lon="5.41784">
        <ele>370</ele>
        <time>2018-06-25T07:19:18Z</time>
      </trkpt>
      <trkpt lat="48.05211" lon="5.41777">
        <ele>370</ele>
        <time>2018-06-25T07:19:25Z</time>
      </trkpt>
      <trkpt lat="48.0522" lon="5.41774">
        <ele>370</ele>
        <time>2018-06-25T07:19:32Z</time>
      </trkpt>
      <trkpt lat="48.05229" lon="5.41771">
        <ele>371</ele>
        <time>2018-06-25T07:19:39Z</time>
      </trkpt>
      <trkpt lat="48.05238" lon="5.41766">
        <ele>370</ele>
        <time>2018-06-25T07:19:47Z</time>
      </trkpt>
      <trkpt lat="48.05248" lon="5.41761">
        <ele>371</ele>
        <time>2018-06-25T07:19:55Z</time>
      </trkpt>
      <trkpt lat="48.05257" lon="5.41755">
        <ele>370</ele>
        <time>2018-06-25T07:20:02Z</time>
      </trkpt>
      <trkpt lat="48.05266" lon="5.41748">
        <ele>371</ele>
        <time>2018-06-25T07:20:10Z</time>
      </trkpt>
      <trkpt lat="48.05275" lon="5.4174">
        <ele>371</ele>
        <time>2018-06-25T07:20:18Z</time>
      </trkpt>
      <trkpt lat="48.05284" lon="5.41732">
        <ele>371</ele>
        <time>2018-06-25T07:20:26Z</time>
      </trkpt>
      <trkpt lat="48.05292" lon="5.41725">
        <ele>372</ele>
        <time>2018-06-25T07:20:33Z</time>
      </trkpt>
      <trkpt lat="48.05301" lon="5.41717">
        <ele>371</ele>
        <time>2018-06-25T07:20:41Z</time>
      </trkpt>
      <trkpt lat="48.0531" lon="5.41709">
        <ele>371</ele>
        <time>2018-06-25T07:20:49Z</time>
      </trkpt>
      <trkpt lat="48.05319" lon="5.41701">
        <ele>372</ele>
        <time>2018-06-25T07:20:57Z</time>
      </trkpt>
      <trkpt lat="48.05328" lon="5.41692">
        <ele>372</ele>
        <time>2018-06-25T07:21:05Z</time>
      </trkpt>
      <trkpt lat="48.05337" lon="5.41685">
        <ele>372</ele>
        <time>2018-06-25T07:21:16Z</time>
      </trkpt>
      <trkpt lat="48.05345" lon="5.41676">
        <ele>374</ele>
        <time>2018-06-25T07:21:24Z</time>
      </trkpt>
      <trkpt lat="48.05352" lon="5.41667">
        <ele>374</ele>
        <time>2018-06-25T07:21:32Z</time>
      </trkpt>
      <trkpt lat="48.0536" lon="5.41659">
        <ele>375</ele>
        <time>2018-06-25T07:21:40Z</time>
      </trkpt>
      <trkpt lat="48.05369" lon="5.4165">
        <ele>375</ele>
        <time>2018-06-25T07:21:48Z</time>
      </trkpt>
      <trkpt lat="48.05376" lon="5.41639">
        <ele>375</ele>
        <time>2018-06-25T07:21:55Z</time>
      </trkpt>
      <trkpt lat="48.0538" lon="5.41627">
        <ele>373</ele>
        <time>2018-06-25T07:22:02Z</time>
      </trkpt>
      <trkpt lat="48.05385" lon="5.41615">
        <ele>374</ele>
        <time>2018-06-25T07:22:09Z</time>
      </trkpt>
      <trkpt lat="48.05389" lon="5.41601">
        <ele>373</ele>
        <time>2018-06-25T07:22:17Z</time>
      </trkpt>
      <trkpt lat="48.05394" lon="5.41584">
        <ele>373</ele>
        <time>2018-06-25T07:22:26Z</time>
      </trkpt>
      <trkpt lat="48.05398" lon="5.41569">
        <ele>373</ele>
        <time>2018-06-25T07:22:34Z</time>
      </trkpt>
      <trkpt lat="48.05403" lon="5.41555">
        <ele>372</ele>
        <time>2018-06-25T07:22:42Z</time>
      </trkpt>
      <trkpt lat="48.05406" lon="5.41546">
        <ele>372</ele>
        <time>2018-06-25T07:24:05Z</time>
      </trkpt>
      <trkpt lat="48.05408" lon="5.4153">
        <ele>373</ele>
        <time>2018-06-25T07:24:16Z</time>
      </trkpt>
      <trkpt lat="48.05413" lon="5.41515">
        <ele>373</ele>
        <time>2018-06-25T07:24:25Z</time>
      </trkpt>
      <trkpt lat="48.05415" lon="5.41501">
        <ele>372</ele>
        <time>2018-06-25T07:24:39Z</time>
      </trkpt>
      <trkpt lat="48.05418" lon="5.41487">
        <ele>371</ele>
        <time>2018-06-25T07:25:00Z</time>
      </trkpt>
      <trkpt lat="48.05425" lon="5.41473">
        <ele>371</ele>
        <time>2018-06-25T07:25:08Z</time>
      </trkpt>
      <trkpt lat="48.05431" lon="5.41461">
        <ele>371</ele>
        <time>2018-06-25T07:25:15Z</time>
      </trkpt>
      <trkpt lat="48.05438" lon="5.4145">
        <ele>372</ele>
        <time>2018-06-25T07:25:23Z</time>
      </trkpt>
      <trkpt lat="48.05446" lon="5.41438">
        <ele>371</ele>
        <time>2018-06-25T07:25:31Z</time>
      </trkpt>
      <trkpt lat="48.05452" lon="5.4143">
        <ele>371</ele>
        <time>2018-06-25T07:25:57Z</time>
      </trkpt>
      <trkpt lat="48.05458" lon="5.41418">
        <ele>371</ele>
        <time>2018-06-25T07:26:05Z</time>
      </trkpt>
      <trkpt lat="48.05465" lon="5.41407">
        <ele>371</ele>
        <time>2018-06-25T07:26:12Z</time>
      </trkpt>
      <trkpt lat="48.05473" lon="5.41397">
        <ele>371</ele>
        <time>2018-06-25T07:26:19Z</time>
      </trkpt>
      <trkpt lat="48.05479" lon="5.41385">
        <ele>371</ele>
        <time>2018-06-25T07:26:27Z</time>
      </trkpt>
      <trkpt lat="48.05488" lon="5.41376">
        <ele>371</ele>
        <time>2018-06-25T07:26:35Z</time>
      </trkpt>
      <trkpt lat="48.05498" lon="5.41371">
        <ele>372</ele>
        <time>2018-06-25T07:26:43Z</time>
      </trkpt>
      <trkpt lat="48.05509" lon="5.41364">
        <ele>372</ele>
        <time>2018-06-25T07:26:51Z</time>
      </trkpt>
      <trkpt lat="48.0552" lon="5.41358">
        <ele>372</ele>
        <time>2018-06-25T07:26:59Z</time>
      </trkpt>
      <trkpt lat="48.05527" lon="5.4135">
        <ele>372</ele>
        <time>2018-06-25T07:27:06Z</time>
      </trkpt>
      <trkpt lat="48.05536" lon="5.4134">
        <ele>373</ele>
        <time>2018-06-25T07:27:13Z</time>
      </trkpt>
      <trkpt lat="48.05543" lon="5.41331">
        <ele>373</ele>
        <time>2018-06-25T07:27:20Z</time>
      </trkpt>
      <trkpt lat="48.05551" lon="5.41321">
        <ele>373</ele>
        <time>2018-06-25T07:27:27Z</time>
      </trkpt>
      <trkpt lat="48.05557" lon="5.41312">
        <ele>374</ele>
        <time>2018-06-25T07:27:34Z</time>
      </trkpt>
      <trkpt lat="48.05563" lon="5.41301">
        <ele>374</ele>
        <time>2018-06-25T07:27:41Z</time>
      </trkpt>
      <trkpt lat="48.05571" lon="5.41291">
        <ele>373</ele>
        <time>2018-06-25T07:27:48Z</time>
      </trkpt>
      <trkpt lat="48.05576" lon="5.41278">
        <ele>373</ele>
        <time>2018-06-25T07:27:56Z</time>
      </trkpt>
      <trkpt lat="48.05582" lon="5.41266">
        <ele>373</ele>
        <time>2018-06-25T07:28:04Z</time>
      </trkpt>
      <trkpt lat="48.05587" lon="5.41252">
        <ele>373</ele>
        <time>2018-06-25T07:28:12Z</time>
      </trkpt>
      <trkpt lat="48.05592" lon="5.41239">
        <ele>373</ele>
        <time>2018-06-25T07:28:20Z</time>
      </trkpt>
      <trkpt lat="48.05596" lon="5.41225">
        <ele>373</ele>
        <time>2018-06-25T07:28:27Z</time>
      </trkpt>
      <trkpt lat="48.056" lon="5.41212">
        <ele>373</ele>
        <time>2018-06-25T07:28:34Z</time>
      </trkpt>
      <trkpt lat="48.05605" lon="5.412">
        <ele>372</ele>
        <time>2018-06-25T07:28:41Z</time>
      </trkpt>
      <trkpt lat="48.0561" lon="5.41185">
        <ele>372</ele>
        <time>2018-06-25T07:28:49Z</time>
      </trkpt>
      <trkpt lat="48.05614" lon="5.41171">
        <ele>373</ele>
        <time>2018-06-25T07:28:56Z</time>
      </trkpt>
      <trkpt lat="48.05619" lon="5.41159">
        <ele>373</ele>
        <time>2018-06-25T07:29:03Z</time>
      </trkpt>
      <trkpt lat="48.05624" lon="5.41144">
        <ele>372</ele>
        <time>2018-06-25T07:29:11Z</time>
      </trkpt>
      <trkpt lat="48.05627" lon="5.4113">
        <ele>372</ele>
        <time>2018-06-25T07:29:19Z</time>
      </trkpt>
      <trkpt lat="48.05631" lon="5.41115">
        <ele>371</ele>
        <time>2018-06-25T07:29:27Z</time>
      </trkpt>
      <trkpt lat="48.05636" lon="5.411">
        <ele>372</ele>
        <time>2018-06-25T07:29:35Z</time>
      </trkpt>
      <trkpt lat="48.0564" lon="5.41087">
        <ele>371</ele>
        <time>2018-06-25T07:29:42Z</time>
      </trkpt>
      <trkpt lat="48.05646" lon="5.41074">
        <ele>370</ele>
        <time>2018-06-25T07:29:49Z</time>
      </trkpt>
      <trkpt lat="48.05653" lon="5.4106">
        <ele>370</ele>
        <time>2018-06-25T07:29:57Z</time>
      </trkpt>
      <trkpt lat="48.0566" lon="5.41049">
        <ele>371</ele>
        <time>2018-06-25T07:30:04Z</time>
      </trkpt>
      <trkpt lat="48.05667" lon="5.41038">
        <ele>371</ele>
        <time>2018-06-25T07:30:11Z</time>
      </trkpt>
      <trkpt lat="48.05673" lon="5.41027">
        <ele>370</ele>
        <time>2018-06-25T07:30:18Z</time>
      </trkpt>
      <trkpt lat="48.0568" lon="5.41015">
        <ele>371</ele>
        <time>2018-06-25T07:30:26Z</time>
      </trkpt>
      <trkpt lat="48.05686" lon="5.41003">
        <ele>370</ele>
        <time>2018-06-25T07:30:34Z</time>
      </trkpt>
      <trkpt lat="48.05692" lon="5.40991">
        <ele>370</ele>
        <time>2018-06-25T07:30:42Z</time>
      </trkpt>
      <trkpt lat="48.05698" lon="5.40979">
        <ele>370</ele>
        <time>2018-06-25T07:30:49Z</time>
      </trkpt>
      <trkpt lat="48.05704" lon="5.40967">
        <ele>370</ele>
        <time>2018-06-25T07:30:56Z</time>
      </trkpt>
      <trkpt lat="48.0571" lon="5.40955">
        <ele>370</ele>
        <time>2018-06-25T07:31:03Z</time>
      </trkpt>
      <trkpt lat="48.05715" lon="5.40945">
        <ele>370</ele>
        <time>2018-06-25T07:31:10Z</time>
      </trkpt>
      <trkpt lat="48.0572" lon="5.40932">
        <ele>370</ele>
        <time>2018-06-25T07:31:18Z</time>
      </trkpt>
      <trkpt lat="48.05725" lon="5.40919">
        <ele>370</ele>
        <time>2018-06-25T07:31:25Z</time>
      </trkpt>
      <trkpt lat="48.0573" lon="5.40907">
        <ele>369</ele>
        <time>2018-06-25T07:31:32Z</time>
      </trkpt>
      <trkpt lat="48.05735" lon="5.40894">
        <ele>370</ele>
        <time>2018-06-25T07:31:39Z</time>
      </trkpt>
      <trkpt lat="48.0574" lon="5.40881">
        <ele>370</ele>
        <time>2018-06-25T07:31:46Z</time>
      </trkpt>
      <trkpt lat="48.05744" lon="5.40869">
        <ele>370</ele>
        <time>2018-06-25T07:31:52Z</time>
      </trkpt>
      <trkpt lat="48.05747" lon="5.40855">
        <ele>369</ele>
        <time>2018-06-25T07:31:59Z</time>
      </trkpt>
      <trkpt lat="48.0575" lon="5.40843">
        <ele>369</ele>
        <time>2018-06-25T07:32:06Z</time>
      </trkpt>
      <trkpt lat="48.05753" lon="5.40828">
        <ele>369</ele>
        <time>2018-06-25T07:32:14Z</time>
      </trkpt>
      <trkpt lat="48.05757" lon="5.40813">
        <ele>368</ele>
        <time>2018-06-25T07:32:22Z</time>
      </trkpt>
      <trkpt lat="48.05761" lon="5.408">
        <ele>368</ele>
        <time>2018-06-25T07:32:29Z</time>
      </trkpt>
      <trkpt lat="48.05765" lon="5.40786">
        <ele>368</ele>
        <time>2018-06-25T07:32:36Z</time>
      </trkpt>
      <trkpt lat="48.05769" lon="5.40772">
        <ele>367</ele>
        <time>2018-06-25T07:32:43Z</time>
      </trkpt>
      <trkpt lat="48.05773" lon="5.40759">
        <ele>368</ele>
        <time>2018-06-25T07:32:50Z</time>
      </trkpt>
      <trkpt lat="48.05777" lon="5.40744">
        <ele>368</ele>
        <time>2018-06-25T07:32:58Z</time>
      </trkpt>
      <trkpt lat="48.05781" lon="5.40729">
        <ele>368</ele>
        <time>2018-06-25T07:33:06Z</time>
      </trkpt>
      <trkpt lat="48.05784" lon="5.40716">
        <ele>368</ele>
        <time>2018-06-25T07:33:13Z</time>
      </trkpt>
      <trkpt lat="48.05786" lon="5.40701">
        <ele>368</ele>
        <time>2018-06-25T07:33:21Z</time>
      </trkpt>
      <trkpt lat="48.05789" lon="5.40685">
        <ele>367</ele>
        <time>2018-06-25T07:33:29Z</time>
      </trkpt>
      <trkpt lat="48.05792" lon="5.4067">
        <ele>368</ele>
        <time>2018-06-25T07:33:36Z</time>
      </trkpt>
      <trkpt lat="48.05796" lon="5.40656">
        <ele>368</ele>
        <time>2018-06-25T07:33:43Z</time>
      </trkpt>
      <trkpt lat="48.05799" lon="5.40644">
        <ele>368</ele>
        <time>2018-06-25T07:33:50Z</time>
      </trkpt>
      <trkpt lat="48.05803" lon="5.40632">
        <ele>367</ele>
        <time>2018-06-25T07:33:57Z</time>
      </trkpt>
      <trkpt lat="48.05808" lon="5.40619">
        <ele>367</ele>
        <time>2018-06-25T07:34:05Z</time>
      </trkpt>
      <trkpt lat="48.05814" lon="5.40606">
        <ele>367</ele>
        <time>2018-06-25T07:34:13Z</time>
      </trkpt>
      <trkpt lat="48.0582" lon="5.40593">
        <ele>367</ele>
        <time>2018-06-25T07:34:21Z</time>
      </trkpt>
      <trkpt lat="48.05825" lon="5.40579">
        <ele>367</ele>
        <time>2018-06-25T07:34:29Z</time>
      </trkpt>
      <trkpt lat="48.05831" lon="5.40567">
        <ele>368</ele>
        <time>2018-06-25T07:34:36Z</time>
      </trkpt>
      <trkpt lat="48.05837" lon="5.40556">
        <ele>368</ele>
        <time>2018-06-25T07:34:43Z</time>
      </trkpt>
      <trkpt lat="48.05843" lon="5.40545">
        <ele>367</ele>
        <time>2018-06-25T07:34:50Z</time>
      </trkpt>
      <trkpt lat="48.0585" lon="5.40534">
        <ele>367</ele>
        <time>2018-06-25T07:34:57Z</time>
      </trkpt>
      <trkpt lat="48.05857" lon="5.40523">
        <ele>367</ele>
        <time>2018-06-25T07:35:05Z</time>
      </trkpt>
      <trkpt lat="48.05863" lon="5.40511">
        <ele>367</ele>
        <time>2018-06-25T07:35:13Z</time>
      </trkpt>
      <trkpt lat="48.05869" lon="5.40501">
        <ele>367</ele>
        <time>2018-06-25T07:35:20Z</time>
      </trkpt>
      <trkpt lat="48.05877" lon="5.40491">
        <ele>367</ele>
        <time>2018-06-25T07:35:27Z</time>
      </trkpt>
      <trkpt lat="48.05884" lon="5.40481">
        <ele>368</ele>
        <time>2018-06-25T07:35:35Z</time>
      </trkpt>
      <trkpt lat="48.05891" lon="5.40472">
        <ele>368</ele>
        <time>2018-06-25T07:35:42Z</time>
      </trkpt>
      <trkpt lat="48.05898" lon="5.40461">
        <ele>368</ele>
        <time>2018-06-25T07:35:50Z</time>
      </trkpt>
      <trkpt lat="48.05905" lon="5.40452">
        <ele>368</ele>
        <time>2018-06-25T07:35:57Z</time>
      </trkpt>
      <trkpt lat="48.05912" lon="5.40442">
        <ele>368</ele>
        <time>2018-06-25T07:36:05Z</time>
      </trkpt>
      <trkpt lat="48.05921" lon="5.40433">
        <ele>367</ele>
        <time>2018-06-25T07:36:13Z</time>
      </trkpt>
      <trkpt lat="48.05928" lon="5.40424">
        <ele>367</ele>
        <time>2018-06-25T07:36:20Z</time>
      </trkpt>
      <trkpt lat="48.05936" lon="5.40414">
        <ele>368</ele>
        <time>2018-06-25T07:36:28Z</time>
      </trkpt>
      <trkpt lat="48.05944" lon="5.40403">
        <ele>367</ele>
        <time>2018-06-25T07:36:36Z</time>
      </trkpt>
      <trkpt lat="48.05951" lon="5.40394">
        <ele>367</ele>
        <time>2018-06-25T07:36:43Z</time>
      </trkpt>
      <trkpt lat="48.05958" lon="5.40384">
        <ele>368</ele>
        <time>2018-06-25T07:36:51Z</time>
      </trkpt>
      <trkpt lat="48.05966" lon="5.40373">
        <ele>368</ele>
        <time>2018-06-25T07:36:59Z</time>
      </trkpt>
      <trkpt lat="48.05973" lon="5.40364">
        <ele>368</ele>
        <time>2018-06-25T07:37:06Z</time>
      </trkpt>
      <trkpt lat="48.05981" lon="5.40353">
        <ele>368</ele>
        <time>2018-06-25T07:37:14Z</time>
      </trkpt>
      <trkpt lat="48.05988" lon="5.40342">
        <ele>367</ele>
        <time>2018-06-25T07:37:22Z</time>
      </trkpt>
      <trkpt lat="48.05994" lon="5.40331">
        <ele>367</ele>
        <time>2018-06-25T07:37:29Z</time>
      </trkpt>
      <trkpt lat="48.06002" lon="5.40322">
        <ele>368</ele>
        <time>2018-06-25T07:37:37Z</time>
      </trkpt>
      <trkpt lat="48.0601" lon="5.4031">
        <ele>367</ele>
        <time>2018-06-25T07:37:45Z</time>
      </trkpt>
      <trkpt lat="48.06017" lon="5.40303">
        <ele>367</ele>
        <time>2018-06-25T07:37:52Z</time>
      </trkpt>
      <trkpt lat="48.06024" lon="5.40291">
        <ele>367</ele>
        <time>2018-06-25T07:38:00Z</time>
      </trkpt>
      <trkpt lat="48.06031" lon="5.4028">
        <ele>367</ele>
        <time>2018-06-25T07:38:07Z</time>
      </trkpt>
      <trkpt lat="48.06038" lon="5.4027">
        <ele>367</ele>
        <time>2018-06-25T07:38:14Z</time>
      </trkpt>
      <trkpt lat="48.06046" lon="5.40259">
        <ele>366</ele>
        <time>2018-06-25T07:38:22Z</time>
      </trkpt>
      <trkpt lat="48.06054" lon="5.4025">
        <ele>366</ele>
        <time>2018-06-25T07:38:29Z</time>
      </trkpt>
      <trkpt lat="48.06062" lon="5.40242">
        <ele>367</ele>
        <time>2018-06-25T07:38:36Z</time>
      </trkpt>
      <trkpt lat="48.06069" lon="5.40231">
        <ele>367</ele>
        <time>2018-06-25T07:38:44Z</time>
      </trkpt>
      <trkpt lat="48.06076" lon="5.40221">
        <ele>367</ele>
        <time>2018-06-25T07:38:51Z</time>
      </trkpt>
      <trkpt lat="48.06084" lon="5.40212">
        <ele>367</ele>
        <time>2018-06-25T07:38:58Z</time>
      </trkpt>
      <trkpt lat="48.06091" lon="5.40203">
        <ele>367</ele>
        <time>2018-06-25T07:39:05Z</time>
      </trkpt>
      <trkpt lat="48.06099" lon="5.40194">
        <ele>367</ele>
        <time>2018-06-25T07:39:12Z</time>
      </trkpt>
      <trkpt lat="48.06106" lon="5.40184">
        <ele>367</ele>
        <time>2018-06-25T07:39:20Z</time>
      </trkpt>
      <trkpt lat="48.06113" lon="5.40174">
        <ele>367</ele>
        <time>2018-06-25T07:39:27Z</time>
      </trkpt>
      <trkpt lat="48.0612" lon="5.40165">
        <ele>366</ele>
        <time>2018-06-25T07:39:34Z</time>
      </trkpt>
      <trkpt lat="48.06128" lon="5.40155">
        <ele>366</ele>
        <time>2018-06-25T07:39:42Z</time>
      </trkpt>
      <trkpt lat="48.06136" lon="5.40149">
        <ele>366</ele>
        <time>2018-06-25T07:39:49Z</time>
      </trkpt>
      <trkpt lat="48.06145" lon="5.40141">
        <ele>366</ele>
        <time>2018-06-25T07:39:56Z</time>
      </trkpt>
      <trkpt lat="48.06155" lon="5.40134">
        <ele>366</ele>
        <time>2018-06-25T07:40:04Z</time>
      </trkpt>
      <trkpt lat="48.06165" lon="5.40129">
        <ele>367</ele>
        <time>2018-06-25T07:40:12Z</time>
      </trkpt>
      <trkpt lat="48.06174" lon="5.40127">
        <ele>366</ele>
        <time>2018-06-25T07:40:19Z</time>
      </trkpt>
      <trkpt lat="48.06183" lon="5.40128">
        <ele>367</ele>
        <time>2018-06-25T07:40:26Z</time>
      </trkpt>
      <trkpt lat="48.06192" lon="5.40127">
        <ele>367</ele>
        <time>2018-06-25T07:40:33Z</time>
      </trkpt>
      <trkpt lat="48.06201" lon="5.40128">
        <ele>367</ele>
        <time>2018-06-25T07:40:40Z</time>
      </trkpt>
      <trkpt lat="48.06211" lon="5.40127">
        <ele>367</ele>
        <time>2018-06-25T07:40:48Z</time>
      </trkpt>
      <trkpt lat="48.06221" lon="5.40127">
        <ele>366</ele>
        <time>2018-06-25T07:40:55Z</time>
      </trkpt>
      <trkpt lat="48.0623" lon="5.40128">
        <ele>367</ele>
        <time>2018-06-25T07:41:03Z</time>
      </trkpt>
      <trkpt lat="48.0624" lon="5.40127">
        <ele>368</ele>
        <time>2018-06-25T07:41:11Z</time>
      </trkpt>
      <trkpt lat="48.0625" lon="5.40126">
        <ele>368</ele>
        <time>2018-06-25T07:41:18Z</time>
      </trkpt>
      <trkpt lat="48.0626" lon="5.40127">
        <ele>369</ele>
        <time>2018-06-25T07:41:26Z</time>
      </trkpt>
      <trkpt lat="48.0627" lon="5.40127">
        <ele>369</ele>
        <time>2018-06-25T07:41:34Z</time>
      </trkpt>
      <trkpt lat="48.0628" lon="5.40126">
        <ele>370</ele>
        <time>2018-06-25T07:41:42Z</time>
      </trkpt>
      <trkpt lat="48.06289" lon="5.40126">
        <ele>370</ele>
        <time>2018-06-25T07:41:49Z</time>
      </trkpt>
      <trkpt lat="48.06299" lon="5.40127">
        <ele>370</ele>
        <time>2018-06-25T07:41:57Z</time>
      </trkpt>
      <trkpt lat="48.0631" lon="5.40125">
        <ele>371</ele>
        <time>2018-06-25T07:42:05Z</time>
      </trkpt>
      <trkpt lat="48.06319" lon="5.40126">
        <ele>371</ele>
        <time>2018-06-25T07:42:13Z</time>
      </trkpt>
      <trkpt lat="48.06329" lon="5.40126">
        <ele>372</ele>
        <time>2018-06-25T07:42:21Z</time>
      </trkpt>
      <trkpt lat="48.06339" lon="5.40125">
        <ele>373</ele>
        <time>2018-06-25T07:42:29Z</time>
      </trkpt>
      <trkpt lat="48.06348" lon="5.40125">
        <ele>373</ele>
        <time>2018-06-25T07:42:36Z</time>
      </trkpt>
      <trkpt lat="48.06357" lon="5.40123">
        <ele>373</ele>
        <time>2018-06-25T07:42:43Z</time>
      </trkpt>
      <trkpt lat="48.06366" lon="5.40122">
        <ele>374</ele>
        <time>2018-06-25T07:42:50Z</time>
      </trkpt>
      <trkpt lat="48.06376" lon="5.40119">
        <ele>374</ele>
        <time>2018-06-25T07:42:58Z</time>
      </trkpt>
      <trkpt lat="48.06386" lon="5.40118">
        <ele>375</ele>
        <time>2018-06-25T07:43:06Z</time>
      </trkpt>
      <trkpt lat="48.06396" lon="5.40118">
        <ele>376</ele>
        <time>2018-06-25T07:43:14Z</time>
      </trkpt>
      <trkpt lat="48.06406" lon="5.40118">
        <ele>376</ele>
        <time>2018-06-25T07:43:22Z</time>
      </trkpt>
      <trkpt lat="48.06416" lon="5.40119">
        <ele>377</ele>
        <time>2018-06-25T07:43:30Z</time>
      </trkpt>
      <trkpt lat="48.06426" lon="5.40122">
        <ele>377</ele>
        <time>2018-06-25T07:43:38Z</time>
      </trkpt>
      <trkpt lat="48.06436" lon="5.40123">
        <ele>378</ele>
        <time>2018-06-25T07:43:45Z</time>
      </trkpt>
      <trkpt lat="48.06447" lon="5.40125">
        <ele>378</ele>
        <time>2018-06-25T07:43:53Z</time>
      </trkpt>
      <trkpt lat="48.06456" lon="5.40124">
        <ele>378</ele>
        <time>2018-06-25T07:44:00Z</time>
      </trkpt>
      <trkpt lat="48.06466" lon="5.40124">
        <ele>379</ele>
        <time>2018-06-25T07:44:08Z</time>
      </trkpt>
      <trkpt lat="48.06476" lon="5.40122">
        <ele>378</ele>
        <time>2018-06-25T07:44:15Z</time>
      </trkpt>
      <trkpt lat="48.06485" lon="5.4012">
        <ele>379</ele>
        <time>2018-06-25T07:44:22Z</time>
      </trkpt>
      <trkpt lat="48.06494" lon="5.40116">
        <ele>379</ele>
        <time>2018-06-25T07:44:29Z</time>
      </trkpt>
      <trkpt lat="48.06503" lon="5.40113">
        <ele>379</ele>
        <time>2018-06-25T07:44:36Z</time>
      </trkpt>
      <trkpt lat="48.06513" lon="5.40111">
        <ele>380</ele>
        <time>2018-06-25T07:44:43Z</time>
      </trkpt>
      <trkpt lat="48.06522" lon="5.40107">
        <ele>381</ele>
        <time>2018-06-25T07:44:51Z</time>
      </trkpt>
      <trkpt lat="48.06531" lon="5.40103">
        <ele>381</ele>
        <time>2018-06-25T07:44:58Z</time>
      </trkpt>
      <trkpt lat="48.06541" lon="5.40098">
        <ele>381</ele>
        <time>2018-06-25T07:45:06Z</time>
      </trkpt>
      <trkpt lat="48.0655" lon="5.40094">
        <ele>382</ele>
        <time>2018-06-25T07:45:13Z</time>
      </trkpt>
      <trkpt lat="48.06559" lon="5.40086">
        <ele>383</ele>
        <time>2018-06-25T07:45:21Z</time>
      </trkpt>
      <trkpt lat="48.06568" lon="5.40079">
        <ele>383</ele>
        <time>2018-06-25T07:45:29Z</time>
      </trkpt>
      <trkpt lat="48.06577" lon="5.40073">
        <ele>384</ele>
        <time>2018-06-25T07:45:37Z</time>
      </trkpt>
      <trkpt lat="48.06586" lon="5.40065">
        <ele>383</ele>
        <time>2018-06-25T07:45:45Z</time>
      </trkpt>
      <trkpt lat="48.06596" lon="5.40058">
        <ele>384</ele>
        <time>2018-06-25T07:45:53Z</time>
      </trkpt>
      <trkpt lat="48.06605" lon="5.40052">
        <ele>385</ele>
        <time>2018-06-25T07:46:01Z</time>
      </trkpt>
      <trkpt lat="48.06614" lon="5.40045">
        <ele>385</ele>
        <time>2018-06-25T07:46:09Z</time>
      </trkpt>
      <trkpt lat="48.06624" lon="5.40039">
        <ele>385</ele>
        <time>2018-06-25T07:46:18Z</time>
      </trkpt>
      <trkpt lat="48.06634" lon="5.40031">
        <ele>386</ele>
        <time>2018-06-25T07:46:27Z</time>
      </trkpt>
      <trkpt lat="48.06644" lon="5.40025">
        <ele>386</ele>
        <time>2018-06-25T07:46:35Z</time>
      </trkpt>
      <trkpt lat="48.06654" lon="5.40017">
        <ele>387</ele>
        <time>2018-06-25T07:46:44Z</time>
      </trkpt>
      <trkpt lat="48.06664" lon="5.40011">
        <ele>387</ele>
        <time>2018-06-25T07:46:52Z</time>
      </trkpt>
      <trkpt lat="48.06674" lon="5.40004">
        <ele>387</ele>
        <time>2018-06-25T07:47:00Z</time>
      </trkpt>
      <trkpt lat="48.06683" lon="5.39997">
        <ele>387</ele>
        <time>2018-06-25T07:47:08Z</time>
      </trkpt>
      <trkpt lat="48.06692" lon="5.39987">
        <ele>385</ele>
        <time>2018-06-25T07:47:16Z</time>
      </trkpt>
      <trkpt lat="48.067" lon="5.39978">
        <ele>385</ele>
        <time>2018-06-25T07:47:25Z</time>
      </trkpt>
      <trkpt lat="48.0671" lon="5.39969">
        <ele>385</ele>
        <time>2018-06-25T07:47:33Z</time>
      </trkpt>
      <trkpt lat="48.0672" lon="5.39963">
        <ele>384</ele>
        <time>2018-06-25T07:47:42Z</time>
      </trkpt>
      <trkpt lat="48.06732" lon="5.39956">
        <ele>384</ele>
        <time>2018-06-25T07:47:51Z</time>
      </trkpt>
      <trkpt lat="48.06743" lon="5.39953">
        <ele>384</ele>
        <time>2018-06-25T07:48:00Z</time>
      </trkpt>
      <trkpt lat="48.06754" lon="5.39952">
        <ele>384</ele>
        <time>2018-06-25T07:48:08Z</time>
      </trkpt>
      <trkpt lat="48.06765" lon="5.3995">
        <ele>385</ele>
        <time>2018-06-25T07:48:17Z</time>
      </trkpt>
      <trkpt lat="48.06778" lon="5.39944">
        <ele>386</ele>
        <time>2018-06-25T07:48:27Z</time>
      </trkpt>
      <trkpt lat="48.06789" lon="5.39936">
        <ele>386</ele>
        <time>2018-06-25T07:48:36Z</time>
      </trkpt>
      <trkpt lat="48.06797" lon="5.39926">
        <ele>387</ele>
        <time>2018-06-25T07:48:45Z</time>
      </trkpt>
      <trkpt lat="48.06806" lon="5.39917">
        <ele>388</ele>
        <time>2018-06-25T07:48:55Z</time>
      </trkpt>
      <trkpt lat="48.06814" lon="5.39905">
        <ele>389</ele>
        <time>2018-06-25T07:49:05Z</time>
      </trkpt>
      <trkpt lat="48.06821" lon="5.39893">
        <ele>389</ele>
        <time>2018-06-25T07:49:14Z</time>
      </trkpt>
      <trkpt lat="48.06828" lon="5.3988">
        <ele>390</ele>
        <time>2018-06-25T07:49:23Z</time>
      </trkpt>
      <trkpt lat="48.06839" lon="5.39869">
        <ele>390</ele>
        <time>2018-06-25T07:49:32Z</time>
      </trkpt>
      <trkpt lat="48.0685" lon="5.39858">
        <ele>391</ele>
        <time>2018-06-25T07:49:42Z</time>
      </trkpt>
      <trkpt lat="48.06858" lon="5.3985">
        <ele>391</ele>
        <time>2018-06-25T07:49:51Z</time>
      </trkpt>
      <trkpt lat="48.06869" lon="5.39842">
        <ele>393</ele>
        <time>2018-06-25T07:50:01Z</time>
      </trkpt>
      <trkpt lat="48.06877" lon="5.39831">
        <ele>394</ele>
        <time>2018-06-25T07:50:10Z</time>
      </trkpt>
      <trkpt lat="48.06885" lon="5.39819">
        <ele>395</ele>
        <time>2018-06-25T07:50:19Z</time>
      </trkpt>
      <trkpt lat="48.06891" lon="5.39807">
        <ele>396</ele>
        <time>2018-06-25T07:50:28Z</time>
      </trkpt>
      <trkpt lat="48.06896" lon="5.39794">
        <ele>397</ele>
        <time>2018-06-25T07:50:37Z</time>
      </trkpt>
      <trkpt lat="48.069" lon="5.39778">
        <ele>397</ele>
        <time>2018-06-25T07:50:46Z</time>
      </trkpt>
      <trkpt lat="48.06904" lon="5.39763">
        <ele>398</ele>
        <time>2018-06-25T07:50:55Z</time>
      </trkpt>
      <trkpt lat="48.06909" lon="5.39748">
        <ele>399</ele>
        <time>2018-06-25T07:51:04Z</time>
      </trkpt>
      <trkpt lat="48.06913" lon="5.39735">
        <ele>400</ele>
        <time>2018-06-25T07:51:12Z</time>
      </trkpt>
      <trkpt lat="48.06918" lon="5.39721">
        <ele>400</ele>
        <time>2018-06-25T07:51:21Z</time>
      </trkpt>
      <trkpt lat="48.06923" lon="5.39708">
        <ele>401</ele>
        <time>2018-06-25T07:51:30Z</time>
      </trkpt>
      <trkpt lat="48.06932" lon="5.39702">
        <ele>401</ele>
        <time>2018-06-25T07:51:40Z</time>
      </trkpt>
      <trkpt lat="48.06941" lon="5.39709">
        <ele>402</ele>
        <time>2018-06-25T07:51:49Z</time>
      </trkpt>
      <trkpt lat="48.06949" lon="5.3972">
        <ele>403</ele>
        <time>2018-06-25T07:51:59Z</time>
      </trkpt>
      <trkpt lat="48.06957" lon="5.3973">
        <ele>405</ele>
        <time>2018-06-25T07:52:08Z</time>
      </trkpt>
      <trkpt lat="48.06967" lon="5.39737">
        <ele>405</ele>
        <time>2018-06-25T07:52:17Z</time>
      </trkpt>
      <trkpt lat="48.06977" lon="5.39741">
        <ele>408</ele>
        <time>2018-06-25T07:52:26Z</time>
      </trkpt>
      <trkpt lat="48.06988" lon="5.39742">
        <ele>410</ele>
        <time>2018-06-25T07:52:35Z</time>
      </trkpt>
      <trkpt lat="48.06998" lon="5.39745">
        <ele>410</ele>
        <time>2018-06-25T07:52:45Z</time>
      </trkpt>
      <trkpt lat="48.07009" lon="5.39748">
        <ele>412</ele>
        <time>2018-06-25T07:52:55Z</time>
      </trkpt>
      <trkpt lat="48.07016" lon="5.39742">
        <ele>413</ele>
        <time>2018-06-25T07:53:15Z</time>
      </trkpt>
      <trkpt lat="48.07023" lon="5.39729">
        <ele>412</ele>
        <time>2018-06-25T07:53:22Z</time>
      </trkpt>
      <trkpt lat="48.07028" lon="5.39716">
        <ele>413</ele>
        <time>2018-06-25T07:53:29Z</time>
      </trkpt>
      <trkpt lat="48.07032" lon="5.39703">
        <ele>412</ele>
        <time>2018-06-25T07:53:36Z</time>
      </trkpt>
      <trkpt lat="48.07038" lon="5.39689">
        <ele>412</ele>
        <time>2018-06-25T07:53:44Z</time>
      </trkpt>
      <trkpt lat="48.07045" lon="5.39681">
        <ele>412</ele>
        <time>2018-06-25T07:53:52Z</time>
      </trkpt>
      <trkpt lat="48.07054" lon="5.3967">
        <ele>414</ele>
        <time>2018-06-25T07:54:01Z</time>
      </trkpt>
      <trkpt lat="48.07059" lon="5.39656">
        <ele>415</ele>
        <time>2018-06-25T07:54:09Z</time>
      </trkpt>
      <trkpt lat="48.07063" lon="5.39642">
        <ele>415</ele>
        <time>2018-06-25T07:54:17Z</time>
      </trkpt>
      <trkpt lat="48.07068" lon="5.39628">
        <ele>415</ele>
        <time>2018-06-25T07:54:25Z</time>
      </trkpt>
      <trkpt lat="48.07073" lon="5.39613">
        <ele>415</ele>
        <time>2018-06-25T07:54:33Z</time>
      </trkpt>
      <trkpt lat="48.07077" lon="5.39599">
        <ele>415</ele>
        <time>2018-06-25T07:54:41Z</time>
      </trkpt>
      <trkpt lat="48.07082" lon="5.39586">
        <ele>415</ele>
        <time>2018-06-25T07:54:48Z</time>
      </trkpt>
      <trkpt lat="48.07084" lon="5.39572">
        <ele>416</ele>
        <time>2018-06-25T07:54:56Z</time>
      </trkpt>
      <trkpt lat="48.07088" lon="5.39558">
        <ele>416</ele>
        <time>2018-06-25T07:55:03Z</time>
      </trkpt>
      <trkpt lat="48.07092" lon="5.39544">
        <ele>416</ele>
        <time>2018-06-25T07:55:11Z</time>
      </trkpt>
      <trkpt lat="48.07096" lon="5.39531">
        <ele>417</ele>
        <time>2018-06-25T07:55:19Z</time>
      </trkpt>
      <trkpt lat="48.07099" lon="5.39518">
        <ele>417</ele>
        <time>2018-06-25T07:55:26Z</time>
      </trkpt>
      <trkpt lat="48.07104" lon="5.39505">
        <ele>417</ele>
        <time>2018-06-25T07:55:34Z</time>
      </trkpt>
      <trkpt lat="48.07109" lon="5.39492">
        <ele>418</ele>
        <time>2018-06-25T07:55:42Z</time>
      </trkpt>
      <trkpt lat="48.07113" lon="5.39477">
        <ele>417</ele>
        <time>2018-06-25T07:55:50Z</time>
      </trkpt>
      <trkpt lat="48.07117" lon="5.39464">
        <ele>417</ele>
        <time>2018-06-25T07:55:57Z</time>
      </trkpt>
      <trkpt lat="48.07122" lon="5.39451">
        <ele>417</ele>
        <time>2018-06-25T07:56:05Z</time>
      </trkpt>
      <trkpt lat="48.07127" lon="5.39438">
        <ele>417</ele>
        <time>2018-06-25T07:56:13Z</time>
      </trkpt>
      <trkpt lat="48.07132" lon="5.39424">
        <ele>418</ele>
        <time>2018-06-25T07:56:21Z</time>
      </trkpt>
      <trkpt lat="48.07137" lon="5.39412">
        <ele>417</ele>
        <time>2018-06-25T07:56:28Z</time>
      </trkpt>
      <trkpt lat="48.07143" lon="5.39401">
        <ele>417</ele>
        <time>2018-06-25T07:56:35Z</time>
      </trkpt>
      <trkpt lat="48.0715" lon="5.39389">
        <ele>417</ele>
        <time>2018-06-25T07:56:43Z</time>
      </trkpt>
      <trkpt lat="48.07158" lon="5.39381">
        <ele>418</ele>
        <time>2018-06-25T07:56:50Z</time>
      </trkpt>
      <trkpt lat="48.07167" lon="5.39371">
        <ele>417</ele>
        <time>2018-06-25T07:56:58Z</time>
      </trkpt>
      <trkpt lat="48.07174" lon="5.39363">
        <ele>417</ele>
        <time>2018-06-25T07:57:05Z</time>
      </trkpt>
      <trkpt lat="48.07183" lon="5.39356">
        <ele>417</ele>
        <time>2018-06-25T07:57:12Z</time>
      </trkpt>
      <trkpt lat="48.07192" lon="5.39351">
        <ele>417</ele>
        <time>2018-06-25T07:57:20Z</time>
      </trkpt>
      <trkpt lat="48.07201" lon="5.39345">
        <ele>417</ele>
        <time>2018-06-25T07:57:27Z</time>
      </trkpt>
      <trkpt lat="48.07209" lon="5.39338">
        <ele>417</ele>
        <time>2018-06-25T07:57:35Z</time>
      </trkpt>
      <trkpt lat="48.07216" lon="5.39328">
        <ele>417</ele>
        <time>2018-06-25T07:57:43Z</time>
      </trkpt>
      <trkpt lat="48.07222" lon="5.39317">
        <ele>418</ele>
        <time>2018-06-25T07:57:51Z</time>
      </trkpt>
      <trkpt lat="48.07228" lon="5.39306">
        <ele>418</ele>
        <time>2018-06-25T07:57:58Z</time>
      </trkpt>
      <trkpt lat="48.07233" lon="5.39295">
        <ele>417</ele>
        <time>2018-06-25T07:58:05Z</time>
      </trkpt>
      <trkpt lat="48.07239" lon="5.39283">
        <ele>417</ele>
        <time>2018-06-25T07:58:12Z</time>
      </trkpt>
      <trkpt lat="48.07245" lon="5.39272">
        <ele>417</ele>
        <time>2018-06-25T07:58:19Z</time>
      </trkpt>
      <trkpt lat="48.07251" lon="5.3926">
        <ele>417</ele>
        <time>2018-06-25T07:58:27Z</time>
      </trkpt>
      <trkpt lat="48.07257" lon="5.39248">
        <ele>417</ele>
        <time>2018-06-25T07:58:34Z</time>
      </trkpt>
      <trkpt lat="48.07263" lon="5.39236">
        <ele>417</ele>
        <time>2018-06-25T07:58:41Z</time>
      </trkpt>
      <trkpt lat="48.07269" lon="5.39226">
        <ele>417</ele>
        <time>2018-06-25T07:58:48Z</time>
      </trkpt>
      <trkpt lat="48.07277" lon="5.39217">
        <ele>417</ele>
        <time>2018-06-25T07:58:55Z</time>
      </trkpt>
      <trkpt lat="48.07284" lon="5.39207">
        <ele>416</ele>
        <time>2018-06-25T07:59:02Z</time>
      </trkpt>
      <trkpt lat="48.07291" lon="5.39197">
        <ele>417</ele>
        <time>2018-06-25T07:59:10Z</time>
      </trkpt>
      <trkpt lat="48.07299" lon="5.39189">
        <ele>416</ele>
        <time>2018-06-25T07:59:17Z</time>
      </trkpt>
      <trkpt lat="48.07306" lon="5.39183">
        <ele>416</ele>
        <time>2018-06-25T07:59:24Z</time>
      </trkpt>
      <trkpt lat="48.07315" lon="5.39176">
        <ele>416</ele>
        <time>2018-06-25T07:59:31Z</time>
      </trkpt>
      <trkpt lat="48.07324" lon="5.39171">
        <ele>416</ele>
        <time>2018-06-25T07:59:38Z</time>
      </trkpt>
      <trkpt lat="48.07333" lon="5.39166">
        <ele>415</ele>
        <time>2018-06-25T07:59:46Z</time>
      </trkpt>
      <trkpt lat="48.07343" lon="5.3916">
        <ele>416</ele>
        <time>2018-06-25T07:59:54Z</time>
      </trkpt>
      <trkpt lat="48.07352" lon="5.39158">
        <ele>415</ele>
        <time>2018-06-25T08:00:01Z</time>
      </trkpt>
      <trkpt lat="48.07362" lon="5.39156">
        <ele>415</ele>
        <time>2018-06-25T08:00:09Z</time>
      </trkpt>
      <trkpt lat="48.07372" lon="5.39155">
        <ele>414</ele>
        <time>2018-06-25T08:00:16Z</time>
      </trkpt>
      <trkpt lat="48.07382" lon="5.39156">
        <ele>415</ele>
        <time>2018-06-25T08:00:24Z</time>
      </trkpt>
      <trkpt lat="48.07392" lon="5.39154">
        <ele>415</ele>
        <time>2018-06-25T08:00:32Z</time>
      </trkpt>
      <trkpt lat="48.07403" lon="5.39155">
        <ele>415</ele>
        <time>2018-06-25T08:00:40Z</time>
      </trkpt>
      <trkpt lat="48.07412" lon="5.39155">
        <ele>414</ele>
        <time>2018-06-25T08:00:47Z</time>
      </trkpt>
      <trkpt lat="48.07422" lon="5.39154">
        <ele>414</ele>
        <time>2018-06-25T08:00:54Z</time>
      </trkpt>
      <trkpt lat="48.07431" lon="5.3915">
        <ele>414</ele>
        <time>2018-06-25T08:01:02Z</time>
      </trkpt>
      <trkpt lat="48.0744" lon="5.39144">
        <ele>414</ele>
        <time>2018-06-25T08:01:09Z</time>
      </trkpt>
      <trkpt lat="48.07449" lon="5.39137">
        <ele>414</ele>
        <time>2018-06-25T08:01:17Z</time>
      </trkpt>
      <trkpt lat="48.07457" lon="5.39127">
        <ele>415</ele>
        <time>2018-06-25T08:01:25Z</time>
      </trkpt>
      <trkpt lat="48.07465" lon="5.39117">
        <ele>415</ele>
        <time>2018-06-25T08:01:33Z</time>
      </trkpt>
      <trkpt lat="48.07471" lon="5.39106">
        <ele>414</ele>
        <time>2018-06-25T08:01:40Z</time>
      </trkpt>
      <trkpt lat="48.07477" lon="5.39093">
        <ele>414</ele>
        <time>2018-06-25T08:01:48Z</time>
      </trkpt>
      <trkpt lat="48.07484" lon="5.39082">
        <ele>414</ele>
        <time>2018-06-25T08:01:55Z</time>
      </trkpt>
      <trkpt lat="48.0749" lon="5.39071">
        <ele>413</ele>
        <time>2018-06-25T08:02:02Z</time>
      </trkpt>
      <trkpt lat="48.07498" lon="5.39062">
        <ele>413</ele>
        <time>2018-06-25T08:02:09Z</time>
      </trkpt>
      <trkpt lat="48.07505" lon="5.39055">
        <ele>413</ele>
        <time>2018-06-25T08:02:16Z</time>
      </trkpt>
      <trkpt lat="48.07513" lon="5.39045">
        <ele>413</ele>
        <time>2018-06-25T08:02:24Z</time>
      </trkpt>
      <trkpt lat="48.07522" lon="5.39038">
        <ele>413</ele>
        <time>2018-06-25T08:02:31Z</time>
      </trkpt>
      <trkpt lat="48.07532" lon="5.39031">
        <ele>413</ele>
        <time>2018-06-25T08:02:38Z</time>
      </trkpt>
      <trkpt lat="48.0754" lon="5.39025">
        <ele>413</ele>
        <time>2018-06-25T08:02:45Z</time>
      </trkpt>
      <trkpt lat="48.07548" lon="5.39018">
        <ele>412</ele>
        <time>2018-06-25T08:02:53Z</time>
      </trkpt>
      <trkpt lat="48.07557" lon="5.3901">
        <ele>412</ele>
        <time>2018-06-25T08:03:01Z</time>
      </trkpt>
      <trkpt lat="48.07566" lon="5.39003">
        <ele>411</ele>
        <time>2018-06-25T08:03:09Z</time>
      </trkpt>
      <trkpt lat="48.07575" lon="5.38995">
        <ele>410</ele>
        <time>2018-06-25T08:03:17Z</time>
      </trkpt>
      <trkpt lat="48.07584" lon="5.38989">
        <ele>411</ele>
        <time>2018-06-25T08:03:24Z</time>
      </trkpt>
      <trkpt lat="48.07593" lon="5.38983">
        <ele>410</ele>
        <time>2018-06-25T08:03:31Z</time>
      </trkpt>
      <trkpt lat="48.07602" lon="5.38976">
        <ele>409</ele>
        <time>2018-06-25T08:03:38Z</time>
      </trkpt>
      <trkpt lat="48.07611" lon="5.38969">
        <ele>409</ele>
        <time>2018-06-25T08:03:46Z</time>
      </trkpt>
      <trkpt lat="48.07619" lon="5.38962">
        <ele>410</ele>
        <time>2018-06-25T08:03:53Z</time>
      </trkpt>
      <trkpt lat="48.07627" lon="5.38955">
        <ele>410</ele>
        <time>2018-06-25T08:04:01Z</time>
      </trkpt>
      <trkpt lat="48.07635" lon="5.38949">
        <ele>410</ele>
        <time>2018-06-25T08:04:09Z</time>
      </trkpt>
      <trkpt lat="48.07644" lon="5.38942">
        <ele>409</ele>
        <time>2018-06-25T08:04:17Z</time>
      </trkpt>
      <trkpt lat="48.07653" lon="5.38934">
        <ele>409</ele>
        <time>2018-06-25T08:04:26Z</time>
      </trkpt>
      <trkpt lat="48.07664" lon="5.38925">
        <ele>408</ele>
        <time>2018-06-25T08:04:36Z</time>
      </trkpt>
      <trkpt lat="48.07676" lon="5.38916">
        <ele>407</ele>
        <time>2018-06-25T08:04:45Z</time>
      </trkpt>
      <trkpt lat="48.07689" lon="5.38908">
        <ele>407</ele>
        <time>2018-06-25T08:04:53Z</time>
      </trkpt>
      <trkpt lat="48.07698" lon="5.38899">
        <ele>407</ele>
        <time>2018-06-25T08:05:03Z</time>
      </trkpt>
      <trkpt lat="48.07707" lon="5.38892">
        <ele>407</ele>
        <time>2018-06-25T08:05:12Z</time>
      </trkpt>
      <trkpt lat="48.07719" lon="5.38882">
        <ele>405</ele>
        <time>2018-06-25T08:05:24Z</time>
      </trkpt>
      <trkpt lat="48.07735" lon="5.38872">
        <ele>404</ele>
        <time>2018-06-25T08:05:35Z</time>
      </trkpt>
      <trkpt lat="48.07747" lon="5.38861">
        <ele>404</ele>
        <time>2018-06-25T08:05:44Z</time>
      </trkpt>
      <trkpt lat="48.07758" lon="5.38851">
        <ele>404</ele>
        <time>2018-06-25T08:05:53Z</time>
      </trkpt>
      <trkpt lat="48.07767" lon="5.38842">
        <ele>403</ele>
        <time>2018-06-25T08:06:02Z</time>
      </trkpt>
      <trkpt lat="48.07775" lon="5.38831">
        <ele>403</ele>
        <time>2018-06-25T08:06:11Z</time>
      </trkpt>
      <trkpt lat="48.07786" lon="5.38823">
        <ele>403</ele>
        <time>2018-06-25T08:06:20Z</time>
      </trkpt>
      <trkpt lat="48.07795" lon="5.38815">
        <ele>403</ele>
        <time>2018-06-25T08:06:28Z</time>
      </trkpt>
      <trkpt lat="48.07806" lon="5.38809">
        <ele>402</ele>
        <time>2018-06-25T08:06:37Z</time>
      </trkpt>
      <trkpt lat="48.07817" lon="5.38804">
        <ele>402</ele>
        <time>2018-06-25T08:06:47Z</time>
      </trkpt>
      <trkpt lat="48.07828" lon="5.38803">
        <ele>402</ele>
        <time>2018-06-25T08:06:56Z</time>
      </trkpt>
      <trkpt lat="48.0784" lon="5.38804">
        <ele>401</ele>
        <time>2018-06-25T08:07:05Z</time>
      </trkpt>
      <trkpt lat="48.07852" lon="5.38809">
        <ele>401</ele>
        <time>2018-06-25T08:07:14Z</time>
      </trkpt>
      <trkpt lat="48.07865" lon="5.3881">
        <ele>401</ele>
        <time>2018-06-25T08:07:23Z</time>
      </trkpt>
      <trkpt lat="48.07878" lon="5.38812">
        <ele>400</ele>
        <time>2018-06-25T08:07:32Z</time>
      </trkpt>
      <trkpt lat="48.07889" lon="5.38811">
        <ele>400</ele>
        <time>2018-06-25T08:07:41Z</time>
      </trkpt>
      <trkpt lat="48.079" lon="5.3881">
        <ele>398</ele>
        <time>2018-06-25T08:07:49Z</time>
      </trkpt>
      <trkpt lat="48.07913" lon="5.38811">
        <ele>398</ele>
        <time>2018-06-25T08:07:58Z</time>
      </trkpt>
      <trkpt lat="48.07925" lon="5.38804">
        <ele>396</ele>
        <time>2018-06-25T08:08:08Z</time>
      </trkpt>
      <trkpt lat="48.07937" lon="5.38792">
        <ele>395</ele>
        <time>2018-06-25T08:08:18Z</time>
      </trkpt>
      <trkpt lat="48.07947" lon="5.3878">
        <ele>393</ele>
        <time>2018-06-25T08:08:28Z</time>
      </trkpt>
      <trkpt lat="48.07954" lon="5.38763">
        <ele>391</ele>
        <time>2018-06-25T08:08:40Z</time>
      </trkpt>
      <trkpt lat="48.07961" lon="5.38748">
        <ele>390</ele>
        <time>2018-06-25T08:08:50Z</time>
      </trkpt>
      <trkpt lat="48.0797" lon="5.38732">
        <ele>388</ele>
        <time>2018-06-25T08:09:01Z</time>
      </trkpt>
      <trkpt lat="48.07982" lon="5.38711">
        <ele>387</ele>
        <time>2018-06-25T08:09:13Z</time>
      </trkpt>
      <trkpt lat="48.07989" lon="5.38695">
        <ele>385</ele>
        <time>2018-06-25T08:09:25Z</time>
      </trkpt>
      <trkpt lat="48.08005" lon="5.38681">
        <ele>382</ele>
        <time>2018-06-25T08:09:39Z</time>
      </trkpt>
      <trkpt lat="48.08022" lon="5.38667">
        <ele>380</ele>
        <time>2018-06-25T08:09:53Z</time>
      </trkpt>
      <trkpt lat="48.08035" lon="5.38651">
        <ele>378</ele>
        <time>2018-06-25T08:10:08Z</time>
      </trkpt>
      <trkpt lat="48.08049" lon="5.38637">
        <ele>376</ele>
        <time>2018-06-25T08:10:21Z</time>
      </trkpt>
      <trkpt lat="48.08062" lon="5.38622">
        <ele>375</ele>
        <time>2018-06-25T08:10:33Z</time>
      </trkpt>
      <trkpt lat="48.08075" lon="5.38609">
        <ele>374</ele>
        <time>2018-06-25T08:10:43Z</time>
      </trkpt>
      <trkpt lat="48.08085" lon="5.38599">
        <ele>372</ele>
        <time>2018-06-25T08:10:54Z</time>
      </trkpt>
      <trkpt lat="48.081" lon="5.38585">
        <ele>371</ele>
        <time>2018-06-25T08:11:05Z</time>
      </trkpt>
      <trkpt lat="48.08114" lon="5.38573">
        <ele>369</ele>
        <time>2018-06-25T08:11:18Z</time>
      </trkpt>
      <trkpt lat="48.08128" lon="5.38564">
        <ele>369</ele>
        <time>2018-06-25T08:11:31Z</time>
      </trkpt>
      <trkpt lat="48.08141" lon="5.38557">
        <ele>368</ele>
        <time>2018-06-25T08:11:41Z</time>
      </trkpt>
      <trkpt lat="48.08159" lon="5.38542">
        <ele>367</ele>
        <time>2018-06-25T08:11:57Z</time>
      </trkpt>
      <trkpt lat="48.08176" lon="5.38533">
        <ele>366</ele>
        <time>2018-06-25T08:12:11Z</time>
      </trkpt>
      <trkpt lat="48.0819" lon="5.38525">
        <ele>365</ele>
        <time>2018-06-25T08:12:25Z</time>
      </trkpt>
      <trkpt lat="48.082" lon="5.38516">
        <ele>365</ele>
        <time>2018-06-25T08:12:32Z</time>
      </trkpt>
      <trkpt lat="48.08211" lon="5.38505">
        <ele>363</ele>
        <time>2018-06-25T08:12:40Z</time>
      </trkpt>
      <trkpt lat="48.0822" lon="5.38494">
        <ele>362</ele>
        <time>2018-06-25T08:12:48Z</time>
      </trkpt>
      <trkpt lat="48.08227" lon="5.38482">
        <ele>362</ele>
        <time>2018-06-25T08:12:57Z</time>
      </trkpt>
      <trkpt lat="48.08237" lon="5.38468">
        <ele>361</ele>
        <time>2018-06-25T08:13:06Z</time>
      </trkpt>
      <trkpt lat="48.08244" lon="5.38456">
        <ele>359</ele>
        <time>2018-06-25T08:13:14Z</time>
      </trkpt>
      <trkpt lat="48.08253" lon="5.38447">
        <ele>359</ele>
        <time>2018-06-25T08:13:21Z</time>
      </trkpt>
      <trkpt lat="48.0826" lon="5.38436">
        <ele>359</ele>
        <time>2018-06-25T08:13:29Z</time>
      </trkpt>
      <trkpt lat="48.08267" lon="5.38425">
        <ele>357</ele>
        <time>2018-06-25T08:13:37Z</time>
      </trkpt>
      <trkpt lat="48.08275" lon="5.38416">
        <ele>357</ele>
        <time>2018-06-25T08:13:44Z</time>
      </trkpt>
      <trkpt lat="48.08283" lon="5.38407">
        <ele>356</ele>
        <time>2018-06-25T08:13:51Z</time>
      </trkpt>
      <trkpt lat="48.08291" lon="5.38398">
        <ele>354</ele>
        <time>2018-06-25T08:13:58Z</time>
      </trkpt>
      <trkpt lat="48.08298" lon="5.38387">
        <ele>353</ele>
        <time>2018-06-25T08:14:06Z</time>
      </trkpt>
      <trkpt lat="48.08306" lon="5.38374">
        <ele>353</ele>
        <time>2018-06-25T08:14:15Z</time>
      </trkpt>
      <trkpt lat="48.08312" lon="5.38364">
        <ele>352</ele>
        <time>2018-06-25T08:14:22Z</time>
      </trkpt>
      <trkpt lat="48.0832" lon="5.38352">
        <ele>351</ele>
        <time>2018-06-25T08:14:30Z</time>
      </trkpt>
      <trkpt lat="48.08326" lon="5.3834">
        <ele>351</ele>
        <time>2018-06-25T08:14:38Z</time>
      </trkpt>
      <trkpt lat="48.08332" lon="5.38327">
        <ele>350</ele>
        <time>2018-06-25T08:14:46Z</time>
      </trkpt>
      <trkpt lat="48.08334" lon="5.3831">
        <ele>350</ele>
        <time>2018-06-25T08:14:55Z</time>
      </trkpt>
      <trkpt lat="48.08336" lon="5.38295">
        <ele>350</ele>
        <time>2018-06-25T08:15:03Z</time>
      </trkpt>
      <trkpt lat="48.08339" lon="5.38283">
        <ele>349</ele>
        <time>2018-06-25T08:15:16Z</time>
      </trkpt>
      <trkpt lat="48.0834" lon="5.38269">
        <ele>349</ele>
        <time>2018-06-25T08:15:45Z</time>
      </trkpt>
      <trkpt lat="48.08337" lon="5.38253">
        <ele>349</ele>
        <time>2018-06-25T08:15:53Z</time>
      </trkpt>
      <trkpt lat="48.08338" lon="5.38238">
        <ele>349</ele>
        <time>2018-06-25T08:16:00Z</time>
      </trkpt>
      <trkpt lat="48.08336" lon="5.38222">
        <ele>350</ele>
        <time>2018-06-25T08:16:08Z</time>
      </trkpt>
      <trkpt lat="48.08336" lon="5.38208">
        <ele>349</ele>
        <time>2018-06-25T08:16:16Z</time>
      </trkpt>
      <trkpt lat="48.08335" lon="5.38192">
        <ele>351</ele>
        <time>2018-06-25T08:16:24Z</time>
      </trkpt>
      <trkpt lat="48.08335" lon="5.38177">
        <ele>351</ele>
        <time>2018-06-25T08:16:31Z</time>
      </trkpt>
      <trkpt lat="48.08335" lon="5.38163">
        <ele>352</ele>
        <time>2018-06-25T08:16:39Z</time>
      </trkpt>
      <trkpt lat="48.08334" lon="5.38147">
        <ele>352</ele>
        <time>2018-06-25T08:16:47Z</time>
      </trkpt>
      <trkpt lat="48.08334" lon="5.38132">
        <ele>353</ele>
        <time>2018-06-25T08:16:55Z</time>
      </trkpt>
      <trkpt lat="48.08333" lon="5.38117">
        <ele>354</ele>
        <time>2018-06-25T08:17:03Z</time>
      </trkpt>
      <trkpt lat="48.08334" lon="5.38101">
        <ele>354</ele>
        <time>2018-06-25T08:17:11Z</time>
      </trkpt>
      <trkpt lat="48.08332" lon="5.38086">
        <ele>354</ele>
        <time>2018-06-25T08:17:19Z</time>
      </trkpt>
      <trkpt lat="48.08334" lon="5.3807">
        <ele>355</ele>
        <time>2018-06-25T08:17:27Z</time>
      </trkpt>
      <trkpt lat="48.08334" lon="5.38056">
        <ele>355</ele>
        <time>2018-06-25T08:17:35Z</time>
      </trkpt>
      <trkpt lat="48.08336" lon="5.38042">
        <ele>355</ele>
        <time>2018-06-25T08:17:43Z</time>
      </trkpt>
      <trkpt lat="48.08338" lon="5.3803">
        <ele>355</ele>
        <time>2018-06-25T08:17:57Z</time>
      </trkpt>
      <trkpt lat="48.08337" lon="5.38021">
        <ele>354</ele>
        <time>2018-06-25T08:18:16Z</time>
      </trkpt>
      <trkpt lat="48.08336" lon="5.38006">
        <ele>355</ele>
        <time>2018-06-25T08:18:23Z</time>
      </trkpt>
      <trkpt lat="48.08337" lon="5.3799">
        <ele>354</ele>
        <time>2018-06-25T08:18:31Z</time>
      </trkpt>
      <trkpt lat="48.08339" lon="5.37974">
        <ele>353</ele>
        <time>2018-06-25T08:18:39Z</time>
      </trkpt>
      <trkpt lat="48.0834" lon="5.37957">
        <ele>353</ele>
        <time>2018-06-25T08:18:47Z</time>
      </trkpt>
      <trkpt lat="48.08343" lon="5.37943">
        <ele>352</ele>
        <time>2018-06-25T08:18:54Z</time>
      </trkpt>
      <trkpt lat="48.08346" lon="5.37927">
        <ele>352</ele>
        <time>2018-06-25T08:19:02Z</time>
      </trkpt>
      <trkpt lat="48.08348" lon="5.37912">
        <ele>352</ele>
        <time>2018-06-25T08:19:10Z</time>
      </trkpt>
      <trkpt lat="48.08351" lon="5.37896">
        <ele>351</ele>
        <time>2018-06-25T08:19:18Z</time>
      </trkpt>
      <trkpt lat="48.0835" lon="5.3788">
        <ele>351</ele>
        <time>2018-06-25T08:19:26Z</time>
      </trkpt>
      <trkpt lat="48.08353" lon="5.37865">
        <ele>351</ele>
        <time>2018-06-25T08:19:34Z</time>
      </trkpt>
      <trkpt lat="48.08358" lon="5.37851">
        <ele>351</ele>
        <time>2018-06-25T08:19:41Z</time>
      </trkpt>
      <trkpt lat="48.08363" lon="5.3784">
        <ele>351</ele>
        <time>2018-06-25T08:19:48Z</time>
      </trkpt>
      <trkpt lat="48.08369" lon="5.37828">
        <ele>351</ele>
        <time>2018-06-25T08:19:56Z</time>
      </trkpt>
      <trkpt lat="48.08377" lon="5.37816">
        <ele>351</ele>
        <time>2018-06-25T08:20:04Z</time>
      </trkpt>
      <trkpt lat="48.08385" lon="5.37803">
        <ele>351</ele>
        <time>2018-06-25T08:20:12Z</time>
      </trkpt>
      <trkpt lat="48.08394" lon="5.37792">
        <ele>351</ele>
        <time>2018-06-25T08:20:22Z</time>
      </trkpt>
      <trkpt lat="48.08403" lon="5.37779">
        <ele>353</ele>
        <time>2018-06-25T08:20:33Z</time>
      </trkpt>
      <trkpt lat="48.08414" lon="5.37766">
        <ele>354</ele>
        <time>2018-06-25T08:20:45Z</time>
      </trkpt>
      <trkpt lat="48.08429" lon="5.37749">
        <ele>356</ele>
        <time>2018-06-25T08:21:00Z</time>
      </trkpt>
      <trkpt lat="48.08442" lon="5.37741">
        <ele>356</ele>
        <time>2018-06-25T08:21:10Z</time>
      </trkpt>
      <trkpt lat="48.08451" lon="5.37735">
        <ele>357</ele>
        <time>2018-06-25T08:21:21Z</time>
      </trkpt>
      <trkpt lat="48.08457" lon="5.37749">
        <ele>356</ele>
        <time>2018-06-25T08:23:11Z</time>
      </trkpt>
      <trkpt lat="48.08467" lon="5.37751">
        <ele>356</ele>
        <time>2018-06-25T08:23:21Z</time>
      </trkpt>
      <trkpt lat="48.0848" lon="5.37748">
        <ele>356</ele>
        <time>2018-06-25T08:23:33Z</time>
      </trkpt>
      <trkpt lat="48.08494" lon="5.37742">
        <ele>355</ele>
        <time>2018-06-25T08:23:43Z</time>
      </trkpt>
      <trkpt lat="48.08507" lon="5.3774">
        <ele>355</ele>
        <time>2018-06-25T08:23:51Z</time>
      </trkpt>
      <trkpt lat="48.08519" lon="5.37733">
        <ele>354</ele>
        <time>2018-06-25T08:24:01Z</time>
      </trkpt>
      <trkpt lat="48.08538" lon="5.37722">
        <ele>353</ele>
        <time>2018-06-25T08:24:15Z</time>
      </trkpt>
      <trkpt lat="48.0855" lon="5.37715">
        <ele>353</ele>
        <time>2018-06-25T08:24:23Z</time>
      </trkpt>
      <trkpt lat="48.0856" lon="5.37709">
        <ele>354</ele>
        <time>2018-06-25T08:24:31Z</time>
      </trkpt>
      <trkpt lat="48.08571" lon="5.37701">
        <ele>354</ele>
        <time>2018-06-25T08:24:38Z</time>
      </trkpt>
      <trkpt lat="48.08574" lon="5.37692">
        <ele>354</ele>
        <time>2018-06-25T08:25:09Z</time>
      </trkpt>
      <trkpt lat="48.08586" lon="5.37693">
        <ele>353</ele>
        <time>2018-06-25T08:25:23Z</time>
      </trkpt>
      <trkpt lat="48.08595" lon="5.37689">
        <ele>353</ele>
        <time>2018-06-25T08:25:31Z</time>
      </trkpt>
      <trkpt lat="48.08604" lon="5.37683">
        <ele>353</ele>
        <time>2018-06-25T08:25:38Z</time>
      </trkpt>
      <trkpt lat="48.08613" lon="5.37678">
        <ele>352</ele>
        <time>2018-06-25T08:25:45Z</time>
      </trkpt>
      <trkpt lat="48.08623" lon="5.37672">
        <ele>352</ele>
        <time>2018-06-25T08:25:53Z</time>
      </trkpt>
      <trkpt lat="48.08633" lon="5.37667">
        <ele>353</ele>
        <time>2018-06-25T08:26:01Z</time>
      </trkpt>
      <trkpt lat="48.08643" lon="5.37662">
        <ele>352</ele>
        <time>2018-06-25T08:26:09Z</time>
      </trkpt>
      <trkpt lat="48.08652" lon="5.37658">
        <ele>352</ele>
        <time>2018-06-25T08:26:16Z</time>
      </trkpt>
      <trkpt lat="48.08662" lon="5.37654">
        <ele>352</ele>
        <time>2018-06-25T08:26:24Z</time>
      </trkpt>
      <trkpt lat="48.08673" lon="5.37649">
        <ele>352</ele>
        <time>2018-06-25T08:26:33Z</time>
      </trkpt>
      <trkpt lat="48.08684" lon="5.37646">
        <ele>352</ele>
        <time>2018-06-25T08:26:41Z</time>
      </trkpt>
      <trkpt lat="48.08694" lon="5.37643">
        <ele>353</ele>
        <time>2018-06-25T08:26:48Z</time>
      </trkpt>
      <trkpt lat="48.08704" lon="5.37644">
        <ele>352</ele>
        <time>2018-06-25T08:26:55Z</time>
      </trkpt>
      <trkpt lat="48.08713" lon="5.37641">
        <ele>352</ele>
        <time>2018-06-25T08:27:02Z</time>
      </trkpt>
      <trkpt lat="48.08723" lon="5.37643">
        <ele>352</ele>
        <time>2018-06-25T08:27:10Z</time>
      </trkpt>
      <trkpt lat="48.08733" lon="5.37646">
        <ele>351</ele>
        <time>2018-06-25T08:27:17Z</time>
      </trkpt>
      <trkpt lat="48.08744" lon="5.37647">
        <ele>352</ele>
        <time>2018-06-25T08:27:25Z</time>
      </trkpt>
      <trkpt lat="48.08753" lon="5.37649">
        <ele>351</ele>
        <time>2018-06-25T08:27:33Z</time>
      </trkpt>
      <trkpt lat="48.08764" lon="5.37651">
        <ele>352</ele>
        <time>2018-06-25T08:27:41Z</time>
      </trkpt>
      <trkpt lat="48.08775" lon="5.37654">
        <ele>351</ele>
        <time>2018-06-25T08:27:48Z</time>
      </trkpt>
      <trkpt lat="48.08785" lon="5.37654">
        <ele>351</ele>
        <time>2018-06-25T08:27:55Z</time>
      </trkpt>
      <trkpt lat="48.08796" lon="5.37657">
        <ele>351</ele>
        <time>2018-06-25T08:28:04Z</time>
      </trkpt>
      <trkpt lat="48.08809" lon="5.37658">
        <ele>351</ele>
        <time>2018-06-25T08:28:14Z</time>
      </trkpt>
      <trkpt lat="48.08821" lon="5.37657">
        <ele>351</ele>
        <time>2018-06-25T08:28:23Z</time>
      </trkpt>
      <trkpt lat="48.08832" lon="5.37658">
        <ele>351</ele>
        <time>2018-06-25T08:28:31Z</time>
      </trkpt>
      <trkpt lat="48.08842" lon="5.37657">
        <ele>351</ele>
        <time>2018-06-25T08:28:39Z</time>
      </trkpt>
      <trkpt lat="48.08853" lon="5.37658">
        <ele>351</ele>
        <time>2018-06-25T08:28:47Z</time>
      </trkpt>
      <trkpt lat="48.08863" lon="5.37655">
        <ele>352</ele>
        <time>2018-06-25T08:28:55Z</time>
      </trkpt>
      <trkpt lat="48.08873" lon="5.37652">
        <ele>351</ele>
        <time>2018-06-25T08:29:03Z</time>
      </trkpt>
      <trkpt lat="48.08884" lon="5.37649">
        <ele>351</ele>
        <time>2018-06-25T08:29:11Z</time>
      </trkpt>
      <trkpt lat="48.08895" lon="5.37646">
        <ele>351</ele>
        <time>2018-06-25T08:29:19Z</time>
      </trkpt>
      <trkpt lat="48.08904" lon="5.37641">
        <ele>351</ele>
        <time>2018-06-25T08:29:27Z</time>
      </trkpt>
      <trkpt lat="48.08916" lon="5.37632">
        <ele>351</ele>
        <time>2018-06-25T08:29:37Z</time>
      </trkpt>
      <trkpt lat="48.08926" lon="5.37624">
        <ele>351</ele>
        <time>2018-06-25T08:29:45Z</time>
      </trkpt>
      <trkpt lat="48.08934" lon="5.37618">
        <ele>351</ele>
        <time>2018-06-25T08:29:55Z</time>
      </trkpt>
      <trkpt lat="48.08944" lon="5.3761">
        <ele>351</ele>
        <time>2018-06-25T08:30:03Z</time>
      </trkpt>
      <trkpt lat="48.08953" lon="5.37604">
        <ele>350</ele>
        <time>2018-06-25T08:30:10Z</time>
      </trkpt>
      <trkpt lat="48.08962" lon="5.37593">
        <ele>350</ele>
        <time>2018-06-25T08:30:18Z</time>
      </trkpt>
      <trkpt lat="48.08971" lon="5.37578">
        <ele>350</ele>
        <time>2018-06-25T08:30:26Z</time>
      </trkpt>
      <trkpt lat="48.08977" lon="5.37563">
        <ele>351</ele>
        <time>2018-06-25T08:30:34Z</time>
      </trkpt>
      <trkpt lat="48.08981" lon="5.37548">
        <ele>349</ele>
        <time>2018-06-25T08:30:43Z</time>
      </trkpt>
      <trkpt lat="48.08983" lon="5.37533">
        <ele>349</ele>
        <time>2018-06-25T08:30:52Z</time>
      </trkpt>
      <trkpt lat="48.08985" lon="5.37517">
        <ele>349</ele>
        <time>2018-06-25T08:31:00Z</time>
      </trkpt>
      <trkpt lat="48.0899" lon="5.37501">
        <ele>349</ele>
        <time>2018-06-25T08:31:07Z</time>
      </trkpt>
      <trkpt lat="48.08992" lon="5.37484">
        <ele>349</ele>
        <time>2018-06-25T08:31:15Z</time>
      </trkpt>
      <trkpt lat="48.08993" lon="5.37469">
        <ele>349</ele>
        <time>2018-06-25T08:31:22Z</time>
      </trkpt>
      <trkpt lat="48.08992" lon="5.37454">
        <ele>349</ele>
        <time>2018-06-25T08:31:29Z</time>
      </trkpt>
      <trkpt lat="48.0899" lon="5.37439">
        <ele>349</ele>
        <time>2018-06-25T08:31:37Z</time>
      </trkpt>
      <trkpt lat="48.08988" lon="5.37423">
        <ele>349</ele>
        <time>2018-06-25T08:31:45Z</time>
      </trkpt>
      <trkpt lat="48.08985" lon="5.37406">
        <ele>348</ele>
        <time>2018-06-25T08:31:54Z</time>
      </trkpt>
      <trkpt lat="48.08985" lon="5.3739">
        <ele>348</ele>
        <time>2018-06-25T08:32:02Z</time>
      </trkpt>
      <trkpt lat="48.08985" lon="5.37374">
        <ele>347</ele>
        <time>2018-06-25T08:32:10Z</time>
      </trkpt>
      <trkpt lat="48.08984" lon="5.37358">
        <ele>347</ele>
        <time>2018-06-25T08:32:18Z</time>
      </trkpt>
      <trkpt lat="48.08994" lon="5.37353">
        <ele>345</ele>
        <time>2018-06-25T08:32:26Z</time>
      </trkpt>
      <trkpt lat="48.09003" lon="5.3736">
        <ele>344</ele>
        <time>2018-06-25T08:32:34Z</time>
      </trkpt>
      <trkpt lat="48.09012" lon="5.37369">
        <ele>344</ele>
        <time>2018-06-25T08:32:43Z</time>
      </trkpt>
      <trkpt lat="48.09022" lon="5.37375">
        <ele>343</ele>
        <time>2018-06-25T08:32:51Z</time>
      </trkpt>
      <trkpt lat="48.09033" lon="5.37382">
        <ele>341</ele>
        <time>2018-06-25T08:33:00Z</time>
      </trkpt>
      <trkpt lat="48.09044" lon="5.37388">
        <ele>341</ele>
        <time>2018-06-25T08:33:09Z</time>
      </trkpt>
      <trkpt lat="48.09052" lon="5.37397">
        <ele>341</ele>
        <time>2018-06-25T08:33:16Z</time>
      </trkpt>
      <trkpt lat="48.09061" lon="5.37405">
        <ele>341</ele>
        <time>2018-06-25T08:33:23Z</time>
      </trkpt>
      <trkpt lat="48.09071" lon="5.37412">
        <ele>342</ele>
        <time>2018-06-25T08:33:31Z</time>
      </trkpt>
      <trkpt lat="48.09081" lon="5.3742">
        <ele>342</ele>
        <time>2018-06-25T08:33:39Z</time>
      </trkpt>
      <trkpt lat="48.09092" lon="5.37426">
        <ele>341</ele>
        <time>2018-06-25T08:33:47Z</time>
      </trkpt>
      <trkpt lat="48.09102" lon="5.3743">
        <ele>341</ele>
        <time>2018-06-25T08:33:55Z</time>
      </trkpt>
      <trkpt lat="48.09112" lon="5.37435">
        <ele>342</ele>
        <time>2018-06-25T08:34:03Z</time>
      </trkpt>
      <trkpt lat="48.09122" lon="5.37438">
        <ele>342</ele>
        <time>2018-06-25T08:34:11Z</time>
      </trkpt>
      <trkpt lat="48.09133" lon="5.3744">
        <ele>343</ele>
        <time>2018-06-25T08:34:19Z</time>
      </trkpt>
      <trkpt lat="48.09144" lon="5.37441">
        <ele>343</ele>
        <time>2018-06-25T08:34:27Z</time>
      </trkpt>
      <trkpt lat="48.09156" lon="5.37439">
        <ele>344</ele>
        <time>2018-06-25T08:34:37Z</time>
      </trkpt>
      <trkpt lat="48.09166" lon="5.37434">
        <ele>344</ele>
        <time>2018-06-25T08:34:45Z</time>
      </trkpt>
      <trkpt lat="48.09175" lon="5.37429">
        <ele>345</ele>
        <time>2018-06-25T08:34:52Z</time>
      </trkpt>
      <trkpt lat="48.09184" lon="5.37423">
        <ele>346</ele>
        <time>2018-06-25T08:35:00Z</time>
      </trkpt>
      <trkpt lat="48.09193" lon="5.37416">
        <ele>347</ele>
        <time>2018-06-25T08:35:07Z</time>
      </trkpt>
      <trkpt lat="48.09201" lon="5.3741">
        <ele>346</ele>
        <time>2018-06-25T08:35:14Z</time>
      </trkpt>
      <trkpt lat="48.09211" lon="5.37404">
        <ele>347</ele>
        <time>2018-06-25T08:35:22Z</time>
      </trkpt>
      <trkpt lat="48.09219" lon="5.37398">
        <ele>348</ele>
        <time>2018-06-25T08:35:29Z</time>
      </trkpt>
      <trkpt lat="48.09228" lon="5.37393">
        <ele>348</ele>
        <time>2018-06-25T08:35:37Z</time>
      </trkpt>
      <trkpt lat="48.09237" lon="5.37387">
        <ele>348</ele>
        <time>2018-06-25T08:35:45Z</time>
      </trkpt>
      <trkpt lat="48.09246" lon="5.37381">
        <ele>349</ele>
        <time>2018-06-25T08:35:52Z</time>
      </trkpt>
      <trkpt lat="48.09257" lon="5.37377">
        <ele>349</ele>
        <time>2018-06-25T08:36:00Z</time>
      </trkpt>
      <trkpt lat="48.09267" lon="5.37374">
        <ele>349</ele>
        <time>2018-06-25T08:36:07Z</time>
      </trkpt>
      <trkpt lat="48.09282" lon="5.3737">
        <ele>349</ele>
        <time>2018-06-25T08:36:19Z</time>
      </trkpt>
      <trkpt lat="48.09301" lon="5.37368">
        <ele>349</ele>
        <time>2018-06-25T08:36:34Z</time>
      </trkpt>
      <trkpt lat="48.09314" lon="5.37365">
        <ele>349</ele>
        <time>2018-06-25T08:36:43Z</time>
      </trkpt>
      <trkpt lat="48.09326" lon="5.37362">
        <ele>349</ele>
        <time>2018-06-25T08:36:53Z</time>
      </trkpt>
      <trkpt lat="48.0934" lon="5.37359">
        <ele>350</ele>
        <time>2018-06-25T08:37:03Z</time>
      </trkpt>
      <trkpt lat="48.09353" lon="5.37357">
        <ele>350</ele>
        <time>2018-06-25T08:37:12Z</time>
      </trkpt>
      <trkpt lat="48.09365" lon="5.37357">
        <ele>349</ele>
        <time>2018-06-25T08:37:22Z</time>
      </trkpt>
      <trkpt lat="48.0938" lon="5.3736">
        <ele>350</ele>
        <time>2018-06-25T08:37:33Z</time>
      </trkpt>
      <trkpt lat="48.09391" lon="5.37363">
        <ele>350</ele>
        <time>2018-06-25T08:37:42Z</time>
      </trkpt>
      <trkpt lat="48.09402" lon="5.37367">
        <ele>350</ele>
        <time>2018-06-25T08:37:52Z</time>
      </trkpt>
      <trkpt lat="48.09414" lon="5.3737">
        <ele>350</ele>
        <time>2018-06-25T08:38:01Z</time>
      </trkpt>
      <trkpt lat="48.09427" lon="5.37373">
        <ele>350</ele>
        <time>2018-06-25T08:38:09Z</time>
      </trkpt>
      <trkpt lat="48.09438" lon="5.37377">
        <ele>350</ele>
        <time>2018-06-25T08:38:18Z</time>
      </trkpt>
      <trkpt lat="48.09451" lon="5.37384">
        <ele>350</ele>
        <time>2018-06-25T08:38:28Z</time>
      </trkpt>
      <trkpt lat="48.09461" lon="5.37391">
        <ele>351</ele>
        <time>2018-06-25T08:38:37Z</time>
      </trkpt>
      <trkpt lat="48.09471" lon="5.374">
        <ele>350</ele>
        <time>2018-06-25T08:38:47Z</time>
      </trkpt>
      <trkpt lat="48.09482" lon="5.37411">
        <ele>350</ele>
        <time>2018-06-25T08:38:57Z</time>
      </trkpt>
      <trkpt lat="48.09492" lon="5.37418">
        <ele>351</ele>
        <time>2018-06-25T08:39:05Z</time>
      </trkpt>
      <trkpt lat="48.09501" lon="5.37425">
        <ele>350</ele>
        <time>2018-06-25T08:39:13Z</time>
      </trkpt>
      <trkpt lat="48.09513" lon="5.37433">
        <ele>350</ele>
        <time>2018-06-25T08:39:22Z</time>
      </trkpt>
      <trkpt lat="48.09526" lon="5.3744">
        <ele>351</ele>
        <time>2018-06-25T08:39:31Z</time>
      </trkpt>
      <trkpt lat="48.09538" lon="5.37443">
        <ele>351</ele>
        <time>2018-06-25T08:39:41Z</time>
      </trkpt>
      <trkpt lat="48.09552" lon="5.37444">
        <ele>350</ele>
        <time>2018-06-25T08:39:51Z</time>
      </trkpt>
      <trkpt lat="48.09564" lon="5.37443">
        <ele>350</ele>
        <time>2018-06-25T08:39:59Z</time>
      </trkpt>
      <trkpt lat="48.09577" lon="5.37446">
        <ele>350</ele>
        <time>2018-06-25T08:40:09Z</time>
      </trkpt>
      <trkpt lat="48.0959" lon="5.37454">
        <ele>349</ele>
        <time>2018-06-25T08:40:22Z</time>
      </trkpt>
      <trkpt lat="48.09603" lon="5.37462">
        <ele>349</ele>
        <time>2018-06-25T08:40:34Z</time>
      </trkpt>
      <trkpt lat="48.09616" lon="5.37469">
        <ele>349</ele>
        <time>2018-06-25T08:40:45Z</time>
      </trkpt>
      <trkpt lat="48.09627" lon="5.37478">
        <ele>349</ele>
        <time>2018-06-25T08:40:55Z</time>
      </trkpt>
      <trkpt lat="48.09646" lon="5.37479">
        <ele>349</ele>
        <time>2018-06-25T08:41:04Z</time>
      </trkpt>
      <trkpt lat="48.09663" lon="5.37481">
        <ele>349</ele>
        <time>2018-06-25T08:41:16Z</time>
      </trkpt>
      <trkpt lat="48.09679" lon="5.37484">
        <ele>349</ele>
        <time>2018-06-25T08:41:28Z</time>
      </trkpt>
      <trkpt lat="48.09691" lon="5.37485">
        <ele>349</ele>
        <time>2018-06-25T08:41:37Z</time>
      </trkpt>
      <trkpt lat="48.09706" lon="5.37485">
        <ele>349</ele>
        <time>2018-06-25T08:41:46Z</time>
      </trkpt>
      <trkpt lat="48.0972" lon="5.37486">
        <ele>348</ele>
        <time>2018-06-25T08:41:55Z</time>
      </trkpt>
      <trkpt lat="48.0973" lon="5.37488">
        <ele>349</ele>
        <time>2018-06-25T08:42:03Z</time>
      </trkpt>
      <trkpt lat="48.09744" lon="5.3749">
        <ele>348</ele>
        <time>2018-06-25T08:42:15Z</time>
      </trkpt>
      <trkpt lat="48.09762" lon="5.37492">
        <ele>349</ele>
        <time>2018-06-25T08:42:29Z</time>
      </trkpt>
      <trkpt lat="48.09778" lon="5.37494">
        <ele>348</ele>
        <time>2018-06-25T08:42:41Z</time>
      </trkpt>
      <trkpt lat="48.0979" lon="5.37496">
        <ele>349</ele>
        <time>2018-06-25T08:42:50Z</time>
      </trkpt>
      <trkpt lat="48.09802" lon="5.37502">
        <ele>349</ele>
        <time>2018-06-25T08:43:01Z</time>
      </trkpt>
      <trkpt lat="48.09818" lon="5.37515">
        <ele>350</ele>
        <time>2018-06-25T08:43:14Z</time>
      </trkpt>
      <trkpt lat="48.09829" lon="5.37524">
        <ele>351</ele>
        <time>2018-06-25T08:43:24Z</time>
      </trkpt>
      <trkpt lat="48.09839" lon="5.37533">
        <ele>352</ele>
        <time>2018-06-25T08:43:35Z</time>
      </trkpt>
      <trkpt lat="48.0985" lon="5.37546">
        <ele>353</ele>
        <time>2018-06-25T08:43:47Z</time>
      </trkpt>
      <trkpt lat="48.09861" lon="5.37554">
        <ele>354</ele>
        <time>2018-06-25T08:43:57Z</time>
      </trkpt>
      <trkpt lat="48.09872" lon="5.37563">
        <ele>354</ele>
        <time>2018-06-25T08:44:07Z</time>
      </trkpt>
      <trkpt lat="48.09882" lon="5.37574">
        <ele>355</ele>
        <time>2018-06-25T08:44:17Z</time>
      </trkpt>
      <trkpt lat="48.09889" lon="5.37589">
        <ele>356</ele>
        <time>2018-06-25T08:44:26Z</time>
      </trkpt>
      <trkpt lat="48.09891" lon="5.37607">
        <ele>357</ele>
        <time>2018-06-25T08:44:35Z</time>
      </trkpt>
      <trkpt lat="48.09893" lon="5.37621">
        <ele>358</ele>
        <time>2018-06-25T08:44:44Z</time>
      </trkpt>
      <trkpt lat="48.0989" lon="5.37635">
        <ele>359</ele>
        <time>2018-06-25T08:44:52Z</time>
      </trkpt>
      <trkpt lat="48.09887" lon="5.37651">
        <ele>360</ele>
        <time>2018-06-25T08:45:00Z</time>
      </trkpt>
      <trkpt lat="48.09886" lon="5.37667">
        <ele>361</ele>
        <time>2018-06-25T08:45:08Z</time>
      </trkpt>
      <trkpt lat="48.09886" lon="5.37682">
        <ele>361</ele>
        <time>2018-06-25T08:45:16Z</time>
      </trkpt>
      <trkpt lat="48.09885" lon="5.37697">
        <ele>363</ele>
        <time>2018-06-25T08:45:24Z</time>
      </trkpt>
      <trkpt lat="48.09886" lon="5.37716">
        <ele>363</ele>
        <time>2018-06-25T08:45:33Z</time>
      </trkpt>
      <trkpt lat="48.09885" lon="5.37733">
        <ele>364</ele>
        <time>2018-06-25T08:45:43Z</time>
      </trkpt>
      <trkpt lat="48.09885" lon="5.3775">
        <ele>365</ele>
        <time>2018-06-25T08:45:55Z</time>
      </trkpt>
      <trkpt lat="48.09883" lon="5.37772">
        <ele>365</ele>
        <time>2018-06-25T08:46:10Z</time>
      </trkpt>
      <trkpt lat="48.0988" lon="5.37793">
        <ele>366</ele>
        <time>2018-06-25T08:46:22Z</time>
      </trkpt>
      <trkpt lat="48.09873" lon="5.37813">
        <ele>368</ele>
        <time>2018-06-25T08:46:33Z</time>
      </trkpt>
      <trkpt lat="48.09871" lon="5.37833">
        <ele>369</ele>
        <time>2018-06-25T08:46:43Z</time>
      </trkpt>
      <trkpt lat="48.09877" lon="5.37854">
        <ele>371</ele>
        <time>2018-06-25T08:46:55Z</time>
      </trkpt>
      <trkpt lat="48.09884" lon="5.37872">
        <ele>371</ele>
        <time>2018-06-25T08:48:02Z</time>
      </trkpt>
      <trkpt lat="48.09897" lon="5.37877">
        <ele>372</ele>
        <time>2018-06-25T08:48:11Z</time>
      </trkpt>
      <trkpt lat="48.0991" lon="5.37883">
        <ele>374</ele>
        <time>2018-06-25T08:48:21Z</time>
      </trkpt>
      <trkpt lat="48.09923" lon="5.37893">
        <ele>375</ele>
        <time>2018-06-25T08:48:33Z</time>
      </trkpt>
      <trkpt lat="48.09934" lon="5.379">
        <ele>376</ele>
        <time>2018-06-25T08:48:42Z</time>
      </trkpt>
      <trkpt lat="48.09949" lon="5.37907">
        <ele>376</ele>
        <time>2018-06-25T08:48:52Z</time>
      </trkpt>
      <trkpt lat="48.0996" lon="5.37916">
        <ele>378</ele>
        <time>2018-06-25T08:49:02Z</time>
      </trkpt>
      <trkpt lat="48.09971" lon="5.37925">
        <ele>379</ele>
        <time>2018-06-25T08:49:12Z</time>
      </trkpt>
      <trkpt lat="48.09981" lon="5.37931">
        <ele>380</ele>
        <time>2018-06-25T08:49:22Z</time>
      </trkpt>
      <trkpt lat="48.09994" lon="5.37937">
        <ele>381</ele>
        <time>2018-06-25T08:49:34Z</time>
      </trkpt>
      <trkpt lat="48.1001" lon="5.37945">
        <ele>382</ele>
        <time>2018-06-25T08:49:45Z</time>
      </trkpt>
      <trkpt lat="48.10023" lon="5.37953">
        <ele>383</ele>
        <time>2018-06-25T08:49:55Z</time>
      </trkpt>
      <trkpt lat="48.10031" lon="5.37963">
        <ele>384</ele>
        <time>2018-06-25T08:50:05Z</time>
      </trkpt>
      <trkpt lat="48.10045" lon="5.37973">
        <ele>384</ele>
        <time>2018-06-25T08:50:16Z</time>
      </trkpt>
      <trkpt lat="48.10061" lon="5.37978">
        <ele>385</ele>
        <time>2018-06-25T08:50:26Z</time>
      </trkpt>
      <trkpt lat="48.10073" lon="5.37986">
        <ele>385</ele>
        <time>2018-06-25T08:50:37Z</time>
      </trkpt>
      <trkpt lat="48.10085" lon="5.37993">
        <ele>386</ele>
        <time>2018-06-25T08:50:47Z</time>
      </trkpt>
      <trkpt lat="48.10096" lon="5.38">
        <ele>387</ele>
        <time>2018-06-25T08:50:56Z</time>
      </trkpt>
      <trkpt lat="48.10108" lon="5.38009">
        <ele>387</ele>
        <time>2018-06-25T08:51:06Z</time>
      </trkpt>
      <trkpt lat="48.10122" lon="5.38016">
        <ele>386</ele>
        <time>2018-06-25T08:51:16Z</time>
      </trkpt>
      <trkpt lat="48.10136" lon="5.38018">
        <ele>387</ele>
        <time>2018-06-25T08:51:26Z</time>
      </trkpt>
      <trkpt lat="48.10154" lon="5.3802">
        <ele>388</ele>
        <time>2018-06-25T08:51:38Z</time>
      </trkpt>
      <trkpt lat="48.1017" lon="5.38024">
        <ele>387</ele>
        <time>2018-06-25T08:51:48Z</time>
      </trkpt>
      <trkpt lat="48.10187" lon="5.38027">
        <ele>387</ele>
        <time>2018-06-25T08:51:59Z</time>
      </trkpt>
      <trkpt lat="48.102" lon="5.38028">
        <ele>387</ele>
        <time>2018-06-25T08:52:09Z</time>
      </trkpt>
      <trkpt lat="48.10212" lon="5.38029">
        <ele>387</ele>
        <time>2018-06-25T08:52:22Z</time>
      </trkpt>
      <trkpt lat="48.10231" lon="5.38033">
        <ele>386</ele>
        <time>2018-06-25T08:52:37Z</time>
      </trkpt>
      <trkpt lat="48.10256" lon="5.38042">
        <ele>385</ele>
        <time>2018-06-25T08:52:51Z</time>
      </trkpt>
      <trkpt lat="48.10272" lon="5.38052">
        <ele>384</ele>
        <time>2018-06-25T08:53:05Z</time>
      </trkpt>
      <trkpt lat="48.10286" lon="5.3806">
        <ele>383</ele>
        <time>2018-06-25T08:53:17Z</time>
      </trkpt>
      <trkpt lat="48.10302" lon="5.38069">
        <ele>382</ele>
        <time>2018-06-25T08:53:29Z</time>
      </trkpt>
      <trkpt lat="48.10319" lon="5.3808">
        <ele>380</ele>
        <time>2018-06-25T08:53:42Z</time>
      </trkpt>
      <trkpt lat="48.10333" lon="5.38088">
        <ele>379</ele>
        <time>2018-06-25T08:53:54Z</time>
      </trkpt>
      <trkpt lat="48.10345" lon="5.38095">
        <ele>379</ele>
        <time>2018-06-25T08:54:06Z</time>
      </trkpt>
      <trkpt lat="48.10361" lon="5.38105">
        <ele>378</ele>
        <time>2018-06-25T08:54:17Z</time>
      </trkpt>
      <trkpt lat="48.10376" lon="5.38114">
        <ele>378</ele>
        <time>2018-06-25T08:54:28Z</time>
      </trkpt>
      <trkpt lat="48.10392" lon="5.38123">
        <ele>376</ele>
        <time>2018-06-25T08:54:39Z</time>
      </trkpt>
      <trkpt lat="48.10406" lon="5.38129">
        <ele>376</ele>
        <time>2018-06-25T08:54:48Z</time>
      </trkpt>
      <trkpt lat="48.10417" lon="5.38137">
        <ele>375</ele>
        <time>2018-06-25T08:54:56Z</time>
      </trkpt>
      <trkpt lat="48.10424" lon="5.38151">
        <ele>374</ele>
        <time>2018-06-25T08:55:06Z</time>
      </trkpt>
      <trkpt lat="48.10427" lon="5.38167">
        <ele>373</ele>
        <time>2018-06-25T08:55:15Z</time>
      </trkpt>
      <trkpt lat="48.10426" lon="5.38182">
        <ele>373</ele>
        <time>2018-06-25T08:55:26Z</time>
      </trkpt>
      <trkpt lat="48.10421" lon="5.38195">
        <ele>372</ele>
        <time>2018-06-25T08:55:36Z</time>
      </trkpt>
      <trkpt lat="48.10415" lon="5.38209">
        <ele>371</ele>
        <time>2018-06-25T08:55:45Z</time>
      </trkpt>
      <trkpt lat="48.10407" lon="5.38228">
        <ele>369</ele>
        <time>2018-06-25T08:55:55Z</time>
      </trkpt>
      <trkpt lat="48.10399" lon="5.38251">
        <ele>368</ele>
        <time>2018-06-25T08:56:06Z</time>
      </trkpt>
      <trkpt lat="48.10393" lon="5.38268">
        <ele>367</ele>
        <time>2018-06-25T08:56:16Z</time>
      </trkpt>
      <trkpt lat="48.10388" lon="5.38287">
        <ele>366</ele>
        <time>2018-06-25T08:56:26Z</time>
      </trkpt>
      <trkpt lat="48.10383" lon="5.38304">
        <ele>364</ele>
        <time>2018-06-25T08:56:37Z</time>
      </trkpt>
      <trkpt lat="48.1038" lon="5.3832">
        <ele>364</ele>
        <time>2018-06-25T08:56:46Z</time>
      </trkpt>
      <trkpt lat="48.10375" lon="5.38338">
        <ele>362</ele>
        <time>2018-06-25T08:56:56Z</time>
      </trkpt>
      <trkpt lat="48.10371" lon="5.38355">
        <ele>361</ele>
        <time>2018-06-25T08:57:05Z</time>
      </trkpt>
      <trkpt lat="48.10366" lon="5.38375">
        <ele>359</ele>
        <time>2018-06-25T08:57:14Z</time>
      </trkpt>
      <trkpt lat="48.10362" lon="5.384">
        <ele>357</ele>
        <time>2018-06-25T08:57:24Z</time>
      </trkpt>
      <trkpt lat="48.10358" lon="5.38416">
        <ele>356</ele>
        <time>2018-06-25T08:57:33Z</time>
      </trkpt>
      <trkpt lat="48.10355" lon="5.38434">
        <ele>355</ele>
        <time>2018-06-25T08:57:42Z</time>
      </trkpt>
      <trkpt lat="48.10353" lon="5.38453">
        <ele>354</ele>
        <time>2018-06-25T08:57:52Z</time>
      </trkpt>
      <trkpt lat="48.1035" lon="5.3847">
        <ele>352</ele>
        <time>2018-06-25T08:58:02Z</time>
      </trkpt>
      <trkpt lat="48.10347" lon="5.38491">
        <ele>351</ele>
        <time>2018-06-25T08:58:12Z</time>
      </trkpt>
      <trkpt lat="48.10344" lon="5.38513">
        <ele>351</ele>
        <time>2018-06-25T08:58:22Z</time>
      </trkpt>
      <trkpt lat="48.10341" lon="5.38531">
        <ele>350</ele>
        <time>2018-06-25T08:58:31Z</time>
      </trkpt>
      <trkpt lat="48.10338" lon="5.3855">
        <ele>349</ele>
        <time>2018-06-25T08:58:39Z</time>
      </trkpt>
      <trkpt lat="48.10337" lon="5.38567">
        <ele>347</ele>
        <time>2018-06-25T08:58:47Z</time>
      </trkpt>
      <trkpt lat="48.10337" lon="5.38587">
        <ele>346</ele>
        <time>2018-06-25T08:58:55Z</time>
      </trkpt>
      <trkpt lat="48.10335" lon="5.38606">
        <ele>346</ele>
        <time>2018-06-25T08:59:03Z</time>
      </trkpt>
      <trkpt lat="48.10335" lon="5.38621">
        <ele>346</ele>
        <time>2018-06-25T08:59:10Z</time>
      </trkpt>
      <trkpt lat="48.10336" lon="5.38635">
        <ele>344</ele>
        <time>2018-06-25T08:59:17Z</time>
      </trkpt>
      <trkpt lat="48.10338" lon="5.38648">
        <ele>344</ele>
        <time>2018-06-25T08:59:24Z</time>
      </trkpt>
      <trkpt lat="48.10343" lon="5.38662">
        <ele>344</ele>
        <time>2018-06-25T08:59:33Z</time>
      </trkpt>
      <trkpt lat="48.10349" lon="5.38678">
        <ele>344</ele>
        <time>2018-06-25T08:59:43Z</time>
      </trkpt>
      <trkpt lat="48.10352" lon="5.38696">
        <ele>343</ele>
        <time>2018-06-25T08:59:52Z</time>
      </trkpt>
      <trkpt lat="48.10353" lon="5.38714">
        <ele>344</ele>
        <time>2018-06-25T09:00:01Z</time>
      </trkpt>
      <trkpt lat="48.1035" lon="5.38731">
        <ele>343</ele>
        <time>2018-06-25T09:00:10Z</time>
      </trkpt>
      <trkpt lat="48.10346" lon="5.38747">
        <ele>343</ele>
        <time>2018-06-25T09:00:20Z</time>
      </trkpt>
      <trkpt lat="48.10342" lon="5.38765">
        <ele>344</ele>
        <time>2018-06-25T09:00:29Z</time>
      </trkpt>
      <trkpt lat="48.10335" lon="5.38779">
        <ele>344</ele>
        <time>2018-06-25T09:00:37Z</time>
      </trkpt>
      <trkpt lat="48.10329" lon="5.38795">
        <ele>344</ele>
        <time>2018-06-25T09:00:46Z</time>
      </trkpt>
      <trkpt lat="48.10325" lon="5.38807">
        <ele>344</ele>
        <time>2018-06-25T09:00:55Z</time>
      </trkpt>
      <trkpt lat="48.10321" lon="5.38821">
        <ele>344</ele>
        <time>2018-06-25T09:01:10Z</time>
      </trkpt>
      <trkpt lat="48.10321" lon="5.38838">
        <ele>344</ele>
        <time>2018-06-25T09:01:18Z</time>
      </trkpt>
      <trkpt lat="48.10319" lon="5.38854">
        <ele>345</ele>
        <time>2018-06-25T09:01:26Z</time>
      </trkpt>
      <trkpt lat="48.10318" lon="5.38873">
        <ele>345</ele>
        <time>2018-06-25T09:01:36Z</time>
      </trkpt>
      <trkpt lat="48.10318" lon="5.38895">
        <ele>346</ele>
        <time>2018-06-25T09:01:47Z</time>
      </trkpt>
      <trkpt lat="48.10318" lon="5.38915">
        <ele>347</ele>
        <time>2018-06-25T09:01:56Z</time>
      </trkpt>
      <trkpt lat="48.10321" lon="5.38932">
        <ele>348</ele>
        <time>2018-06-25T09:02:05Z</time>
      </trkpt>
      <trkpt lat="48.10322" lon="5.38949">
        <ele>348</ele>
        <time>2018-06-25T09:02:14Z</time>
      </trkpt>
      <trkpt lat="48.10323" lon="5.38966">
        <ele>349</ele>
        <time>2018-06-25T09:02:22Z</time>
      </trkpt>
      <trkpt lat="48.10324" lon="5.38984">
        <ele>349</ele>
        <time>2018-06-25T09:02:31Z</time>
      </trkpt>
      <trkpt lat="48.10327" lon="5.39005">
        <ele>350</ele>
        <time>2018-06-25T09:02:42Z</time>
      </trkpt>
      <trkpt lat="48.10331" lon="5.3902">
        <ele>350</ele>
        <time>2018-06-25T09:02:50Z</time>
      </trkpt>
      <trkpt lat="48.10334" lon="5.39035">
        <ele>351</ele>
        <time>2018-06-25T09:02:58Z</time>
      </trkpt>
      <trkpt lat="48.10337" lon="5.39049">
        <ele>352</ele>
        <time>2018-06-25T09:03:05Z</time>
      </trkpt>
      <trkpt lat="48.10342" lon="5.39063">
        <ele>352</ele>
        <time>2018-06-25T09:03:13Z</time>
      </trkpt>
      <trkpt lat="48.10346" lon="5.39075">
        <ele>353</ele>
        <time>2018-06-25T09:03:21Z</time>
      </trkpt>
      <trkpt lat="48.10352" lon="5.39092">
        <ele>354</ele>
        <time>2018-06-25T09:03:31Z</time>
      </trkpt>
      <trkpt lat="48.10359" lon="5.39107">
        <ele>354</ele>
        <time>2018-06-25T09:03:41Z</time>
      </trkpt>
      <trkpt lat="48.10364" lon="5.39124">
        <ele>354</ele>
        <time>2018-06-25T09:03:50Z</time>
      </trkpt>
      <trkpt lat="48.10365" lon="5.3914">
        <ele>355</ele>
        <time>2018-06-25T09:03:57Z</time>
      </trkpt>
      <trkpt lat="48.10364" lon="5.39155">
        <ele>355</ele>
        <time>2018-06-25T09:04:04Z</time>
      </trkpt>
      <trkpt lat="48.10362" lon="5.39168">
        <ele>356</ele>
        <time>2018-06-25T09:04:11Z</time>
      </trkpt>
      <trkpt lat="48.10359" lon="5.39182">
        <ele>356</ele>
        <time>2018-06-25T09:04:18Z</time>
      </trkpt>
      <trkpt lat="48.10355" lon="5.39196">
        <ele>356</ele>
        <time>2018-06-25T09:04:26Z</time>
      </trkpt>
      <trkpt lat="48.10351" lon="5.39211">
        <ele>357</ele>
        <time>2018-06-25T09:04:34Z</time>
      </trkpt>
      <trkpt lat="48.10345" lon="5.39224">
        <ele>357</ele>
        <time>2018-06-25T09:04:42Z</time>
      </trkpt>
      <trkpt lat="48.1034" lon="5.39237">
        <ele>358</ele>
        <time>2018-06-25T09:04:50Z</time>
      </trkpt>
      <trkpt lat="48.10336" lon="5.39252">
        <ele>358</ele>
        <time>2018-06-25T09:04:58Z</time>
      </trkpt>
      <trkpt lat="48.10331" lon="5.39267">
        <ele>358</ele>
        <time>2018-06-25T09:05:06Z</time>
      </trkpt>
      <trkpt lat="48.10328" lon="5.39282">
        <ele>359</ele>
        <time>2018-06-25T09:05:14Z</time>
      </trkpt>
      <trkpt lat="48.10324" lon="5.39297">
        <ele>359</ele>
        <time>2018-06-25T09:05:22Z</time>
      </trkpt>
      <trkpt lat="48.10321" lon="5.3931">
        <ele>358</ele>
        <time>2018-06-25T09:05:57Z</time>
      </trkpt>
      <trkpt lat="48.10317" lon="5.39327">
        <ele>359</ele>
        <time>2018-06-25T09:06:06Z</time>
      </trkpt>
      <trkpt lat="48.10315" lon="5.39343">
        <ele>359</ele>
        <time>2018-06-25T09:06:13Z</time>
      </trkpt>
      <trkpt lat="48.1031" lon="5.39358">
        <ele>359</ele>
        <time>2018-06-25T09:06:21Z</time>
      </trkpt>
      <trkpt lat="48.10306" lon="5.39375">
        <ele>359</ele>
        <time>2018-06-25T09:06:30Z</time>
      </trkpt>
      <trkpt lat="48.10304" lon="5.39393">
        <ele>358</ele>
        <time>2018-06-25T09:06:39Z</time>
      </trkpt>
      <trkpt lat="48.10299" lon="5.39409">
        <ele>358</ele>
        <time>2018-06-25T09:06:48Z</time>
      </trkpt>
      <trkpt lat="48.10295" lon="5.39425">
        <ele>358</ele>
        <time>2018-06-25T09:06:56Z</time>
      </trkpt>
      <trkpt lat="48.10292" lon="5.39443">
        <ele>357</ele>
        <time>2018-06-25T09:07:04Z</time>
      </trkpt>
      <trkpt lat="48.10289" lon="5.39461">
        <ele>356</ele>
        <time>2018-06-25T09:07:13Z</time>
      </trkpt>
      <trkpt lat="48.10285" lon="5.39476">
        <ele>356</ele>
        <time>2018-06-25T09:07:21Z</time>
      </trkpt>
      <trkpt lat="48.10286" lon="5.39495">
        <ele>356</ele>
        <time>2018-06-25T09:07:30Z</time>
      </trkpt>
      <trkpt lat="48.10284" lon="5.39514">
        <ele>356</ele>
        <time>2018-06-25T09:07:39Z</time>
      </trkpt>
      <trkpt lat="48.10284" lon="5.3953">
        <ele>356</ele>
        <time>2018-06-25T09:07:47Z</time>
      </trkpt>
      <trkpt lat="48.10285" lon="5.39546">
        <ele>356</ele>
        <time>2018-06-25T09:07:56Z</time>
      </trkpt>
      <trkpt lat="48.10286" lon="5.39566">
        <ele>356</ele>
        <time>2018-06-25T09:08:06Z</time>
      </trkpt>
      <trkpt lat="48.10288" lon="5.39584">
        <ele>356</ele>
        <time>2018-06-25T09:08:15Z</time>
      </trkpt>
      <trkpt lat="48.10292" lon="5.39601">
        <ele>355</ele>
        <time>2018-06-25T09:08:23Z</time>
      </trkpt>
      <trkpt lat="48.10291" lon="5.39623">
        <ele>356</ele>
        <time>2018-06-25T09:08:33Z</time>
      </trkpt>
      <trkpt lat="48.10299" lon="5.39643">
        <ele>358</ele>
        <time>2018-06-25T09:08:43Z</time>
      </trkpt>
      <trkpt lat="48.10304" lon="5.39656">
        <ele>358</ele>
        <time>2018-06-25T09:08:53Z</time>
      </trkpt>
      <trkpt lat="48.10311" lon="5.39676">
        <ele>360</ele>
        <time>2018-06-25T09:09:05Z</time>
      </trkpt>
      <trkpt lat="48.10312" lon="5.39704">
        <ele>360</ele>
        <time>2018-06-25T09:09:18Z</time>
      </trkpt>
      <trkpt lat="48.10315" lon="5.39729">
        <ele>361</ele>
        <time>2018-06-25T09:09:31Z</time>
      </trkpt>
      <trkpt lat="48.10319" lon="5.39759">
        <ele>361</ele>
        <time>2018-06-25T09:09:43Z</time>
      </trkpt>
      <trkpt lat="48.10325" lon="5.39777">
        <ele>362</ele>
        <time>2018-06-25T09:09:54Z</time>
      </trkpt>
      <trkpt lat="48.1033" lon="5.39796">
        <ele>363</ele>
        <time>2018-06-25T09:10:05Z</time>
      </trkpt>
      <trkpt lat="48.10336" lon="5.39814">
        <ele>364</ele>
        <time>2018-06-25T09:10:16Z</time>
      </trkpt>
      <trkpt lat="48.10343" lon="5.39832">
        <ele>365</ele>
        <time>2018-06-25T09:10:28Z</time>
      </trkpt>
      <trkpt lat="48.1035" lon="5.39851">
        <ele>366</ele>
        <time>2018-06-25T09:10:38Z</time>
      </trkpt>
      <trkpt lat="48.10354" lon="5.39875">
        <ele>368</ele>
        <time>2018-06-25T09:10:50Z</time>
      </trkpt>
      <trkpt lat="48.10356" lon="5.39898">
        <ele>370</ele>
        <time>2018-06-25T09:11:04Z</time>
      </trkpt>
      <trkpt lat="48.10362" lon="5.39918">
        <ele>372</ele>
        <time>2018-06-25T09:11:18Z</time>
      </trkpt>
      <trkpt lat="48.10364" lon="5.39947">
        <ele>373</ele>
        <time>2018-06-25T09:11:31Z</time>
      </trkpt>
      <trkpt lat="48.10365" lon="5.39977">
        <ele>375</ele>
        <time>2018-06-25T09:11:43Z</time>
      </trkpt>
      <trkpt lat="48.10369" lon="5.40003">
        <ele>376</ele>
        <time>2018-06-25T09:11:55Z</time>
      </trkpt>
      <trkpt lat="48.10374" lon="5.40027">
        <ele>377</ele>
        <time>2018-06-25T09:12:07Z</time>
      </trkpt>
      <trkpt lat="48.10379" lon="5.40047">
        <ele>378</ele>
        <time>2018-06-25T09:12:18Z</time>
      </trkpt>
      <trkpt lat="48.10385" lon="5.40066">
        <ele>380</ele>
        <time>2018-06-25T09:12:31Z</time>
      </trkpt>
      <trkpt lat="48.10392" lon="5.4008">
        <ele>383</ele>
        <time>2018-06-25T09:12:41Z</time>
      </trkpt>
      <trkpt lat="48.10405" lon="5.40103">
        <ele>385</ele>
        <time>2018-06-25T09:12:57Z</time>
      </trkpt>
      <trkpt lat="48.10416" lon="5.40115">
        <ele>386</ele>
        <time>2018-06-25T09:13:08Z</time>
      </trkpt>
      <trkpt lat="48.10424" lon="5.4013">
        <ele>387</ele>
        <time>2018-06-25T09:13:18Z</time>
      </trkpt>
      <trkpt lat="48.10434" lon="5.40151">
        <ele>388</ele>
        <time>2018-06-25T09:13:30Z</time>
      </trkpt>
      <trkpt lat="48.10442" lon="5.40162">
        <ele>388</ele>
        <time>2018-06-25T09:13:39Z</time>
      </trkpt>
      <trkpt lat="48.10452" lon="5.40173">
        <ele>389</ele>
        <time>2018-06-25T09:13:49Z</time>
      </trkpt>
      <trkpt lat="48.10463" lon="5.40186">
        <ele>390</ele>
        <time>2018-06-25T09:13:58Z</time>
      </trkpt>
      <trkpt lat="48.10472" lon="5.40199">
        <ele>390</ele>
        <time>2018-06-25T09:14:07Z</time>
      </trkpt>
      <trkpt lat="48.10478" lon="5.40212">
        <ele>391</ele>
        <time>2018-06-25T09:14:15Z</time>
      </trkpt>
      <trkpt lat="48.10483" lon="5.40222">
        <ele>391</ele>
        <time>2018-06-25T09:14:22Z</time>
      </trkpt>
      <trkpt lat="48.10488" lon="5.40234">
        <ele>392</ele>
        <time>2018-06-25T09:14:30Z</time>
      </trkpt>
      <trkpt lat="48.10492" lon="5.40248">
        <ele>392</ele>
        <time>2018-06-25T09:14:38Z</time>
      </trkpt>
      <trkpt lat="48.10496" lon="5.40263">
        <ele>393</ele>
        <time>2018-06-25T09:14:45Z</time>
      </trkpt>
      <trkpt lat="48.10499" lon="5.40276">
        <ele>393</ele>
        <time>2018-06-25T09:14:52Z</time>
      </trkpt>
      <trkpt lat="48.10502" lon="5.4029">
        <ele>393</ele>
        <time>2018-06-25T09:15:00Z</time>
      </trkpt>
      <trkpt lat="48.10503" lon="5.40303">
        <ele>394</ele>
        <time>2018-06-25T09:15:07Z</time>
      </trkpt>
      <trkpt lat="48.10507" lon="5.40318">
        <ele>394</ele>
        <time>2018-06-25T09:15:15Z</time>
      </trkpt>
      <trkpt lat="48.10511" lon="5.40333">
        <ele>395</ele>
        <time>2018-06-25T09:15:23Z</time>
      </trkpt>
      <trkpt lat="48.10514" lon="5.40347">
        <ele>395</ele>
        <time>2018-06-25T09:15:31Z</time>
      </trkpt>
      <trkpt lat="48.10519" lon="5.40362">
        <ele>395</ele>
        <time>2018-06-25T09:15:39Z</time>
      </trkpt>
      <trkpt lat="48.10522" lon="5.40376">
        <ele>395</ele>
        <time>2018-06-25T09:15:46Z</time>
      </trkpt>
      <trkpt lat="48.10525" lon="5.40389">
        <ele>395</ele>
        <time>2018-06-25T09:15:53Z</time>
      </trkpt>
      <trkpt lat="48.10528" lon="5.40403">
        <ele>396</ele>
        <time>2018-06-25T09:16:00Z</time>
      </trkpt>
      <trkpt lat="48.10531" lon="5.40418">
        <ele>396</ele>
        <time>2018-06-25T09:16:07Z</time>
      </trkpt>
      <trkpt lat="48.10534" lon="5.40431">
        <ele>396</ele>
        <time>2018-06-25T09:16:14Z</time>
      </trkpt>
      <trkpt lat="48.10537" lon="5.40446">
        <ele>397</ele>
        <time>2018-06-25T09:16:22Z</time>
      </trkpt>
      <trkpt lat="48.10541" lon="5.4046">
        <ele>397</ele>
        <time>2018-06-25T09:16:29Z</time>
      </trkpt>
      <trkpt lat="48.10544" lon="5.40473">
        <ele>398</ele>
        <time>2018-06-25T09:16:37Z</time>
      </trkpt>
      <trkpt lat="48.10548" lon="5.40486">
        <ele>398</ele>
        <time>2018-06-25T09:16:44Z</time>
      </trkpt>
      <trkpt lat="48.10552" lon="5.40501">
        <ele>398</ele>
        <time>2018-06-25T09:16:51Z</time>
      </trkpt>
      <trkpt lat="48.10555" lon="5.40513">
        <ele>397</ele>
        <time>2018-06-25T09:16:58Z</time>
      </trkpt>
      <trkpt lat="48.10558" lon="5.40527">
        <ele>399</ele>
        <time>2018-06-25T09:17:05Z</time>
      </trkpt>
      <trkpt lat="48.1056" lon="5.40541">
        <ele>399</ele>
        <time>2018-06-25T09:17:12Z</time>
      </trkpt>
      <trkpt lat="48.10565" lon="5.40554">
        <ele>400</ele>
        <time>2018-06-25T09:17:20Z</time>
      </trkpt>
      <trkpt lat="48.10568" lon="5.40568">
        <ele>400</ele>
        <time>2018-06-25T09:17:28Z</time>
      </trkpt>
      <trkpt lat="48.10571" lon="5.40582">
        <ele>399</ele>
        <time>2018-06-25T09:17:35Z</time>
      </trkpt>
      <trkpt lat="48.10574" lon="5.40597">
        <ele>401</ele>
        <time>2018-06-25T09:17:43Z</time>
      </trkpt>
      <trkpt lat="48.10577" lon="5.40612">
        <ele>401</ele>
        <time>2018-06-25T09:17:51Z</time>
      </trkpt>
      <trkpt lat="48.1058" lon="5.40627">
        <ele>401</ele>
        <time>2018-06-25T09:17:59Z</time>
      </trkpt>
      <trkpt lat="48.10585" lon="5.40642">
        <ele>401</ele>
        <time>2018-06-25T09:18:07Z</time>
      </trkpt>
      <trkpt lat="48.10588" lon="5.40657">
        <ele>401</ele>
        <time>2018-06-25T09:18:15Z</time>
      </trkpt>
      <trkpt lat="48.10592" lon="5.40671">
        <ele>401</ele>
        <time>2018-06-25T09:18:23Z</time>
      </trkpt>
      <trkpt lat="48.10595" lon="5.40685">
        <ele>401</ele>
        <time>2018-06-25T09:18:30Z</time>
      </trkpt>
      <trkpt lat="48.10599" lon="5.40699">
        <ele>401</ele>
        <time>2018-06-25T09:18:37Z</time>
      </trkpt>
      <trkpt lat="48.10603" lon="5.40713">
        <ele>402</ele>
        <time>2018-06-25T09:18:44Z</time>
      </trkpt>
      <trkpt lat="48.10606" lon="5.40726">
        <ele>401</ele>
        <time>2018-06-25T09:18:51Z</time>
      </trkpt>
      <trkpt lat="48.1061" lon="5.40739">
        <ele>402</ele>
        <time>2018-06-25T09:18:58Z</time>
      </trkpt>
      <trkpt lat="48.10613" lon="5.40753">
        <ele>402</ele>
        <time>2018-06-25T09:19:05Z</time>
      </trkpt>
      <trkpt lat="48.10617" lon="5.40767">
        <ele>403</ele>
        <time>2018-06-25T09:19:13Z</time>
      </trkpt>
      <trkpt lat="48.10621" lon="5.40781">
        <ele>403</ele>
        <time>2018-06-25T09:19:20Z</time>
      </trkpt>
      <trkpt lat="48.10625" lon="5.40796">
        <ele>403</ele>
        <time>2018-06-25T09:19:28Z</time>
      </trkpt>
      <trkpt lat="48.10629" lon="5.40811">
        <ele>403</ele>
        <time>2018-06-25T09:19:36Z</time>
      </trkpt>
      <trkpt lat="48.10633" lon="5.40824">
        <ele>403</ele>
        <time>2018-06-25T09:19:43Z</time>
      </trkpt>
      <trkpt lat="48.10638" lon="5.40839">
        <ele>403</ele>
        <time>2018-06-25T09:19:51Z</time>
      </trkpt>
      <trkpt lat="48.10642" lon="5.40851">
        <ele>403</ele>
        <time>2018-06-25T09:19:58Z</time>
      </trkpt>
      <trkpt lat="48.10646" lon="5.40865">
        <ele>404</ele>
        <time>2018-06-25T09:20:05Z</time>
      </trkpt>
      <trkpt lat="48.10649" lon="5.40879">
        <ele>403</ele>
        <time>2018-06-25T09:20:12Z</time>
      </trkpt>
      <trkpt lat="48.10653" lon="5.40892">
        <ele>404</ele>
        <time>2018-06-25T09:20:19Z</time>
      </trkpt>
      <trkpt lat="48.10657" lon="5.40904">
        <ele>402</ele>
        <time>2018-06-25T09:20:26Z</time>
      </trkpt>
      <trkpt lat="48.10661" lon="5.40916">
        <ele>403</ele>
        <time>2018-06-25T09:20:33Z</time>
      </trkpt>
      <trkpt lat="48.10665" lon="5.40929">
        <ele>403</ele>
        <time>2018-06-25T09:20:40Z</time>
      </trkpt>
      <trkpt lat="48.10668" lon="5.40942">
        <ele>403</ele>
        <time>2018-06-25T09:20:47Z</time>
      </trkpt>
      <trkpt lat="48.10672" lon="5.40956">
        <ele>403</ele>
        <time>2018-06-25T09:20:54Z</time>
      </trkpt>
      <trkpt lat="48.10675" lon="5.40969">
        <ele>404</ele>
        <time>2018-06-25T09:21:01Z</time>
      </trkpt>
      <trkpt lat="48.10678" lon="5.40982">
        <ele>403</ele>
        <time>2018-06-25T09:21:08Z</time>
      </trkpt>
      <trkpt lat="48.10683" lon="5.40997">
        <ele>403</ele>
        <time>2018-06-25T09:21:16Z</time>
      </trkpt>
      <trkpt lat="48.10687" lon="5.41009">
        <ele>403</ele>
        <time>2018-06-25T09:21:23Z</time>
      </trkpt>
      <trkpt lat="48.10692" lon="5.41023">
        <ele>404</ele>
        <time>2018-06-25T09:21:31Z</time>
      </trkpt>
      <trkpt lat="48.10697" lon="5.41035">
        <ele>404</ele>
        <time>2018-06-25T09:21:38Z</time>
      </trkpt>
      <trkpt lat="48.10702" lon="5.41048">
        <ele>403</ele>
        <time>2018-06-25T09:21:45Z</time>
      </trkpt>
      <trkpt lat="48.10707" lon="5.41061">
        <ele>404</ele>
        <time>2018-06-25T09:21:52Z</time>
      </trkpt>
      <trkpt lat="48.1071" lon="5.41076">
        <ele>404</ele>
        <time>2018-06-25T09:22:00Z</time>
      </trkpt>
      <trkpt lat="48.10714" lon="5.4109">
        <ele>405</ele>
        <time>2018-06-25T09:22:08Z</time>
      </trkpt>
      <trkpt lat="48.10718" lon="5.41104">
        <ele>405</ele>
        <time>2018-06-25T09:22:16Z</time>
      </trkpt>
      <trkpt lat="48.10722" lon="5.41117">
        <ele>405</ele>
        <time>2018-06-25T09:22:24Z</time>
      </trkpt>
      <trkpt lat="48.10725" lon="5.4113">
        <ele>405</ele>
        <time>2018-06-25T09:22:31Z</time>
      </trkpt>
      <trkpt lat="48.1073" lon="5.41143">
        <ele>405</ele>
        <time>2018-06-25T09:22:38Z</time>
      </trkpt>
      <trkpt lat="48.10734" lon="5.41154">
        <ele>405</ele>
        <time>2018-06-25T09:22:45Z</time>
      </trkpt>
      <trkpt lat="48.10738" lon="5.41168">
        <ele>405</ele>
        <time>2018-06-25T09:22:53Z</time>
      </trkpt>
      <trkpt lat="48.10742" lon="5.41183">
        <ele>405</ele>
        <time>2018-06-25T09:23:01Z</time>
      </trkpt>
      <trkpt lat="48.10746" lon="5.41198">
        <ele>405</ele>
        <time>2018-06-25T09:23:09Z</time>
      </trkpt>
      <trkpt lat="48.10748" lon="5.41212">
        <ele>405</ele>
        <time>2018-06-25T09:23:16Z</time>
      </trkpt>
      <trkpt lat="48.10749" lon="5.41226">
        <ele>404</ele>
        <time>2018-06-25T09:23:23Z</time>
      </trkpt>
      <trkpt lat="48.10748" lon="5.4124">
        <ele>404</ele>
        <time>2018-06-25T09:23:30Z</time>
      </trkpt>
      <trkpt lat="48.10744" lon="5.41256">
        <ele>404</ele>
        <time>2018-06-25T09:23:38Z</time>
      </trkpt>
      <trkpt lat="48.10742" lon="5.41269">
        <ele>405</ele>
        <time>2018-06-25T09:23:45Z</time>
      </trkpt>
      <trkpt lat="48.10739" lon="5.41284">
        <ele>404</ele>
        <time>2018-06-25T09:23:53Z</time>
      </trkpt>
      <trkpt lat="48.10738" lon="5.41299">
        <ele>403</ele>
        <time>2018-06-25T09:24:01Z</time>
      </trkpt>
      <trkpt lat="48.10737" lon="5.41314">
        <ele>404</ele>
        <time>2018-06-25T09:24:09Z</time>
      </trkpt>
      <trkpt lat="48.10737" lon="5.41331">
        <ele>405</ele>
        <time>2018-06-25T09:24:17Z</time>
      </trkpt>
      <trkpt lat="48.10739" lon="5.41346">
        <ele>406</ele>
        <time>2018-06-25T09:24:25Z</time>
      </trkpt>
      <trkpt lat="48.1074" lon="5.41361">
        <ele>406</ele>
        <time>2018-06-25T09:24:32Z</time>
      </trkpt>
      <trkpt lat="48.10741" lon="5.41376">
        <ele>406</ele>
        <time>2018-06-25T09:24:39Z</time>
      </trkpt>
      <trkpt lat="48.10743" lon="5.4139">
        <ele>406</ele>
        <time>2018-06-25T09:24:47Z</time>
      </trkpt>
      <trkpt lat="48.10741" lon="5.41405">
        <ele>407</ele>
        <time>2018-06-25T09:24:55Z</time>
      </trkpt>
      <trkpt lat="48.10738" lon="5.4142">
        <ele>406</ele>
        <time>2018-06-25T09:25:03Z</time>
      </trkpt>
      <trkpt lat="48.10736" lon="5.41433">
        <ele>405</ele>
        <time>2018-06-25T09:25:11Z</time>
      </trkpt>
      <trkpt lat="48.10733" lon="5.41447">
        <ele>404</ele>
        <time>2018-06-25T09:25:20Z</time>
      </trkpt>
      <trkpt lat="48.10727" lon="5.41464">
        <ele>404</ele>
        <time>2018-06-25T09:25:29Z</time>
      </trkpt>
      <trkpt lat="48.10721" lon="5.4148">
        <ele>404</ele>
        <time>2018-06-25T09:25:39Z</time>
      </trkpt>
      <trkpt lat="48.10717" lon="5.41487">
        <ele>403</ele>
        <time>2018-06-25T09:26:54Z</time>
      </trkpt>
      <trkpt lat="48.10721" lon="5.4148">
        <ele>404</ele>
        <time>2018-06-25T09:29:31Z</time>
      </trkpt>
      <trkpt lat="48.1072" lon="5.41498">
        <ele>404</ele>
        <time>2018-06-25T09:30:17Z</time>
      </trkpt>
      <trkpt lat="48.10718" lon="5.41513">
        <ele>405</ele>
        <time>2018-06-25T09:30:25Z</time>
      </trkpt>
      <trkpt lat="48.10718" lon="5.41527">
        <ele>405</ele>
        <time>2018-06-25T09:30:32Z</time>
      </trkpt>
      <trkpt lat="48.10716" lon="5.41543">
        <ele>405</ele>
        <time>2018-06-25T09:30:40Z</time>
      </trkpt>
      <trkpt lat="48.1071" lon="5.4156">
        <ele>405</ele>
        <time>2018-06-25T09:30:48Z</time>
      </trkpt>
      <trkpt lat="48.10706" lon="5.41575">
        <ele>404</ele>
        <time>2018-06-25T09:30:56Z</time>
      </trkpt>
      <trkpt lat="48.10705" lon="5.41588">
        <ele>405</ele>
        <time>2018-06-25T09:31:04Z</time>
      </trkpt>
      <trkpt lat="48.10703" lon="5.41604">
        <ele>404</ele>
        <time>2018-06-25T09:31:12Z</time>
      </trkpt>
      <trkpt lat="48.10698" lon="5.41619">
        <ele>404</ele>
        <time>2018-06-25T09:31:19Z</time>
      </trkpt>
      <trkpt lat="48.10693" lon="5.41633">
        <ele>404</ele>
        <time>2018-06-25T09:31:26Z</time>
      </trkpt>
      <trkpt lat="48.1069" lon="5.41648">
        <ele>404</ele>
        <time>2018-06-25T09:31:33Z</time>
      </trkpt>
      <trkpt lat="48.10691" lon="5.41665">
        <ele>404</ele>
        <time>2018-06-25T09:31:41Z</time>
      </trkpt>
      <trkpt lat="48.1069" lon="5.4168">
        <ele>404</ele>
        <time>2018-06-25T09:31:53Z</time>
      </trkpt>
      <trkpt lat="48.10693" lon="5.41696">
        <ele>404</ele>
        <time>2018-06-25T09:32:01Z</time>
      </trkpt>
      <trkpt lat="48.10695" lon="5.41712">
        <ele>404</ele>
        <time>2018-06-25T09:32:09Z</time>
      </trkpt>
      <trkpt lat="48.10698" lon="5.41727">
        <ele>404</ele>
        <time>2018-06-25T09:32:17Z</time>
      </trkpt>
      <trkpt lat="48.10702" lon="5.41743">
        <ele>404</ele>
        <time>2018-06-25T09:32:25Z</time>
      </trkpt>
      <trkpt lat="48.10704" lon="5.4176">
        <ele>404</ele>
        <time>2018-06-25T09:32:33Z</time>
      </trkpt>
      <trkpt lat="48.10706" lon="5.41775">
        <ele>405</ele>
        <time>2018-06-25T09:32:40Z</time>
      </trkpt>
      <trkpt lat="48.10707" lon="5.4179">
        <ele>406</ele>
        <time>2018-06-25T09:32:47Z</time>
      </trkpt>
      <trkpt lat="48.10707" lon="5.41804">
        <ele>406</ele>
        <time>2018-06-25T09:32:54Z</time>
      </trkpt>
      <trkpt lat="48.10708" lon="5.41819">
        <ele>405</ele>
        <time>2018-06-25T09:33:01Z</time>
      </trkpt>
      <trkpt lat="48.10706" lon="5.41833">
        <ele>405</ele>
        <time>2018-06-25T09:33:08Z</time>
      </trkpt>
      <trkpt lat="48.10703" lon="5.41846">
        <ele>405</ele>
        <time>2018-06-25T09:33:15Z</time>
      </trkpt>
      <trkpt lat="48.10702" lon="5.4186">
        <ele>405</ele>
        <time>2018-06-25T09:33:22Z</time>
      </trkpt>
      <trkpt lat="48.107" lon="5.41874">
        <ele>405</ele>
        <time>2018-06-25T09:33:29Z</time>
      </trkpt>
      <trkpt lat="48.10699" lon="5.4189">
        <ele>405</ele>
        <time>2018-06-25T09:33:37Z</time>
      </trkpt>
      <trkpt lat="48.107" lon="5.41906">
        <ele>405</ele>
        <time>2018-06-25T09:33:45Z</time>
      </trkpt>
      <trkpt lat="48.107" lon="5.41923">
        <ele>405</ele>
        <time>2018-06-25T09:33:53Z</time>
      </trkpt>
      <trkpt lat="48.10702" lon="5.41939">
        <ele>405</ele>
        <time>2018-06-25T09:34:01Z</time>
      </trkpt>
      <trkpt lat="48.10704" lon="5.41954">
        <ele>404</ele>
        <time>2018-06-25T09:34:08Z</time>
      </trkpt>
      <trkpt lat="48.10706" lon="5.4197">
        <ele>404</ele>
        <time>2018-06-25T09:34:16Z</time>
      </trkpt>
      <trkpt lat="48.1071" lon="5.41985">
        <ele>404</ele>
        <time>2018-06-25T09:34:24Z</time>
      </trkpt>
      <trkpt lat="48.10713" lon="5.42001">
        <ele>405</ele>
        <time>2018-06-25T09:34:32Z</time>
      </trkpt>
      <trkpt lat="48.10716" lon="5.42015">
        <ele>404</ele>
        <time>2018-06-25T09:34:39Z</time>
      </trkpt>
      <trkpt lat="48.1072" lon="5.42029">
        <ele>404</ele>
        <time>2018-06-25T09:34:46Z</time>
      </trkpt>
      <trkpt lat="48.10723" lon="5.42043">
        <ele>405</ele>
        <time>2018-06-25T09:34:53Z</time>
      </trkpt>
      <trkpt lat="48.10726" lon="5.42056">
        <ele>405</ele>
        <time>2018-06-25T09:35:00Z</time>
      </trkpt>
      <trkpt lat="48.1073" lon="5.4207">
        <ele>405</ele>
        <time>2018-06-25T09:35:07Z</time>
      </trkpt>
      <trkpt lat="48.10733" lon="5.42084">
        <ele>406</ele>
        <time>2018-06-25T09:35:14Z</time>
      </trkpt>
      <trkpt lat="48.10737" lon="5.42097">
        <ele>406</ele>
        <time>2018-06-25T09:35:21Z</time>
      </trkpt>
      <trkpt lat="48.10742" lon="5.42109">
        <ele>405</ele>
        <time>2018-06-25T09:35:28Z</time>
      </trkpt>
      <trkpt lat="48.10746" lon="5.42122">
        <ele>405</ele>
        <time>2018-06-25T09:35:35Z</time>
      </trkpt>
      <trkpt lat="48.10751" lon="5.42136">
        <ele>406</ele>
        <time>2018-06-25T09:35:42Z</time>
      </trkpt>
      <trkpt lat="48.10754" lon="5.42149">
        <ele>405</ele>
        <time>2018-06-25T09:35:49Z</time>
      </trkpt>
      <trkpt lat="48.10758" lon="5.42162">
        <ele>405</ele>
        <time>2018-06-25T09:35:56Z</time>
      </trkpt>
      <trkpt lat="48.10762" lon="5.42176">
        <ele>404</ele>
        <time>2018-06-25T09:36:03Z</time>
      </trkpt>
      <trkpt lat="48.10767" lon="5.42188">
        <ele>404</ele>
        <time>2018-06-25T09:36:10Z</time>
      </trkpt>
      <trkpt lat="48.10771" lon="5.42202">
        <ele>403</ele>
        <time>2018-06-25T09:36:17Z</time>
      </trkpt>
      <trkpt lat="48.10775" lon="5.42215">
        <ele>403</ele>
        <time>2018-06-25T09:36:24Z</time>
      </trkpt>
      <trkpt lat="48.10779" lon="5.42226">
        <ele>403</ele>
        <time>2018-06-25T09:36:31Z</time>
      </trkpt>
      <trkpt lat="48.10783" lon="5.42239">
        <ele>402</ele>
        <time>2018-06-25T09:36:38Z</time>
      </trkpt>
      <trkpt lat="48.10787" lon="5.42254">
        <ele>401</ele>
        <time>2018-06-25T09:36:46Z</time>
      </trkpt>
      <trkpt lat="48.1079" lon="5.42269">
        <ele>401</ele>
        <time>2018-06-25T09:36:53Z</time>
      </trkpt>
      <trkpt lat="48.10793" lon="5.42283">
        <ele>401</ele>
        <time>2018-06-25T09:37:00Z</time>
      </trkpt>
      <trkpt lat="48.10793" lon="5.42298">
        <ele>401</ele>
        <time>2018-06-25T09:37:07Z</time>
      </trkpt>
      <trkpt lat="48.10793" lon="5.42314">
        <ele>401</ele>
        <time>2018-06-25T09:37:14Z</time>
      </trkpt>
      <trkpt lat="48.10793" lon="5.42328">
        <ele>400</ele>
        <time>2018-06-25T09:37:21Z</time>
      </trkpt>
      <trkpt lat="48.10792" lon="5.42343">
        <ele>401</ele>
        <time>2018-06-25T09:37:28Z</time>
      </trkpt>
      <trkpt lat="48.10791" lon="5.42357">
        <ele>401</ele>
        <time>2018-06-25T09:37:35Z</time>
      </trkpt>
      <trkpt lat="48.10789" lon="5.42371">
        <ele>401</ele>
        <time>2018-06-25T09:37:42Z</time>
      </trkpt>
      <trkpt lat="48.10787" lon="5.42384">
        <ele>401</ele>
        <time>2018-06-25T09:37:49Z</time>
      </trkpt>
      <trkpt lat="48.10784" lon="5.42398">
        <ele>401</ele>
        <time>2018-06-25T09:37:56Z</time>
      </trkpt>
      <trkpt lat="48.10782" lon="5.42411">
        <ele>402</ele>
        <time>2018-06-25T09:38:03Z</time>
      </trkpt>
      <trkpt lat="48.1078" lon="5.42426">
        <ele>403</ele>
        <time>2018-06-25T09:38:10Z</time>
      </trkpt>
      <trkpt lat="48.1078" lon="5.42441">
        <ele>402</ele>
        <time>2018-06-25T09:38:17Z</time>
      </trkpt>
      <trkpt lat="48.10779" lon="5.42456">
        <ele>402</ele>
        <time>2018-06-25T09:38:24Z</time>
      </trkpt>
      <trkpt lat="48.10779" lon="5.42471">
        <ele>402</ele>
        <time>2018-06-25T09:38:31Z</time>
      </trkpt>
      <trkpt lat="48.10777" lon="5.42486">
        <ele>403</ele>
        <time>2018-06-25T09:38:38Z</time>
      </trkpt>
      <trkpt lat="48.10777" lon="5.425">
        <ele>402</ele>
        <time>2018-06-25T09:38:45Z</time>
      </trkpt>
      <trkpt lat="48.10777" lon="5.42515">
        <ele>402</ele>
        <time>2018-06-25T09:38:52Z</time>
      </trkpt>
      <trkpt lat="48.10776" lon="5.42529">
        <ele>402</ele>
        <time>2018-06-25T09:38:59Z</time>
      </trkpt>
      <trkpt lat="48.10776" lon="5.42544">
        <ele>402</ele>
        <time>2018-06-25T09:39:06Z</time>
      </trkpt>
      <trkpt lat="48.10776" lon="5.42559">
        <ele>402</ele>
        <time>2018-06-25T09:39:13Z</time>
      </trkpt>
      <trkpt lat="48.10775" lon="5.42573">
        <ele>402</ele>
        <time>2018-06-25T09:39:20Z</time>
      </trkpt>
      <trkpt lat="48.10776" lon="5.42587">
        <ele>402</ele>
        <time>2018-06-25T09:39:27Z</time>
      </trkpt>
      <trkpt lat="48.10776" lon="5.42601">
        <ele>402</ele>
        <time>2018-06-25T09:39:34Z</time>
      </trkpt>
      <trkpt lat="48.10776" lon="5.42615">
        <ele>401</ele>
        <time>2018-06-25T09:39:41Z</time>
      </trkpt>
      <trkpt lat="48.10776" lon="5.42628">
        <ele>401</ele>
        <time>2018-06-25T09:39:48Z</time>
      </trkpt>
      <trkpt lat="48.10778" lon="5.42641">
        <ele>401</ele>
        <time>2018-06-25T09:39:55Z</time>
      </trkpt>
      <trkpt lat="48.10778" lon="5.42655">
        <ele>400</ele>
        <time>2018-06-25T09:40:02Z</time>
      </trkpt>
      <trkpt lat="48.10776" lon="5.42668">
        <ele>401</ele>
        <time>2018-06-25T09:40:09Z</time>
      </trkpt>
      <trkpt lat="48.10776" lon="5.42681">
        <ele>401</ele>
        <time>2018-06-25T09:40:17Z</time>
      </trkpt>
      <trkpt lat="48.10771" lon="5.42695">
        <ele>400</ele>
        <time>2018-06-25T09:40:24Z</time>
      </trkpt>
      <trkpt lat="48.10764" lon="5.42707">
        <ele>400</ele>
        <time>2018-06-25T09:40:32Z</time>
      </trkpt>
      <trkpt lat="48.10756" lon="5.42717">
        <ele>401</ele>
        <time>2018-06-25T09:40:41Z</time>
      </trkpt>
      <trkpt lat="48.10749" lon="5.42724">
        <ele>400</ele>
        <time>2018-06-25T09:41:06Z</time>
      </trkpt>
      <trkpt lat="48.10744" lon="5.42742">
        <ele>399</ele>
        <time>2018-06-25T09:41:17Z</time>
      </trkpt>
      <trkpt lat="48.10739" lon="5.42761">
        <ele>399</ele>
        <time>2018-06-25T09:41:28Z</time>
      </trkpt>
      <trkpt lat="48.10741" lon="5.42775">
        <ele>399</ele>
        <time>2018-06-25T09:41:40Z</time>
      </trkpt>
      <trkpt lat="48.10738" lon="5.42795">
        <ele>398</ele>
        <time>2018-06-25T09:41:53Z</time>
      </trkpt>
      <trkpt lat="48.10728" lon="5.42821">
        <ele>397</ele>
        <time>2018-06-25T09:42:06Z</time>
      </trkpt>
      <trkpt lat="48.10714" lon="5.4285">
        <ele>397</ele>
        <time>2018-06-25T09:42:18Z</time>
      </trkpt>
      <trkpt lat="48.10706" lon="5.42873">
        <ele>396</ele>
        <time>2018-06-25T09:42:32Z</time>
      </trkpt>
      <trkpt lat="48.10694" lon="5.4289">
        <ele>396</ele>
        <time>2018-06-25T09:42:41Z</time>
      </trkpt>
      <trkpt lat="48.10682" lon="5.42905">
        <ele>396</ele>
        <time>2018-06-25T09:42:56Z</time>
      </trkpt>
      <trkpt lat="48.1067" lon="5.42919">
        <ele>397</ele>
        <time>2018-06-25T09:43:08Z</time>
      </trkpt>
      <trkpt lat="48.10656" lon="5.42928">
        <ele>398</ele>
        <time>2018-06-25T09:43:20Z</time>
      </trkpt>
      <trkpt lat="48.10642" lon="5.42936">
        <ele>399</ele>
        <time>2018-06-25T09:43:30Z</time>
      </trkpt>
      <trkpt lat="48.1063" lon="5.42945">
        <ele>399</ele>
        <time>2018-06-25T09:43:38Z</time>
      </trkpt>
      <trkpt lat="48.10617" lon="5.42952">
        <ele>399</ele>
        <time>2018-06-25T09:43:47Z</time>
      </trkpt>
      <trkpt lat="48.10606" lon="5.42961">
        <ele>401</ele>
        <time>2018-06-25T09:43:56Z</time>
      </trkpt>
      <trkpt lat="48.10599" lon="5.42971">
        <ele>402</ele>
        <time>2018-06-25T09:44:05Z</time>
      </trkpt>
      <trkpt lat="48.1059" lon="5.42982">
        <ele>402</ele>
        <time>2018-06-25T09:44:16Z</time>
      </trkpt>
      <trkpt lat="48.10582" lon="5.42998">
        <ele>404</ele>
        <time>2018-06-25T09:44:26Z</time>
      </trkpt>
      <trkpt lat="48.10574" lon="5.43013">
        <ele>404</ele>
        <time>2018-06-25T09:44:39Z</time>
      </trkpt>
      <trkpt lat="48.10565" lon="5.43028">
        <ele>405</ele>
        <time>2018-06-25T09:44:50Z</time>
      </trkpt>
      <trkpt lat="48.10556" lon="5.43043">
        <ele>407</ele>
        <time>2018-06-25T09:45:01Z</time>
      </trkpt>
      <trkpt lat="48.10544" lon="5.4306">
        <ele>407</ele>
        <time>2018-06-25T09:45:12Z</time>
      </trkpt>
      <trkpt lat="48.10537" lon="5.43076">
        <ele>408</ele>
        <time>2018-06-25T09:45:21Z</time>
      </trkpt>
      <trkpt lat="48.10528" lon="5.43089">
        <ele>408</ele>
        <time>2018-06-25T09:45:29Z</time>
      </trkpt>
      <trkpt lat="48.1052" lon="5.43102">
        <ele>409</ele>
        <time>2018-06-25T09:45:37Z</time>
      </trkpt>
      <trkpt lat="48.10514" lon="5.43115">
        <ele>410</ele>
        <time>2018-06-25T09:45:45Z</time>
      </trkpt>
      <trkpt lat="48.10508" lon="5.43127">
        <ele>410</ele>
        <time>2018-06-25T09:45:52Z</time>
      </trkpt>
      <trkpt lat="48.10502" lon="5.43138">
        <ele>410</ele>
        <time>2018-06-25T09:45:59Z</time>
      </trkpt>
      <trkpt lat="48.10495" lon="5.43149">
        <ele>410</ele>
        <time>2018-06-25T09:46:07Z</time>
      </trkpt>
      <trkpt lat="48.10488" lon="5.4316">
        <ele>411</ele>
        <time>2018-06-25T09:46:14Z</time>
      </trkpt>
      <trkpt lat="48.10482" lon="5.4317">
        <ele>411</ele>
        <time>2018-06-25T09:46:21Z</time>
      </trkpt>
      <trkpt lat="48.10475" lon="5.43183">
        <ele>412</ele>
        <time>2018-06-25T09:46:29Z</time>
      </trkpt>
      <trkpt lat="48.10469" lon="5.43195">
        <ele>412</ele>
        <time>2018-06-25T09:46:38Z</time>
      </trkpt>
      <trkpt lat="48.10463" lon="5.43207">
        <ele>412</ele>
        <time>2018-06-25T09:46:45Z</time>
      </trkpt>
      <trkpt lat="48.10457" lon="5.43219">
        <ele>413</ele>
        <time>2018-06-25T09:46:52Z</time>
      </trkpt>
      <trkpt lat="48.10451" lon="5.4323">
        <ele>413</ele>
        <time>2018-06-25T09:46:59Z</time>
      </trkpt>
      <trkpt lat="48.10446" lon="5.43242">
        <ele>413</ele>
        <time>2018-06-25T09:47:06Z</time>
      </trkpt>
      <trkpt lat="48.1044" lon="5.43254">
        <ele>413</ele>
        <time>2018-06-25T09:47:13Z</time>
      </trkpt>
      <trkpt lat="48.10435" lon="5.43265">
        <ele>413</ele>
        <time>2018-06-25T09:47:20Z</time>
      </trkpt>
      <trkpt lat="48.10429" lon="5.43276">
        <ele>414</ele>
        <time>2018-06-25T09:47:27Z</time>
      </trkpt>
      <trkpt lat="48.10424" lon="5.43288">
        <ele>414</ele>
        <time>2018-06-25T09:47:34Z</time>
      </trkpt>
      <trkpt lat="48.10418" lon="5.43299">
        <ele>415</ele>
        <time>2018-06-25T09:47:41Z</time>
      </trkpt>
      <trkpt lat="48.10412" lon="5.4331">
        <ele>415</ele>
        <time>2018-06-25T09:47:48Z</time>
      </trkpt>
      <trkpt lat="48.10407" lon="5.43321">
        <ele>415</ele>
        <time>2018-06-25T09:47:56Z</time>
      </trkpt>
      <trkpt lat="48.10401" lon="5.43333">
        <ele>415</ele>
        <time>2018-06-25T09:48:04Z</time>
      </trkpt>
      <trkpt lat="48.10396" lon="5.43346">
        <ele>416</ele>
        <time>2018-06-25T09:48:13Z</time>
      </trkpt>
      <trkpt lat="48.10391" lon="5.43359">
        <ele>417</ele>
        <time>2018-06-25T09:48:22Z</time>
      </trkpt>
      <trkpt lat="48.10387" lon="5.43373">
        <ele>418</ele>
        <time>2018-06-25T09:48:30Z</time>
      </trkpt>
      <trkpt lat="48.10381" lon="5.43387">
        <ele>418</ele>
        <time>2018-06-25T09:48:37Z</time>
      </trkpt>
      <trkpt lat="48.10376" lon="5.43402">
        <ele>418</ele>
        <time>2018-06-25T09:48:44Z</time>
      </trkpt>
      <trkpt lat="48.1037" lon="5.43412">
        <ele>418</ele>
        <time>2018-06-25T09:48:51Z</time>
      </trkpt>
      <trkpt lat="48.10365" lon="5.43426">
        <ele>419</ele>
        <time>2018-06-25T09:48:59Z</time>
      </trkpt>
      <trkpt lat="48.1036" lon="5.43439">
        <ele>420</ele>
        <time>2018-06-25T09:49:06Z</time>
      </trkpt>
      <trkpt lat="48.10355" lon="5.43451">
        <ele>421</ele>
        <time>2018-06-25T09:49:13Z</time>
      </trkpt>
      <trkpt lat="48.1035" lon="5.43464">
        <ele>421</ele>
        <time>2018-06-25T09:49:21Z</time>
      </trkpt>
      <trkpt lat="48.10344" lon="5.43476">
        <ele>422</ele>
        <time>2018-06-25T09:49:29Z</time>
      </trkpt>
      <trkpt lat="48.10337" lon="5.43488">
        <ele>422</ele>
        <time>2018-06-25T09:49:37Z</time>
      </trkpt>
      <trkpt lat="48.10332" lon="5.43502">
        <ele>423</ele>
        <time>2018-06-25T09:49:46Z</time>
      </trkpt>
      <trkpt lat="48.10327" lon="5.43516">
        <ele>424</ele>
        <time>2018-06-25T09:49:55Z</time>
      </trkpt>
      <trkpt lat="48.1032" lon="5.43529">
        <ele>425</ele>
        <time>2018-06-25T09:50:04Z</time>
      </trkpt>
      <trkpt lat="48.10315" lon="5.43543">
        <ele>426</ele>
        <time>2018-06-25T09:50:13Z</time>
      </trkpt>
      <trkpt lat="48.10308" lon="5.43559">
        <ele>426</ele>
        <time>2018-06-25T09:50:22Z</time>
      </trkpt>
      <trkpt lat="48.10302" lon="5.43574">
        <ele>426</ele>
        <time>2018-06-25T09:50:31Z</time>
      </trkpt>
      <trkpt lat="48.10296" lon="5.43586">
        <ele>427</ele>
        <time>2018-06-25T09:50:40Z</time>
      </trkpt>
      <trkpt lat="48.10289" lon="5.43603">
        <ele>428</ele>
        <time>2018-06-25T09:50:49Z</time>
      </trkpt>
      <trkpt lat="48.10283" lon="5.43615">
        <ele>429</ele>
        <time>2018-06-25T09:50:57Z</time>
      </trkpt>
      <trkpt lat="48.10276" lon="5.43628">
        <ele>430</ele>
        <time>2018-06-25T09:51:05Z</time>
      </trkpt>
      <trkpt lat="48.10269" lon="5.4364">
        <ele>430</ele>
        <time>2018-06-25T09:51:13Z</time>
      </trkpt>
      <trkpt lat="48.10263" lon="5.43651">
        <ele>431</ele>
        <time>2018-06-25T09:51:21Z</time>
      </trkpt>
      <trkpt lat="48.10256" lon="5.43663">
        <ele>431</ele>
        <time>2018-06-25T09:51:29Z</time>
      </trkpt>
      <trkpt lat="48.10249" lon="5.43674">
        <ele>432</ele>
        <time>2018-06-25T09:51:37Z</time>
      </trkpt>
      <trkpt lat="48.10243" lon="5.43685">
        <ele>433</ele>
        <time>2018-06-25T09:51:45Z</time>
      </trkpt>
      <trkpt lat="48.10236" lon="5.43696">
        <ele>434</ele>
        <time>2018-06-25T09:51:53Z</time>
      </trkpt>
      <trkpt lat="48.1023" lon="5.43707">
        <ele>434</ele>
        <time>2018-06-25T09:52:01Z</time>
      </trkpt>
      <trkpt lat="48.10223" lon="5.43718">
        <ele>435</ele>
        <time>2018-06-25T09:52:09Z</time>
      </trkpt>
      <trkpt lat="48.10217" lon="5.4373">
        <ele>436</ele>
        <time>2018-06-25T09:52:17Z</time>
      </trkpt>
      <trkpt lat="48.1021" lon="5.43741">
        <ele>437</ele>
        <time>2018-06-25T09:52:25Z</time>
      </trkpt>
      <trkpt lat="48.10204" lon="5.43752">
        <ele>438</ele>
        <time>2018-06-25T09:52:33Z</time>
      </trkpt>
      <trkpt lat="48.10199" lon="5.43764">
        <ele>438</ele>
        <time>2018-06-25T09:52:40Z</time>
      </trkpt>
      <trkpt lat="48.10193" lon="5.43776">
        <ele>439</ele>
        <time>2018-06-25T09:52:48Z</time>
      </trkpt>
      <trkpt lat="48.10188" lon="5.43788">
        <ele>439</ele>
        <time>2018-06-25T09:52:56Z</time>
      </trkpt>
      <trkpt lat="48.10183" lon="5.43799">
        <ele>439</ele>
        <time>2018-06-25T09:53:03Z</time>
      </trkpt>
      <trkpt lat="48.10176" lon="5.43811">
        <ele>440</ele>
        <time>2018-06-25T09:53:11Z</time>
      </trkpt>
      <trkpt lat="48.1017" lon="5.43822">
        <ele>440</ele>
        <time>2018-06-25T09:53:19Z</time>
      </trkpt>
      <trkpt lat="48.10165" lon="5.43834">
        <ele>440</ele>
        <time>2018-06-25T09:53:26Z</time>
      </trkpt>
      <trkpt lat="48.10159" lon="5.43846">
        <ele>441</ele>
        <time>2018-06-25T09:53:34Z</time>
      </trkpt>
      <trkpt lat="48.10154" lon="5.43858">
        <ele>441</ele>
        <time>2018-06-25T09:53:42Z</time>
      </trkpt>
      <trkpt lat="48.10149" lon="5.43871">
        <ele>442</ele>
        <time>2018-06-25T09:53:50Z</time>
      </trkpt>
      <trkpt lat="48.10144" lon="5.43883">
        <ele>442</ele>
        <time>2018-06-25T09:53:57Z</time>
      </trkpt>
      <trkpt lat="48.1014" lon="5.43895">
        <ele>442</ele>
        <time>2018-06-25T09:54:04Z</time>
      </trkpt>
      <trkpt lat="48.10137" lon="5.43909">
        <ele>442</ele>
        <time>2018-06-25T09:54:12Z</time>
      </trkpt>
      <trkpt lat="48.10133" lon="5.43921">
        <ele>443</ele>
        <time>2018-06-25T09:54:20Z</time>
      </trkpt>
      <trkpt lat="48.10129" lon="5.43934">
        <ele>442</ele>
        <time>2018-06-25T09:54:27Z</time>
      </trkpt>
      <trkpt lat="48.10124" lon="5.43947">
        <ele>442</ele>
        <time>2018-06-25T09:54:34Z</time>
      </trkpt>
      <trkpt lat="48.1012" lon="5.43961">
        <ele>442</ele>
        <time>2018-06-25T09:54:42Z</time>
      </trkpt>
      <trkpt lat="48.10115" lon="5.43974">
        <ele>442</ele>
        <time>2018-06-25T09:54:50Z</time>
      </trkpt>
      <trkpt lat="48.1011" lon="5.43986">
        <ele>442</ele>
        <time>2018-06-25T09:54:57Z</time>
      </trkpt>
      <trkpt lat="48.10104" lon="5.43998">
        <ele>442</ele>
        <time>2018-06-25T09:55:05Z</time>
      </trkpt>
      <trkpt lat="48.10098" lon="5.44009">
        <ele>441</ele>
        <time>2018-06-25T09:55:12Z</time>
      </trkpt>
      <trkpt lat="48.10092" lon="5.4402">
        <ele>440</ele>
        <time>2018-06-25T09:55:20Z</time>
      </trkpt>
      <trkpt lat="48.10086" lon="5.44031">
        <ele>440</ele>
        <time>2018-06-25T09:55:28Z</time>
      </trkpt>
      <trkpt lat="48.10086" lon="5.44044">
        <ele>440</ele>
        <time>2018-06-25T09:55:38Z</time>
      </trkpt>
      <trkpt lat="48.10085" lon="5.44039">
        <ele>441</ele>
        <time>2018-06-25T09:56:01Z</time>
      </trkpt>
      <trkpt lat="48.10076" lon="5.44046">
        <ele>440</ele>
        <time>2018-06-25T09:57:53Z</time>
      </trkpt>
      <trkpt lat="48.10071" lon="5.44057">
        <ele>439</ele>
        <time>2018-06-25T09:58:11Z</time>
      </trkpt>
      <trkpt lat="48.10064" lon="5.44067">
        <ele>439</ele>
        <time>2018-06-25T09:58:17Z</time>
      </trkpt>
      <trkpt lat="48.10058" lon="5.44077">
        <ele>439</ele>
        <time>2018-06-25T09:58:24Z</time>
      </trkpt>
      <trkpt lat="48.10051" lon="5.44087">
        <ele>438</ele>
        <time>2018-06-25T09:58:31Z</time>
      </trkpt>
      <trkpt lat="48.10045" lon="5.44098">
        <ele>438</ele>
        <time>2018-06-25T09:58:38Z</time>
      </trkpt>
      <trkpt lat="48.10038" lon="5.44109">
        <ele>438</ele>
        <time>2018-06-25T09:58:45Z</time>
      </trkpt>
      <trkpt lat="48.10033" lon="5.44122">
        <ele>437</ele>
        <time>2018-06-25T09:58:52Z</time>
      </trkpt>
      <trkpt lat="48.10027" lon="5.44135">
        <ele>435</ele>
        <time>2018-06-25T09:58:59Z</time>
      </trkpt>
      <trkpt lat="48.10024" lon="5.44148">
        <ele>435</ele>
        <time>2018-06-25T09:59:05Z</time>
      </trkpt>
      <trkpt lat="48.1002" lon="5.44161">
        <ele>435</ele>
        <time>2018-06-25T09:59:12Z</time>
      </trkpt>
      <trkpt lat="48.10015" lon="5.44173">
        <ele>434</ele>
        <time>2018-06-25T09:59:19Z</time>
      </trkpt>
      <trkpt lat="48.10011" lon="5.44187">
        <ele>433</ele>
        <time>2018-06-25T09:59:26Z</time>
      </trkpt>
      <trkpt lat="48.10006" lon="5.442">
        <ele>432</ele>
        <time>2018-06-25T09:59:33Z</time>
      </trkpt>
      <trkpt lat="48.10001" lon="5.44212">
        <ele>432</ele>
        <time>2018-06-25T09:59:40Z</time>
      </trkpt>
      <trkpt lat="48.09995" lon="5.44225">
        <ele>431</ele>
        <time>2018-06-25T09:59:47Z</time>
      </trkpt>
      <trkpt lat="48.0999" lon="5.44237">
        <ele>430</ele>
        <time>2018-06-25T09:59:54Z</time>
      </trkpt>
      <trkpt lat="48.09985" lon="5.44249">
        <ele>429</ele>
        <time>2018-06-25T10:00:01Z</time>
      </trkpt>
      <trkpt lat="48.09978" lon="5.44261">
        <ele>428</ele>
        <time>2018-06-25T10:00:08Z</time>
      </trkpt>
      <trkpt lat="48.09972" lon="5.44272">
        <ele>428</ele>
        <time>2018-06-25T10:00:15Z</time>
      </trkpt>
      <trkpt lat="48.09965" lon="5.44282">
        <ele>427</ele>
        <time>2018-06-25T10:00:22Z</time>
      </trkpt>
      <trkpt lat="48.09957" lon="5.44291">
        <ele>427</ele>
        <time>2018-06-25T10:00:29Z</time>
      </trkpt>
      <trkpt lat="48.09949" lon="5.44299">
        <ele>426</ele>
        <time>2018-06-25T10:00:36Z</time>
      </trkpt>
      <trkpt lat="48.09941" lon="5.44306">
        <ele>426</ele>
        <time>2018-06-25T10:00:43Z</time>
      </trkpt>
      <trkpt lat="48.09932" lon="5.44312">
        <ele>426</ele>
        <time>2018-06-25T10:00:50Z</time>
      </trkpt>
      <trkpt lat="48.09923" lon="5.44319">
        <ele>426</ele>
        <time>2018-06-25T10:00:57Z</time>
      </trkpt>
      <trkpt lat="48.09914" lon="5.44325">
        <ele>425</ele>
        <time>2018-06-25T10:01:04Z</time>
      </trkpt>
      <trkpt lat="48.09905" lon="5.44331">
        <ele>425</ele>
        <time>2018-06-25T10:01:11Z</time>
      </trkpt>
      <trkpt lat="48.09896" lon="5.44337">
        <ele>424</ele>
        <time>2018-06-25T10:01:18Z</time>
      </trkpt>
      <trkpt lat="48.09887" lon="5.44343">
        <ele>423</ele>
        <time>2018-06-25T10:01:25Z</time>
      </trkpt>
      <trkpt lat="48.09878" lon="5.44349">
        <ele>423</ele>
        <time>2018-06-25T10:01:32Z</time>
      </trkpt>
      <trkpt lat="48.09869" lon="5.44354">
        <ele>423</ele>
        <time>2018-06-25T10:01:39Z</time>
      </trkpt>
      <trkpt lat="48.0986" lon="5.4436">
        <ele>422</ele>
        <time>2018-06-25T10:01:46Z</time>
      </trkpt>
      <trkpt lat="48.0985" lon="5.44364">
        <ele>422</ele>
        <time>2018-06-25T10:01:53Z</time>
      </trkpt>
      <trkpt lat="48.09841" lon="5.44368">
        <ele>422</ele>
        <time>2018-06-25T10:02:00Z</time>
      </trkpt>
      <trkpt lat="48.09832" lon="5.44372">
        <ele>422</ele>
        <time>2018-06-25T10:02:06Z</time>
      </trkpt>
      <trkpt lat="48.09823" lon="5.44375">
        <ele>421</ele>
        <time>2018-06-25T10:02:13Z</time>
      </trkpt>
      <trkpt lat="48.09813" lon="5.44376">
        <ele>420</ele>
        <time>2018-06-25T10:02:20Z</time>
      </trkpt>
      <trkpt lat="48.09804" lon="5.44377">
        <ele>420</ele>
        <time>2018-06-25T10:02:27Z</time>
      </trkpt>
      <trkpt lat="48.09793" lon="5.44377">
        <ele>419</ele>
        <time>2018-06-25T10:02:35Z</time>
      </trkpt>
      <trkpt lat="48.09783" lon="5.44376">
        <ele>418</ele>
        <time>2018-06-25T10:02:42Z</time>
      </trkpt>
      <trkpt lat="48.09774" lon="5.44374">
        <ele>418</ele>
        <time>2018-06-25T10:02:49Z</time>
      </trkpt>
      <trkpt lat="48.09764" lon="5.4437">
        <ele>417</ele>
        <time>2018-06-25T10:02:57Z</time>
      </trkpt>
      <trkpt lat="48.09753" lon="5.44364">
        <ele>416</ele>
        <time>2018-06-25T10:03:05Z</time>
      </trkpt>
      <trkpt lat="48.09744" lon="5.44359">
        <ele>415</ele>
        <time>2018-06-25T10:03:12Z</time>
      </trkpt>
      <trkpt lat="48.09735" lon="5.44353">
        <ele>414</ele>
        <time>2018-06-25T10:03:19Z</time>
      </trkpt>
      <trkpt lat="48.09726" lon="5.44343">
        <ele>413</ele>
        <time>2018-06-25T10:03:27Z</time>
      </trkpt>
      <trkpt lat="48.09718" lon="5.44332">
        <ele>413</ele>
        <time>2018-06-25T10:03:36Z</time>
      </trkpt>
      <trkpt lat="48.09712" lon="5.44319">
        <ele>412</ele>
        <time>2018-06-25T10:03:44Z</time>
      </trkpt>
      <trkpt lat="48.09707" lon="5.44304">
        <ele>411</ele>
        <time>2018-06-25T10:03:52Z</time>
      </trkpt>
      <trkpt lat="48.09701" lon="5.44287">
        <ele>410</ele>
        <time>2018-06-25T10:04:02Z</time>
      </trkpt>
      <trkpt lat="48.09693" lon="5.4427">
        <ele>409</ele>
        <time>2018-06-25T10:04:11Z</time>
      </trkpt>
      <trkpt lat="48.09686" lon="5.44253">
        <ele>408</ele>
        <time>2018-06-25T10:04:20Z</time>
      </trkpt>
      <trkpt lat="48.09678" lon="5.44237">
        <ele>406</ele>
        <time>2018-06-25T10:04:30Z</time>
      </trkpt>
      <trkpt lat="48.09669" lon="5.44223">
        <ele>406</ele>
        <time>2018-06-25T10:04:38Z</time>
      </trkpt>
      <trkpt lat="48.09662" lon="5.44212">
        <ele>404</ele>
        <time>2018-06-25T10:04:46Z</time>
      </trkpt>
      <trkpt lat="48.09654" lon="5.44201">
        <ele>403</ele>
        <time>2018-06-25T10:04:55Z</time>
      </trkpt>
      <trkpt lat="48.09645" lon="5.44189">
        <ele>401</ele>
        <time>2018-06-25T10:05:03Z</time>
      </trkpt>
      <trkpt lat="48.09634" lon="5.44177">
        <ele>401</ele>
        <time>2018-06-25T10:05:11Z</time>
      </trkpt>
      <trkpt lat="48.09627" lon="5.44166">
        <ele>400</ele>
        <time>2018-06-25T10:05:19Z</time>
      </trkpt>
      <trkpt lat="48.09621" lon="5.44155">
        <ele>398</ele>
        <time>2018-06-25T10:05:27Z</time>
      </trkpt>
      <trkpt lat="48.09614" lon="5.44144">
        <ele>398</ele>
        <time>2018-06-25T10:05:35Z</time>
      </trkpt>
      <trkpt lat="48.09606" lon="5.44129">
        <ele>397</ele>
        <time>2018-06-25T10:05:44Z</time>
      </trkpt>
      <trkpt lat="48.09598" lon="5.44116">
        <ele>396</ele>
        <time>2018-06-25T10:05:53Z</time>
      </trkpt>
      <trkpt lat="48.09592" lon="5.44102">
        <ele>395</ele>
        <time>2018-06-25T10:06:02Z</time>
      </trkpt>
      <trkpt lat="48.09586" lon="5.44092">
        <ele>395</ele>
        <time>2018-06-25T10:06:12Z</time>
      </trkpt>
      <trkpt lat="48.09578" lon="5.44105">
        <ele>393</ele>
        <time>2018-06-25T10:06:20Z</time>
      </trkpt>
      <trkpt lat="48.09573" lon="5.44119">
        <ele>393</ele>
        <time>2018-06-25T10:06:27Z</time>
      </trkpt>
      <trkpt lat="48.09568" lon="5.44133">
        <ele>393</ele>
        <time>2018-06-25T10:06:35Z</time>
      </trkpt>
      <trkpt lat="48.09562" lon="5.44146">
        <ele>392</ele>
        <time>2018-06-25T10:06:43Z</time>
      </trkpt>
      <trkpt lat="48.09557" lon="5.44158">
        <ele>393</ele>
        <time>2018-06-25T10:06:51Z</time>
      </trkpt>
      <trkpt lat="48.09549" lon="5.44169">
        <ele>392</ele>
        <time>2018-06-25T10:06:59Z</time>
      </trkpt>
      <trkpt lat="48.09542" lon="5.44182">
        <ele>392</ele>
        <time>2018-06-25T10:07:08Z</time>
      </trkpt>
      <trkpt lat="48.09535" lon="5.44195">
        <ele>392</ele>
        <time>2018-06-25T10:07:18Z</time>
      </trkpt>
      <trkpt lat="48.09529" lon="5.44209">
        <ele>392</ele>
        <time>2018-06-25T10:07:27Z</time>
      </trkpt>
      <trkpt lat="48.09522" lon="5.44225">
        <ele>392</ele>
        <time>2018-06-25T10:07:36Z</time>
      </trkpt>
      <trkpt lat="48.09515" lon="5.44243">
        <ele>392</ele>
        <time>2018-06-25T10:07:45Z</time>
      </trkpt>
      <trkpt lat="48.0951" lon="5.44258">
        <ele>392</ele>
        <time>2018-06-25T10:07:55Z</time>
      </trkpt>
      <trkpt lat="48.09505" lon="5.44272">
        <ele>392</ele>
        <time>2018-06-25T10:08:03Z</time>
      </trkpt>
      <trkpt lat="48.09497" lon="5.44286">
        <ele>392</ele>
        <time>2018-06-25T10:08:12Z</time>
      </trkpt>
      <trkpt lat="48.09488" lon="5.44296">
        <ele>392</ele>
        <time>2018-06-25T10:08:21Z</time>
      </trkpt>
      <trkpt lat="48.09481" lon="5.44312">
        <ele>392</ele>
        <time>2018-06-25T10:08:30Z</time>
      </trkpt>
      <trkpt lat="48.09472" lon="5.44327">
        <ele>393</ele>
        <time>2018-06-25T10:08:39Z</time>
      </trkpt>
      <trkpt lat="48.09465" lon="5.44344">
        <ele>393</ele>
        <time>2018-06-25T10:08:47Z</time>
      </trkpt>
      <trkpt lat="48.09462" lon="5.44359">
        <ele>394</ele>
        <time>2018-06-25T10:08:54Z</time>
      </trkpt>
      <trkpt lat="48.09458" lon="5.44372">
        <ele>395</ele>
        <time>2018-06-25T10:09:02Z</time>
      </trkpt>
      <trkpt lat="48.0945" lon="5.44388">
        <ele>396</ele>
        <time>2018-06-25T10:09:11Z</time>
      </trkpt>
      <trkpt lat="48.09442" lon="5.44402">
        <ele>396</ele>
        <time>2018-06-25T10:09:20Z</time>
      </trkpt>
      <trkpt lat="48.09436" lon="5.44416">
        <ele>397</ele>
        <time>2018-06-25T10:09:28Z</time>
      </trkpt>
      <trkpt lat="48.0943" lon="5.44431">
        <ele>397</ele>
        <time>2018-06-25T10:09:36Z</time>
      </trkpt>
      <trkpt lat="48.09424" lon="5.44444">
        <ele>398</ele>
        <time>2018-06-25T10:09:44Z</time>
      </trkpt>
      <trkpt lat="48.09418" lon="5.44455">
        <ele>398</ele>
        <time>2018-06-25T10:09:52Z</time>
      </trkpt>
      <trkpt lat="48.09412" lon="5.44469">
        <ele>398</ele>
        <time>2018-06-25T10:10:00Z</time>
      </trkpt>
      <trkpt lat="48.09405" lon="5.44479">
        <ele>398</ele>
        <time>2018-06-25T10:10:08Z</time>
      </trkpt>
      <trkpt lat="48.09397" lon="5.44492">
        <ele>398</ele>
        <time>2018-06-25T10:10:16Z</time>
      </trkpt>
      <trkpt lat="48.0939" lon="5.44505">
        <ele>399</ele>
        <time>2018-06-25T10:10:24Z</time>
      </trkpt>
      <trkpt lat="48.09383" lon="5.44515">
        <ele>399</ele>
        <time>2018-06-25T10:10:32Z</time>
      </trkpt>
      <trkpt lat="48.09376" lon="5.44529">
        <ele>400</ele>
        <time>2018-06-25T10:10:40Z</time>
      </trkpt>
      <trkpt lat="48.09368" lon="5.4454">
        <ele>399</ele>
        <time>2018-06-25T10:10:48Z</time>
      </trkpt>
      <trkpt lat="48.09361" lon="5.4455">
        <ele>400</ele>
        <time>2018-06-25T10:10:55Z</time>
      </trkpt>
      <trkpt lat="48.09353" lon="5.44559">
        <ele>399</ele>
        <time>2018-06-25T10:11:02Z</time>
      </trkpt>
      <trkpt lat="48.09345" lon="5.4457">
        <ele>399</ele>
        <time>2018-06-25T10:11:10Z</time>
      </trkpt>
      <trkpt lat="48.09337" lon="5.44581">
        <ele>399</ele>
        <time>2018-06-25T10:11:18Z</time>
      </trkpt>
      <trkpt lat="48.0933" lon="5.44592">
        <ele>399</ele>
        <time>2018-06-25T10:11:26Z</time>
      </trkpt>
      <trkpt lat="48.09322" lon="5.44604">
        <ele>400</ele>
        <time>2018-06-25T10:11:34Z</time>
      </trkpt>
      <trkpt lat="48.09316" lon="5.44617">
        <ele>399</ele>
        <time>2018-06-25T10:11:41Z</time>
      </trkpt>
      <trkpt lat="48.09311" lon="5.4463">
        <ele>399</ele>
        <time>2018-06-25T10:11:48Z</time>
      </trkpt>
      <trkpt lat="48.09306" lon="5.44643">
        <ele>399</ele>
        <time>2018-06-25T10:11:55Z</time>
      </trkpt>
      <trkpt lat="48.09303" lon="5.44658">
        <ele>399</ele>
        <time>2018-06-25T10:12:02Z</time>
      </trkpt>
      <trkpt lat="48.09301" lon="5.44673">
        <ele>400</ele>
        <time>2018-06-25T10:12:09Z</time>
      </trkpt>
      <trkpt lat="48.093" lon="5.4469">
        <ele>400</ele>
        <time>2018-06-25T10:12:17Z</time>
      </trkpt>
      <trkpt lat="48.09299" lon="5.44707">
        <ele>401</ele>
        <time>2018-06-25T10:12:25Z</time>
      </trkpt>
      <trkpt lat="48.093" lon="5.44723">
        <ele>401</ele>
        <time>2018-06-25T10:12:33Z</time>
      </trkpt>
      <trkpt lat="48.09302" lon="5.44738">
        <ele>401</ele>
        <time>2018-06-25T10:12:42Z</time>
      </trkpt>
      <trkpt lat="48.09304" lon="5.44753">
        <ele>402</ele>
        <time>2018-06-25T10:12:50Z</time>
      </trkpt>
      <trkpt lat="48.09303" lon="5.44768">
        <ele>403</ele>
        <time>2018-06-25T10:12:58Z</time>
      </trkpt>
      <trkpt lat="48.09301" lon="5.44786">
        <ele>403</ele>
        <time>2018-06-25T10:13:06Z</time>
      </trkpt>
      <trkpt lat="48.093" lon="5.44802">
        <ele>403</ele>
        <time>2018-06-25T10:13:15Z</time>
      </trkpt>
      <trkpt lat="48.09303" lon="5.4482">
        <ele>404</ele>
        <time>2018-06-25T10:13:25Z</time>
      </trkpt>
      <trkpt lat="48.09306" lon="5.44837">
        <ele>404</ele>
        <time>2018-06-25T10:13:34Z</time>
      </trkpt>
      <trkpt lat="48.09306" lon="5.44853">
        <ele>404</ele>
        <time>2018-06-25T10:13:42Z</time>
      </trkpt>
      <trkpt lat="48.09306" lon="5.44869">
        <ele>404</ele>
        <time>2018-06-25T10:13:49Z</time>
      </trkpt>
      <trkpt lat="48.09305" lon="5.44886">
        <ele>404</ele>
        <time>2018-06-25T10:13:56Z</time>
      </trkpt>
      <trkpt lat="48.09304" lon="5.44901">
        <ele>404</ele>
        <time>2018-06-25T10:14:03Z</time>
      </trkpt>
      <trkpt lat="48.09306" lon="5.44916">
        <ele>404</ele>
        <time>2018-06-25T10:14:10Z</time>
      </trkpt>
      <trkpt lat="48.09307" lon="5.44931">
        <ele>404</ele>
        <time>2018-06-25T10:14:17Z</time>
      </trkpt>
      <trkpt lat="48.09307" lon="5.44946">
        <ele>404</ele>
        <time>2018-06-25T10:14:25Z</time>
      </trkpt>
      <trkpt lat="48.09311" lon="5.4496">
        <ele>405</ele>
        <time>2018-06-25T10:14:33Z</time>
      </trkpt>
      <trkpt lat="48.09315" lon="5.44974">
        <ele>405</ele>
        <time>2018-06-25T10:14:41Z</time>
      </trkpt>
      <trkpt lat="48.09316" lon="5.44991">
        <ele>405</ele>
        <time>2018-06-25T10:14:50Z</time>
      </trkpt>
      <trkpt lat="48.09313" lon="5.45011">
        <ele>406</ele>
        <time>2018-06-25T10:14:58Z</time>
      </trkpt>
      <trkpt lat="48.0931" lon="5.45027">
        <ele>405</ele>
        <time>2018-06-25T10:15:05Z</time>
      </trkpt>
      <trkpt lat="48.0931" lon="5.45043">
        <ele>406</ele>
        <time>2018-06-25T10:15:13Z</time>
      </trkpt>
      <trkpt lat="48.0931" lon="5.45059">
        <ele>405</ele>
        <time>2018-06-25T10:15:21Z</time>
      </trkpt>
      <trkpt lat="48.09311" lon="5.45075">
        <ele>406</ele>
        <time>2018-06-25T10:15:30Z</time>
      </trkpt>
      <trkpt lat="48.09311" lon="5.4509">
        <ele>405</ele>
        <time>2018-06-25T10:15:38Z</time>
      </trkpt>
      <trkpt lat="48.09311" lon="5.45106">
        <ele>405</ele>
        <time>2018-06-25T10:15:46Z</time>
      </trkpt>
      <trkpt lat="48.0931" lon="5.45122">
        <ele>405</ele>
        <time>2018-06-25T10:15:53Z</time>
      </trkpt>
      <trkpt lat="48.0931" lon="5.45137">
        <ele>406</ele>
        <time>2018-06-25T10:16:00Z</time>
      </trkpt>
      <trkpt lat="48.0931" lon="5.4515">
        <ele>406</ele>
        <time>2018-06-25T10:16:07Z</time>
      </trkpt>
      <trkpt lat="48.0931" lon="5.45165">
        <ele>406</ele>
        <time>2018-06-25T10:16:14Z</time>
      </trkpt>
      <trkpt lat="48.09312" lon="5.45178">
        <ele>407</ele>
        <time>2018-06-25T10:16:21Z</time>
      </trkpt>
      <trkpt lat="48.09314" lon="5.45192">
        <ele>407</ele>
        <time>2018-06-25T10:16:28Z</time>
      </trkpt>
      <trkpt lat="48.09315" lon="5.45207">
        <ele>407</ele>
        <time>2018-06-25T10:16:35Z</time>
      </trkpt>
      <trkpt lat="48.09318" lon="5.45223">
        <ele>409</ele>
        <time>2018-06-25T10:16:43Z</time>
      </trkpt>
      <trkpt lat="48.09323" lon="5.45237">
        <ele>410</ele>
        <time>2018-06-25T10:16:51Z</time>
      </trkpt>
      <trkpt lat="48.09326" lon="5.45252">
        <ele>410</ele>
        <time>2018-06-25T10:16:58Z</time>
      </trkpt>
      <trkpt lat="48.0933" lon="5.45265">
        <ele>411</ele>
        <time>2018-06-25T10:17:05Z</time>
      </trkpt>
      <trkpt lat="48.09333" lon="5.45278">
        <ele>411</ele>
        <time>2018-06-25T10:17:13Z</time>
      </trkpt>
      <trkpt lat="48.09335" lon="5.45291">
        <ele>412</ele>
        <time>2018-06-25T10:17:20Z</time>
      </trkpt>
      <trkpt lat="48.09338" lon="5.45305">
        <ele>412</ele>
        <time>2018-06-25T10:17:28Z</time>
      </trkpt>
      <trkpt lat="48.09342" lon="5.4532">
        <ele>413</ele>
        <time>2018-06-25T10:17:36Z</time>
      </trkpt>
      <trkpt lat="48.09345" lon="5.45334">
        <ele>414</ele>
        <time>2018-06-25T10:17:44Z</time>
      </trkpt>
      <trkpt lat="48.09347" lon="5.45347">
        <ele>414</ele>
        <time>2018-06-25T10:17:51Z</time>
      </trkpt>
      <trkpt lat="48.09351" lon="5.45361">
        <ele>414</ele>
        <time>2018-06-25T10:18:00Z</time>
      </trkpt>
      <trkpt lat="48.09354" lon="5.45375">
        <ele>416</ele>
        <time>2018-06-25T10:18:08Z</time>
      </trkpt>
      <trkpt lat="48.09357" lon="5.45389">
        <ele>417</ele>
        <time>2018-06-25T10:18:16Z</time>
      </trkpt>
      <trkpt lat="48.0936" lon="5.45403">
        <ele>418</ele>
        <time>2018-06-25T10:18:24Z</time>
      </trkpt>
      <trkpt lat="48.09363" lon="5.45419">
        <ele>420</ele>
        <time>2018-06-25T10:18:32Z</time>
      </trkpt>
      <trkpt lat="48.09367" lon="5.45433">
        <ele>421</ele>
        <time>2018-06-25T10:18:41Z</time>
      </trkpt>
      <trkpt lat="48.09369" lon="5.45447">
        <ele>422</ele>
        <time>2018-06-25T10:18:48Z</time>
      </trkpt>
      <trkpt lat="48.09371" lon="5.45459">
        <ele>422</ele>
        <time>2018-06-25T10:18:56Z</time>
      </trkpt>
      <trkpt lat="48.09375" lon="5.45473">
        <ele>423</ele>
        <time>2018-06-25T10:19:04Z</time>
      </trkpt>
      <trkpt lat="48.09378" lon="5.45489">
        <ele>423</ele>
        <time>2018-06-25T10:19:12Z</time>
      </trkpt>
      <trkpt lat="48.09382" lon="5.45501">
        <ele>424</ele>
        <time>2018-06-25T10:19:20Z</time>
      </trkpt>
      <trkpt lat="48.09388" lon="5.45514">
        <ele>423</ele>
        <time>2018-06-25T10:19:28Z</time>
      </trkpt>
      <trkpt lat="48.09395" lon="5.45523">
        <ele>424</ele>
        <time>2018-06-25T10:19:36Z</time>
      </trkpt>
      <trkpt lat="48.09404" lon="5.45532">
        <ele>425</ele>
        <time>2018-06-25T10:19:44Z</time>
      </trkpt>
      <trkpt lat="48.09413" lon="5.45538">
        <ele>425</ele>
        <time>2018-06-25T10:19:52Z</time>
      </trkpt>
      <trkpt lat="48.09422" lon="5.45541">
        <ele>426</ele>
        <time>2018-06-25T10:19:59Z</time>
      </trkpt>
      <trkpt lat="48.09431" lon="5.45544">
        <ele>426</ele>
        <time>2018-06-25T10:20:06Z</time>
      </trkpt>
      <trkpt lat="48.0944" lon="5.45547">
        <ele>426</ele>
        <time>2018-06-25T10:20:14Z</time>
      </trkpt>
      <trkpt lat="48.09448" lon="5.45552">
        <ele>428</ele>
        <time>2018-06-25T10:20:21Z</time>
      </trkpt>
      <trkpt lat="48.09457" lon="5.4556">
        <ele>428</ele>
        <time>2018-06-25T10:20:29Z</time>
      </trkpt>
      <trkpt lat="48.09464" lon="5.45569">
        <ele>429</ele>
        <time>2018-06-25T10:20:38Z</time>
      </trkpt>
      <trkpt lat="48.0947" lon="5.4558">
        <ele>429</ele>
        <time>2018-06-25T10:20:46Z</time>
      </trkpt>
      <trkpt lat="48.09474" lon="5.45595">
        <ele>428</ele>
        <time>2018-06-25T10:20:55Z</time>
      </trkpt>
      <trkpt lat="48.09477" lon="5.45609">
        <ele>428</ele>
        <time>2018-06-25T10:21:03Z</time>
      </trkpt>
      <trkpt lat="48.09478" lon="5.45623">
        <ele>428</ele>
        <time>2018-06-25T10:21:10Z</time>
      </trkpt>
      <trkpt lat="48.0948" lon="5.45638">
        <ele>427</ele>
        <time>2018-06-25T10:21:18Z</time>
      </trkpt>
      <trkpt lat="48.09482" lon="5.45651">
        <ele>427</ele>
        <time>2018-06-25T10:21:25Z</time>
      </trkpt>
      <trkpt lat="48.09482" lon="5.45666">
        <ele>427</ele>
        <time>2018-06-25T10:21:32Z</time>
      </trkpt>
      <trkpt lat="48.09482" lon="5.4568">
        <ele>427</ele>
        <time>2018-06-25T10:21:40Z</time>
      </trkpt>
      <trkpt lat="48.09482" lon="5.45696">
        <ele>427</ele>
        <time>2018-06-25T10:21:48Z</time>
      </trkpt>
      <trkpt lat="48.0948" lon="5.4571">
        <ele>426</ele>
        <time>2018-06-25T10:21:55Z</time>
      </trkpt>
      <trkpt lat="48.09477" lon="5.45725">
        <ele>427</ele>
        <time>2018-06-25T10:22:03Z</time>
      </trkpt>
      <trkpt lat="48.09475" lon="5.45738">
        <ele>428</ele>
        <time>2018-06-25T10:22:11Z</time>
      </trkpt>
      <trkpt lat="48.09472" lon="5.45752">
        <ele>428</ele>
        <time>2018-06-25T10:22:18Z</time>
      </trkpt>
      <trkpt lat="48.09468" lon="5.45765">
        <ele>428</ele>
        <time>2018-06-25T10:22:26Z</time>
      </trkpt>
      <trkpt lat="48.09464" lon="5.45777">
        <ele>429</ele>
        <time>2018-06-25T10:22:34Z</time>
      </trkpt>
      <trkpt lat="48.0946" lon="5.45788">
        <ele>429</ele>
        <time>2018-06-25T10:22:44Z</time>
      </trkpt>
      <trkpt lat="48.09455" lon="5.45801">
        <ele>430</ele>
        <time>2018-06-25T10:22:53Z</time>
      </trkpt>
      <trkpt lat="48.0945" lon="5.45816">
        <ele>430</ele>
        <time>2018-06-25T10:23:01Z</time>
      </trkpt>
      <trkpt lat="48.09443" lon="5.45829">
        <ele>430</ele>
        <time>2018-06-25T10:23:10Z</time>
      </trkpt>
      <trkpt lat="48.09436" lon="5.4584">
        <ele>429</ele>
        <time>2018-06-25T10:23:18Z</time>
      </trkpt>
      <trkpt lat="48.09429" lon="5.45851">
        <ele>430</ele>
        <time>2018-06-25T10:23:27Z</time>
      </trkpt>
      <trkpt lat="48.09419" lon="5.4586">
        <ele>430</ele>
        <time>2018-06-25T10:23:36Z</time>
      </trkpt>
      <trkpt lat="48.0941" lon="5.45857">
        <ele>430</ele>
        <time>2018-06-25T10:23:58Z</time>
      </trkpt>
      <trkpt lat="48.09411" lon="5.45864">
        <ele>436</ele>
        <time>2018-06-25T10:38:02Z</time>
      </trkpt>
      <trkpt lat="48.09411" lon="5.45872">
        <ele>429</ele>
        <time>2018-06-25T10:39:33Z</time>
      </trkpt>
      <trkpt lat="48.0941" lon="5.45888">
        <ele>429</ele>
        <time>2018-06-25T10:39:43Z</time>
      </trkpt>
      <trkpt lat="48.09408" lon="5.45903">
        <ele>428</ele>
        <time>2018-06-25T10:39:52Z</time>
      </trkpt>
      <trkpt lat="48.09403" lon="5.45912">
        <ele>427</ele>
        <time>2018-06-25T10:40:04Z</time>
      </trkpt>
      <trkpt lat="48.09394" lon="5.45916">
        <ele>426</ele>
        <time>2018-06-25T10:40:11Z</time>
      </trkpt>
      <trkpt lat="48.09385" lon="5.45919">
        <ele>426</ele>
        <time>2018-06-25T10:40:19Z</time>
      </trkpt>
      <trkpt lat="48.09374" lon="5.45919">
        <ele>425</ele>
        <time>2018-06-25T10:40:27Z</time>
      </trkpt>
      <trkpt lat="48.09365" lon="5.45926">
        <ele>425</ele>
        <time>2018-06-25T10:40:52Z</time>
      </trkpt>
      <trkpt lat="48.09366" lon="5.45941">
        <ele>422</ele>
        <time>2018-06-25T10:40:59Z</time>
      </trkpt>
      <trkpt lat="48.09369" lon="5.45955">
        <ele>421</ele>
        <time>2018-06-25T10:41:07Z</time>
      </trkpt>
      <trkpt lat="48.09365" lon="5.45967">
        <ele>420</ele>
        <time>2018-06-25T10:41:15Z</time>
      </trkpt>
      <trkpt lat="48.09355" lon="5.45961">
        <ele>420</ele>
        <time>2018-06-25T10:41:23Z</time>
      </trkpt>
      <trkpt lat="48.09347" lon="5.45955">
        <ele>419</ele>
        <time>2018-06-25T10:41:30Z</time>
      </trkpt>
      <trkpt lat="48.09336" lon="5.45949">
        <ele>418</ele>
        <time>2018-06-25T10:41:38Z</time>
      </trkpt>
      <trkpt lat="48.09327" lon="5.45943">
        <ele>417</ele>
        <time>2018-06-25T10:41:46Z</time>
      </trkpt>
      <trkpt lat="48.09317" lon="5.45937">
        <ele>417</ele>
        <time>2018-06-25T10:41:54Z</time>
      </trkpt>
      <trkpt lat="48.09307" lon="5.4593">
        <ele>416</ele>
        <time>2018-06-25T10:42:02Z</time>
      </trkpt>
      <trkpt lat="48.09297" lon="5.45924">
        <ele>414</ele>
        <time>2018-06-25T10:42:12Z</time>
      </trkpt>
      <trkpt lat="48.09286" lon="5.45918">
        <ele>414</ele>
        <time>2018-06-25T10:42:21Z</time>
      </trkpt>
      <trkpt lat="48.09275" lon="5.45914">
        <ele>413</ele>
        <time>2018-06-25T10:42:29Z</time>
      </trkpt>
      <trkpt lat="48.09268" lon="5.45913">
        <ele>413</ele>
        <time>2018-06-25T10:42:44Z</time>
      </trkpt>
      <trkpt lat="48.09262" lon="5.45918">
        <ele>413</ele>
        <time>2018-06-25T10:43:50Z</time>
      </trkpt>
      <trkpt lat="48.09252" lon="5.45919">
        <ele>412</ele>
        <time>2018-06-25T10:43:58Z</time>
      </trkpt>
      <trkpt lat="48.09242" lon="5.4592">
        <ele>411</ele>
        <time>2018-06-25T10:44:05Z</time>
      </trkpt>
      <trkpt lat="48.09233" lon="5.45921">
        <ele>410</ele>
        <time>2018-06-25T10:44:12Z</time>
      </trkpt>
      <trkpt lat="48.09223" lon="5.45923">
        <ele>408</ele>
        <time>2018-06-25T10:44:19Z</time>
      </trkpt>
      <trkpt lat="48.09214" lon="5.45923">
        <ele>408</ele>
        <time>2018-06-25T10:44:26Z</time>
      </trkpt>
      <trkpt lat="48.09204" lon="5.45924">
        <ele>406</ele>
        <time>2018-06-25T10:44:33Z</time>
      </trkpt>
      <trkpt lat="48.09193" lon="5.45923">
        <ele>405</ele>
        <time>2018-06-25T10:44:40Z</time>
      </trkpt>
      <trkpt lat="48.09184" lon="5.45923">
        <ele>404</ele>
        <time>2018-06-25T10:44:47Z</time>
      </trkpt>
      <trkpt lat="48.09174" lon="5.45922">
        <ele>404</ele>
        <time>2018-06-25T10:44:54Z</time>
      </trkpt>
      <trkpt lat="48.09164" lon="5.45922">
        <ele>403</ele>
        <time>2018-06-25T10:45:01Z</time>
      </trkpt>
      <trkpt lat="48.09155" lon="5.45922">
        <ele>403</ele>
        <time>2018-06-25T10:45:08Z</time>
      </trkpt>
      <trkpt lat="48.09145" lon="5.45923">
        <ele>403</ele>
        <time>2018-06-25T10:45:15Z</time>
      </trkpt>
      <trkpt lat="48.09135" lon="5.45924">
        <ele>402</ele>
        <time>2018-06-25T10:45:22Z</time>
      </trkpt>
      <trkpt lat="48.09126" lon="5.45924">
        <ele>402</ele>
        <time>2018-06-25T10:45:29Z</time>
      </trkpt>
      <trkpt lat="48.09117" lon="5.45927">
        <ele>402</ele>
        <time>2018-06-25T10:45:37Z</time>
      </trkpt>
      <trkpt lat="48.09107" lon="5.45928">
        <ele>402</ele>
        <time>2018-06-25T10:45:44Z</time>
      </trkpt>
      <trkpt lat="48.09098" lon="5.45929">
        <ele>402</ele>
        <time>2018-06-25T10:45:51Z</time>
      </trkpt>
      <trkpt lat="48.09089" lon="5.45931">
        <ele>401</ele>
        <time>2018-06-25T10:45:58Z</time>
      </trkpt>
      <trkpt lat="48.09079" lon="5.45934">
        <ele>401</ele>
        <time>2018-06-25T10:46:06Z</time>
      </trkpt>
      <trkpt lat="48.09069" lon="5.45936">
        <ele>402</ele>
        <time>2018-06-25T10:46:14Z</time>
      </trkpt>
      <trkpt lat="48.09058" lon="5.45939">
        <ele>402</ele>
        <time>2018-06-25T10:46:22Z</time>
      </trkpt>
      <trkpt lat="48.09046" lon="5.4594">
        <ele>402</ele>
        <time>2018-06-25T10:46:32Z</time>
      </trkpt>
      <trkpt lat="48.09036" lon="5.45941">
        <ele>403</ele>
        <time>2018-06-25T10:46:40Z</time>
      </trkpt>
      <trkpt lat="48.09024" lon="5.45941">
        <ele>404</ele>
        <time>2018-06-25T10:46:48Z</time>
      </trkpt>
      <trkpt lat="48.09013" lon="5.45943">
        <ele>404</ele>
        <time>2018-06-25T10:46:55Z</time>
      </trkpt>
      <trkpt lat="48.09002" lon="5.45945">
        <ele>405</ele>
        <time>2018-06-25T10:47:03Z</time>
      </trkpt>
      <trkpt lat="48.08992" lon="5.45949">
        <ele>405</ele>
        <time>2018-06-25T10:47:12Z</time>
      </trkpt>
      <trkpt lat="48.08982" lon="5.4595">
        <ele>406</ele>
        <time>2018-06-25T10:47:20Z</time>
      </trkpt>
      <trkpt lat="48.08971" lon="5.45951">
        <ele>408</ele>
        <time>2018-06-25T10:47:29Z</time>
      </trkpt>
      <trkpt lat="48.08961" lon="5.45951">
        <ele>409</ele>
        <time>2018-06-25T10:47:38Z</time>
      </trkpt>
      <trkpt lat="48.08952" lon="5.45949">
        <ele>409</ele>
        <time>2018-06-25T10:47:45Z</time>
      </trkpt>
      <trkpt lat="48.08943" lon="5.45947">
        <ele>410</ele>
        <time>2018-06-25T10:47:53Z</time>
      </trkpt>
      <trkpt lat="48.08934" lon="5.45945">
        <ele>410</ele>
        <time>2018-06-25T10:48:00Z</time>
      </trkpt>
      <trkpt lat="48.08924" lon="5.45941">
        <ele>411</ele>
        <time>2018-06-25T10:48:08Z</time>
      </trkpt>
      <trkpt lat="48.08914" lon="5.45935">
        <ele>411</ele>
        <time>2018-06-25T10:48:16Z</time>
      </trkpt>
      <trkpt lat="48.08905" lon="5.45932">
        <ele>411</ele>
        <time>2018-06-25T10:48:24Z</time>
      </trkpt>
      <trkpt lat="48.08895" lon="5.4593">
        <ele>412</ele>
        <time>2018-06-25T10:48:49Z</time>
      </trkpt>
      <trkpt lat="48.08884" lon="5.45928">
        <ele>413</ele>
        <time>2018-06-25T10:48:57Z</time>
      </trkpt>
      <trkpt lat="48.08874" lon="5.4593">
        <ele>413</ele>
        <time>2018-06-25T10:49:05Z</time>
      </trkpt>
      <trkpt lat="48.08865" lon="5.45929">
        <ele>413</ele>
        <time>2018-06-25T10:49:13Z</time>
      </trkpt>
      <trkpt lat="48.08855" lon="5.4593">
        <ele>415</ele>
        <time>2018-06-25T10:49:21Z</time>
      </trkpt>
      <trkpt lat="48.08845" lon="5.45931">
        <ele>415</ele>
        <time>2018-06-25T10:49:29Z</time>
      </trkpt>
      <trkpt lat="48.08835" lon="5.45931">
        <ele>416</ele>
        <time>2018-06-25T10:49:37Z</time>
      </trkpt>
      <trkpt lat="48.08824" lon="5.45932">
        <ele>417</ele>
        <time>2018-06-25T10:49:46Z</time>
      </trkpt>
      <trkpt lat="48.08815" lon="5.45933">
        <ele>417</ele>
        <time>2018-06-25T10:49:58Z</time>
      </trkpt>
      <trkpt lat="48.08805" lon="5.45932">
        <ele>418</ele>
        <time>2018-06-25T10:51:50Z</time>
      </trkpt>
      <trkpt lat="48.08794" lon="5.45933">
        <ele>419</ele>
        <time>2018-06-25T10:51:58Z</time>
      </trkpt>
      <trkpt lat="48.08784" lon="5.45933">
        <ele>420</ele>
        <time>2018-06-25T10:52:06Z</time>
      </trkpt>
      <trkpt lat="48.08774" lon="5.45933">
        <ele>420</ele>
        <time>2018-06-25T10:52:13Z</time>
      </trkpt>
      <trkpt lat="48.08765" lon="5.45931">
        <ele>421</ele>
        <time>2018-06-25T10:52:20Z</time>
      </trkpt>
      <trkpt lat="48.08755" lon="5.45931">
        <ele>421</ele>
        <time>2018-06-25T10:52:28Z</time>
      </trkpt>
      <trkpt lat="48.08745" lon="5.45933">
        <ele>422</ele>
        <time>2018-06-25T10:52:37Z</time>
      </trkpt>
      <trkpt lat="48.08735" lon="5.45936">
        <ele>423</ele>
        <time>2018-06-25T10:52:45Z</time>
      </trkpt>
      <trkpt lat="48.08723" lon="5.45939">
        <ele>424</ele>
        <time>2018-06-25T10:52:54Z</time>
      </trkpt>
      <trkpt lat="48.08713" lon="5.45943">
        <ele>424</ele>
        <time>2018-06-25T10:53:02Z</time>
      </trkpt>
      <trkpt lat="48.08703" lon="5.45946">
        <ele>425</ele>
        <time>2018-06-25T10:53:09Z</time>
      </trkpt>
      <trkpt lat="48.08693" lon="5.45949">
        <ele>425</ele>
        <time>2018-06-25T10:53:16Z</time>
      </trkpt>
      <trkpt lat="48.08684" lon="5.45951">
        <ele>426</ele>
        <time>2018-06-25T10:53:24Z</time>
      </trkpt>
      <trkpt lat="48.08674" lon="5.45953">
        <ele>426</ele>
        <time>2018-06-25T10:53:32Z</time>
      </trkpt>
      <trkpt lat="48.08663" lon="5.45955">
        <ele>427</ele>
        <time>2018-06-25T10:53:40Z</time>
      </trkpt>
      <trkpt lat="48.08653" lon="5.45956">
        <ele>428</ele>
        <time>2018-06-25T10:53:49Z</time>
      </trkpt>
      <trkpt lat="48.08643" lon="5.45958">
        <ele>429</ele>
        <time>2018-06-25T10:53:57Z</time>
      </trkpt>
      <trkpt lat="48.08633" lon="5.4596">
        <ele>429</ele>
        <time>2018-06-25T10:54:05Z</time>
      </trkpt>
      <trkpt lat="48.08622" lon="5.45961">
        <ele>430</ele>
        <time>2018-06-25T10:54:13Z</time>
      </trkpt>
      <trkpt lat="48.08611" lon="5.45963">
        <ele>430</ele>
        <time>2018-06-25T10:54:21Z</time>
      </trkpt>
      <trkpt lat="48.086" lon="5.4596">
        <ele>431</ele>
        <time>2018-06-25T10:54:30Z</time>
      </trkpt>
      <trkpt lat="48.08589" lon="5.45961">
        <ele>431</ele>
        <time>2018-06-25T10:54:39Z</time>
      </trkpt>
      <trkpt lat="48.08577" lon="5.45963">
        <ele>432</ele>
        <time>2018-06-25T10:54:49Z</time>
      </trkpt>
      <trkpt lat="48.08567" lon="5.45965">
        <ele>433</ele>
        <time>2018-06-25T10:54:57Z</time>
      </trkpt>
      <trkpt lat="48.08557" lon="5.45964">
        <ele>433</ele>
        <time>2018-06-25T10:55:06Z</time>
      </trkpt>
      <trkpt lat="48.08543" lon="5.45962">
        <ele>434</ele>
        <time>2018-06-25T10:55:16Z</time>
      </trkpt>
      <trkpt lat="48.08527" lon="5.45957">
        <ele>433</ele>
        <time>2018-06-25T10:55:29Z</time>
      </trkpt>
      <trkpt lat="48.08512" lon="5.45952">
        <ele>433</ele>
        <time>2018-06-25T10:55:42Z</time>
      </trkpt>
      <trkpt lat="48.08493" lon="5.45949">
        <ele>433</ele>
        <time>2018-06-25T10:55:54Z</time>
      </trkpt>
      <trkpt lat="48.08479" lon="5.45947">
        <ele>433</ele>
        <time>2018-06-25T10:56:05Z</time>
      </trkpt>
      <trkpt lat="48.08465" lon="5.45946">
        <ele>432</ele>
        <time>2018-06-25T10:56:15Z</time>
      </trkpt>
      <trkpt lat="48.08453" lon="5.45941">
        <ele>433</ele>
        <time>2018-06-25T10:56:25Z</time>
      </trkpt>
      <trkpt lat="48.08442" lon="5.45941">
        <ele>433</ele>
        <time>2018-06-25T10:56:34Z</time>
      </trkpt>
      <trkpt lat="48.0843" lon="5.45939">
        <ele>432</ele>
        <time>2018-06-25T10:56:43Z</time>
      </trkpt>
      <trkpt lat="48.08418" lon="5.45936">
        <ele>433</ele>
        <time>2018-06-25T10:56:52Z</time>
      </trkpt>
      <trkpt lat="48.08406" lon="5.45934">
        <ele>433</ele>
        <time>2018-06-25T10:57:01Z</time>
      </trkpt>
      <trkpt lat="48.08394" lon="5.45932">
        <ele>433</ele>
        <time>2018-06-25T10:57:09Z</time>
      </trkpt>
      <trkpt lat="48.08383" lon="5.45934">
        <ele>433</ele>
        <time>2018-06-25T10:57:18Z</time>
      </trkpt>
      <trkpt lat="48.08372" lon="5.45936">
        <ele>433</ele>
        <time>2018-06-25T10:57:27Z</time>
      </trkpt>
      <trkpt lat="48.08361" lon="5.45939">
        <ele>434</ele>
        <time>2018-06-25T10:57:36Z</time>
      </trkpt>
      <trkpt lat="48.08351" lon="5.45944">
        <ele>434</ele>
        <time>2018-06-25T10:57:44Z</time>
      </trkpt>
      <trkpt lat="48.08341" lon="5.45949">
        <ele>434</ele>
        <time>2018-06-25T10:57:51Z</time>
      </trkpt>
      <trkpt lat="48.08332" lon="5.45954">
        <ele>434</ele>
        <time>2018-06-25T10:57:59Z</time>
      </trkpt>
      <trkpt lat="48.08322" lon="5.45959">
        <ele>434</ele>
        <time>2018-06-25T10:58:07Z</time>
      </trkpt>
      <trkpt lat="48.08311" lon="5.45957">
        <ele>434</ele>
        <time>2018-06-25T10:58:14Z</time>
      </trkpt>
      <trkpt lat="48.08302" lon="5.45953">
        <ele>435</ele>
        <time>2018-06-25T10:58:21Z</time>
      </trkpt>
      <trkpt lat="48.08294" lon="5.45947">
        <ele>435</ele>
        <time>2018-06-25T10:58:28Z</time>
      </trkpt>
      <trkpt lat="48.08285" lon="5.45935">
        <ele>435</ele>
        <time>2018-06-25T10:58:36Z</time>
      </trkpt>
      <trkpt lat="48.0828" lon="5.45924">
        <ele>435</ele>
        <time>2018-06-25T10:58:44Z</time>
      </trkpt>
      <trkpt lat="48.08274" lon="5.45909">
        <ele>436</ele>
        <time>2018-06-25T10:58:53Z</time>
      </trkpt>
      <trkpt lat="48.08272" lon="5.45894">
        <ele>436</ele>
        <time>2018-06-25T10:59:01Z</time>
      </trkpt>
      <trkpt lat="48.0827" lon="5.4588">
        <ele>437</ele>
        <time>2018-06-25T10:59:08Z</time>
      </trkpt>
      <trkpt lat="48.08271" lon="5.45866">
        <ele>437</ele>
        <time>2018-06-25T10:59:16Z</time>
      </trkpt>
      <trkpt lat="48.08273" lon="5.4585">
        <ele>438</ele>
        <time>2018-06-25T10:59:24Z</time>
      </trkpt>
      <trkpt lat="48.08274" lon="5.45836">
        <ele>438</ele>
        <time>2018-06-25T10:59:31Z</time>
      </trkpt>
      <trkpt lat="48.08276" lon="5.45821">
        <ele>438</ele>
        <time>2018-06-25T10:59:40Z</time>
      </trkpt>
      <trkpt lat="48.08277" lon="5.45807">
        <ele>439</ele>
        <time>2018-06-25T10:59:47Z</time>
      </trkpt>
      <trkpt lat="48.08278" lon="5.45791">
        <ele>439</ele>
        <time>2018-06-25T10:59:55Z</time>
      </trkpt>
      <trkpt lat="48.0828" lon="5.45776">
        <ele>440</ele>
        <time>2018-06-25T11:00:03Z</time>
      </trkpt>
      <trkpt lat="48.08281" lon="5.45762">
        <ele>440</ele>
        <time>2018-06-25T11:00:10Z</time>
      </trkpt>
      <trkpt lat="48.08284" lon="5.45746">
        <ele>440</ele>
        <time>2018-06-25T11:00:18Z</time>
      </trkpt>
      <trkpt lat="48.08286" lon="5.45731">
        <ele>441</ele>
        <time>2018-06-25T11:00:25Z</time>
      </trkpt>
      <trkpt lat="48.08286" lon="5.45715">
        <ele>441</ele>
        <time>2018-06-25T11:00:32Z</time>
      </trkpt>
      <trkpt lat="48.08285" lon="5.45701">
        <ele>441</ele>
        <time>2018-06-25T11:00:39Z</time>
      </trkpt>
      <trkpt lat="48.08283" lon="5.45686">
        <ele>442</ele>
        <time>2018-06-25T11:00:47Z</time>
      </trkpt>
      <trkpt lat="48.0828" lon="5.45671">
        <ele>442</ele>
        <time>2018-06-25T11:00:55Z</time>
      </trkpt>
      <trkpt lat="48.08278" lon="5.45657">
        <ele>443</ele>
        <time>2018-06-25T11:01:03Z</time>
      </trkpt>
      <trkpt lat="48.08274" lon="5.45644">
        <ele>443</ele>
        <time>2018-06-25T11:01:11Z</time>
      </trkpt>
      <trkpt lat="48.0827" lon="5.4563">
        <ele>443</ele>
        <time>2018-06-25T11:01:19Z</time>
      </trkpt>
      <trkpt lat="48.08267" lon="5.45616">
        <ele>443</ele>
        <time>2018-06-25T11:01:26Z</time>
      </trkpt>
      <trkpt lat="48.08264" lon="5.45603">
        <ele>443</ele>
        <time>2018-06-25T11:01:33Z</time>
      </trkpt>
      <trkpt lat="48.08261" lon="5.4559">
        <ele>444</ele>
        <time>2018-06-25T11:01:40Z</time>
      </trkpt>
      <trkpt lat="48.08259" lon="5.45577">
        <ele>445</ele>
        <time>2018-06-25T11:01:47Z</time>
      </trkpt>
      <trkpt lat="48.08255" lon="5.45563">
        <ele>445</ele>
        <time>2018-06-25T11:01:54Z</time>
      </trkpt>
      <trkpt lat="48.08252" lon="5.4555">
        <ele>445</ele>
        <time>2018-06-25T11:02:01Z</time>
      </trkpt>
      <trkpt lat="48.08246" lon="5.45539">
        <ele>445</ele>
        <time>2018-06-25T11:02:08Z</time>
      </trkpt>
      <trkpt lat="48.0824" lon="5.45527">
        <ele>445</ele>
        <time>2018-06-25T11:02:15Z</time>
      </trkpt>
      <trkpt lat="48.08233" lon="5.45518">
        <ele>444</ele>
        <time>2018-06-25T11:02:22Z</time>
      </trkpt>
      <trkpt lat="48.08225" lon="5.45509">
        <ele>446</ele>
        <time>2018-06-25T11:02:29Z</time>
      </trkpt>
      <trkpt lat="48.08218" lon="5.455">
        <ele>445</ele>
        <time>2018-06-25T11:02:36Z</time>
      </trkpt>
      <trkpt lat="48.08209" lon="5.45492">
        <ele>445</ele>
        <time>2018-06-25T11:02:44Z</time>
      </trkpt>
      <trkpt lat="48.08201" lon="5.45484">
        <ele>445</ele>
        <time>2018-06-25T11:02:52Z</time>
      </trkpt>
      <trkpt lat="48.08192" lon="5.45475">
        <ele>445</ele>
        <time>2018-06-25T11:03:00Z</time>
      </trkpt>
      <trkpt lat="48.08184" lon="5.45468">
        <ele>445</ele>
        <time>2018-06-25T11:03:07Z</time>
      </trkpt>
      <trkpt lat="48.08176" lon="5.45459">
        <ele>444</ele>
        <time>2018-06-25T11:03:14Z</time>
      </trkpt>
      <trkpt lat="48.08168" lon="5.4545">
        <ele>444</ele>
        <time>2018-06-25T11:03:21Z</time>
      </trkpt>
      <trkpt lat="48.08161" lon="5.45442">
        <ele>444</ele>
        <time>2018-06-25T11:03:28Z</time>
      </trkpt>
      <trkpt lat="48.08154" lon="5.45433">
        <ele>444</ele>
        <time>2018-06-25T11:03:35Z</time>
      </trkpt>
      <trkpt lat="48.08146" lon="5.45422">
        <ele>444</ele>
        <time>2018-06-25T11:03:43Z</time>
      </trkpt>
      <trkpt lat="48.08138" lon="5.45411">
        <ele>443</ele>
        <time>2018-06-25T11:03:51Z</time>
      </trkpt>
      <trkpt lat="48.08131" lon="5.45403">
        <ele>443</ele>
        <time>2018-06-25T11:03:58Z</time>
      </trkpt>
      <trkpt lat="48.08123" lon="5.45394">
        <ele>443</ele>
        <time>2018-06-25T11:04:05Z</time>
      </trkpt>
      <trkpt lat="48.08116" lon="5.45384">
        <ele>444</ele>
        <time>2018-06-25T11:04:12Z</time>
      </trkpt>
      <trkpt lat="48.08109" lon="5.45376">
        <ele>444</ele>
        <time>2018-06-25T11:04:19Z</time>
      </trkpt>
      <trkpt lat="48.08101" lon="5.45365">
        <ele>444</ele>
        <time>2018-06-25T11:04:27Z</time>
      </trkpt>
      <trkpt lat="48.08093" lon="5.45355">
        <ele>444</ele>
        <time>2018-06-25T11:04:35Z</time>
      </trkpt>
      <trkpt lat="48.08085" lon="5.45347">
        <ele>444</ele>
        <time>2018-06-25T11:04:43Z</time>
      </trkpt>
      <trkpt lat="48.08077" lon="5.45337">
        <ele>444</ele>
        <time>2018-06-25T11:04:51Z</time>
      </trkpt>
      <trkpt lat="48.08068" lon="5.45326">
        <ele>444</ele>
        <time>2018-06-25T11:05:00Z</time>
      </trkpt>
      <trkpt lat="48.0806" lon="5.45315">
        <ele>445</ele>
        <time>2018-06-25T11:05:08Z</time>
      </trkpt>
      <trkpt lat="48.08051" lon="5.45305">
        <ele>444</ele>
        <time>2018-06-25T11:05:16Z</time>
      </trkpt>
      <trkpt lat="48.08044" lon="5.45296">
        <ele>445</ele>
        <time>2018-06-25T11:05:23Z</time>
      </trkpt>
      <trkpt lat="48.08036" lon="5.45285">
        <ele>445</ele>
        <time>2018-06-25T11:05:31Z</time>
      </trkpt>
      <trkpt lat="48.08028" lon="5.45275">
        <ele>445</ele>
        <time>2018-06-25T11:05:39Z</time>
      </trkpt>
      <trkpt lat="48.08021" lon="5.45266">
        <ele>445</ele>
        <time>2018-06-25T11:05:46Z</time>
      </trkpt>
      <trkpt lat="48.08014" lon="5.45256">
        <ele>444</ele>
        <time>2018-06-25T11:05:53Z</time>
      </trkpt>
      <trkpt lat="48.08007" lon="5.45245">
        <ele>444</ele>
        <time>2018-06-25T11:06:01Z</time>
      </trkpt>
      <trkpt lat="48.08" lon="5.45234">
        <ele>444</ele>
        <time>2018-06-25T11:06:09Z</time>
      </trkpt>
      <trkpt lat="48.07992" lon="5.45223">
        <ele>443</ele>
        <time>2018-06-25T11:06:17Z</time>
      </trkpt>
      <trkpt lat="48.07985" lon="5.45213">
        <ele>443</ele>
        <time>2018-06-25T11:06:24Z</time>
      </trkpt>
      <trkpt lat="48.07977" lon="5.45202">
        <ele>443</ele>
        <time>2018-06-25T11:06:32Z</time>
      </trkpt>
      <trkpt lat="48.07969" lon="5.45192">
        <ele>443</ele>
        <time>2018-06-25T11:06:39Z</time>
      </trkpt>
      <trkpt lat="48.07962" lon="5.45181">
        <ele>442</ele>
        <time>2018-06-25T11:06:47Z</time>
      </trkpt>
      <trkpt lat="48.07954" lon="5.45171">
        <ele>442</ele>
        <time>2018-06-25T11:06:55Z</time>
      </trkpt>
      <trkpt lat="48.07947" lon="5.45161">
        <ele>442</ele>
        <time>2018-06-25T11:07:02Z</time>
      </trkpt>
      <trkpt lat="48.0794" lon="5.45149">
        <ele>442</ele>
        <time>2018-06-25T11:07:09Z</time>
      </trkpt>
      <trkpt lat="48.07935" lon="5.45138">
        <ele>441</ele>
        <time>2018-06-25T11:07:16Z</time>
      </trkpt>
      <trkpt lat="48.07929" lon="5.45126">
        <ele>441</ele>
        <time>2018-06-25T11:07:23Z</time>
      </trkpt>
      <trkpt lat="48.07924" lon="5.45114">
        <ele>440</ele>
        <time>2018-06-25T11:07:30Z</time>
      </trkpt>
      <trkpt lat="48.0792" lon="5.45102">
        <ele>440</ele>
        <time>2018-06-25T11:07:37Z</time>
      </trkpt>
      <trkpt lat="48.07915" lon="5.4509">
        <ele>440</ele>
        <time>2018-06-25T11:07:44Z</time>
      </trkpt>
      <trkpt lat="48.0791" lon="5.45077">
        <ele>439</ele>
        <time>2018-06-25T11:07:51Z</time>
      </trkpt>
      <trkpt lat="48.07906" lon="5.45064">
        <ele>438</ele>
        <time>2018-06-25T11:07:58Z</time>
      </trkpt>
      <trkpt lat="48.079" lon="5.45051">
        <ele>438</ele>
        <time>2018-06-25T11:08:06Z</time>
      </trkpt>
      <trkpt lat="48.07895" lon="5.45037">
        <ele>438</ele>
        <time>2018-06-25T11:08:14Z</time>
      </trkpt>
      <trkpt lat="48.07889" lon="5.45024">
        <ele>438</ele>
        <time>2018-06-25T11:08:21Z</time>
      </trkpt>
      <trkpt lat="48.07884" lon="5.45012">
        <ele>438</ele>
        <time>2018-06-25T11:08:28Z</time>
      </trkpt>
      <trkpt lat="48.07878" lon="5.45">
        <ele>437</ele>
        <time>2018-06-25T11:08:35Z</time>
      </trkpt>
      <trkpt lat="48.07873" lon="5.44989">
        <ele>437</ele>
        <time>2018-06-25T11:08:42Z</time>
      </trkpt>
      <trkpt lat="48.07867" lon="5.44976">
        <ele>437</ele>
        <time>2018-06-25T11:08:50Z</time>
      </trkpt>
      <trkpt lat="48.07861" lon="5.44964">
        <ele>437</ele>
        <time>2018-06-25T11:08:57Z</time>
      </trkpt>
      <trkpt lat="48.07856" lon="5.44952">
        <ele>437</ele>
        <time>2018-06-25T11:09:04Z</time>
      </trkpt>
      <trkpt lat="48.0785" lon="5.44939">
        <ele>437</ele>
        <time>2018-06-25T11:09:12Z</time>
      </trkpt>
      <trkpt lat="48.07844" lon="5.44928">
        <ele>437</ele>
        <time>2018-06-25T11:09:19Z</time>
      </trkpt>
      <trkpt lat="48.07838" lon="5.44916">
        <ele>437</ele>
        <time>2018-06-25T11:09:26Z</time>
      </trkpt>
      <trkpt lat="48.07832" lon="5.44906">
        <ele>437</ele>
        <time>2018-06-25T11:09:37Z</time>
      </trkpt>
      <trkpt lat="48.07827" lon="5.44896">
        <ele>436</ele>
        <time>2018-06-25T11:09:44Z</time>
      </trkpt>
      <trkpt lat="48.07822" lon="5.44885">
        <ele>436</ele>
        <time>2018-06-25T11:09:51Z</time>
      </trkpt>
      <trkpt lat="48.07816" lon="5.44872">
        <ele>436</ele>
        <time>2018-06-25T11:09:58Z</time>
      </trkpt>
      <trkpt lat="48.07809" lon="5.4486">
        <ele>436</ele>
        <time>2018-06-25T11:10:06Z</time>
      </trkpt>
      <trkpt lat="48.07803" lon="5.44849">
        <ele>436</ele>
        <time>2018-06-25T11:10:13Z</time>
      </trkpt>
      <trkpt lat="48.07797" lon="5.44837">
        <ele>437</ele>
        <time>2018-06-25T11:10:20Z</time>
      </trkpt>
      <trkpt lat="48.07791" lon="5.44826">
        <ele>437</ele>
        <time>2018-06-25T11:10:28Z</time>
      </trkpt>
      <trkpt lat="48.07784" lon="5.44815">
        <ele>437</ele>
        <time>2018-06-25T11:10:36Z</time>
      </trkpt>
      <trkpt lat="48.07777" lon="5.44803">
        <ele>437</ele>
        <time>2018-06-25T11:10:44Z</time>
      </trkpt>
      <trkpt lat="48.07771" lon="5.44792">
        <ele>437</ele>
        <time>2018-06-25T11:10:51Z</time>
      </trkpt>
      <trkpt lat="48.07764" lon="5.44781">
        <ele>437</ele>
        <time>2018-06-25T11:10:59Z</time>
      </trkpt>
      <trkpt lat="48.07757" lon="5.4477">
        <ele>437</ele>
        <time>2018-06-25T11:11:07Z</time>
      </trkpt>
      <trkpt lat="48.0775" lon="5.44758">
        <ele>437</ele>
        <time>2018-06-25T11:11:15Z</time>
      </trkpt>
      <trkpt lat="48.07743" lon="5.44746">
        <ele>438</ele>
        <time>2018-06-25T11:11:23Z</time>
      </trkpt>
      <trkpt lat="48.07736" lon="5.44735">
        <ele>438</ele>
        <time>2018-06-25T11:11:31Z</time>
      </trkpt>
      <trkpt lat="48.0773" lon="5.44723">
        <ele>438</ele>
        <time>2018-06-25T11:11:39Z</time>
      </trkpt>
      <trkpt lat="48.07722" lon="5.44711">
        <ele>438</ele>
        <time>2018-06-25T11:11:48Z</time>
      </trkpt>
      <trkpt lat="48.07715" lon="5.44699">
        <ele>439</ele>
        <time>2018-06-25T11:11:56Z</time>
      </trkpt>
      <trkpt lat="48.07707" lon="5.44688">
        <ele>439</ele>
        <time>2018-06-25T11:12:04Z</time>
      </trkpt>
      <trkpt lat="48.07702" lon="5.44678">
        <ele>439</ele>
        <time>2018-06-25T11:12:12Z</time>
      </trkpt>
      <trkpt lat="48.07695" lon="5.44666">
        <ele>440</ele>
        <time>2018-06-25T11:12:20Z</time>
      </trkpt>
      <trkpt lat="48.07688" lon="5.44653">
        <ele>440</ele>
        <time>2018-06-25T11:12:29Z</time>
      </trkpt>
      <trkpt lat="48.07682" lon="5.4464">
        <ele>441</ele>
        <time>2018-06-25T11:12:37Z</time>
      </trkpt>
      <trkpt lat="48.07676" lon="5.44627">
        <ele>442</ele>
        <time>2018-06-25T11:12:45Z</time>
      </trkpt>
      <trkpt lat="48.07671" lon="5.44613">
        <ele>442</ele>
        <time>2018-06-25T11:12:53Z</time>
      </trkpt>
      <trkpt lat="48.07666" lon="5.44599">
        <ele>442</ele>
        <time>2018-06-25T11:13:01Z</time>
      </trkpt>
      <trkpt lat="48.07663" lon="5.4459">
        <ele>443</ele>
        <time>2018-06-25T11:13:38Z</time>
      </trkpt>
      <trkpt lat="48.07659" lon="5.44574">
        <ele>443</ele>
        <time>2018-06-25T11:13:46Z</time>
      </trkpt>
      <trkpt lat="48.07653" lon="5.44559">
        <ele>442</ele>
        <time>2018-06-25T11:13:54Z</time>
      </trkpt>
      <trkpt lat="48.07647" lon="5.44546">
        <ele>443</ele>
        <time>2018-06-25T11:14:02Z</time>
      </trkpt>
      <trkpt lat="48.07641" lon="5.44532">
        <ele>443</ele>
        <time>2018-06-25T11:14:10Z</time>
      </trkpt>
      <trkpt lat="48.07635" lon="5.44518">
        <ele>442</ele>
        <time>2018-06-25T11:14:18Z</time>
      </trkpt>
      <trkpt lat="48.0763" lon="5.44505">
        <ele>442</ele>
        <time>2018-06-25T11:14:25Z</time>
      </trkpt>
      <trkpt lat="48.07626" lon="5.44491">
        <ele>442</ele>
        <time>2018-06-25T11:14:32Z</time>
      </trkpt>
      <trkpt lat="48.07622" lon="5.44477">
        <ele>442</ele>
        <time>2018-06-25T11:14:40Z</time>
      </trkpt>
      <trkpt lat="48.07619" lon="5.44463">
        <ele>442</ele>
        <time>2018-06-25T11:14:48Z</time>
      </trkpt>
      <trkpt lat="48.07616" lon="5.44448">
        <ele>442</ele>
        <time>2018-06-25T11:14:56Z</time>
      </trkpt>
      <trkpt lat="48.07613" lon="5.44435">
        <ele>442</ele>
        <time>2018-06-25T11:15:03Z</time>
      </trkpt>
      <trkpt lat="48.07611" lon="5.44421">
        <ele>441</ele>
        <time>2018-06-25T11:15:11Z</time>
      </trkpt>
      <trkpt lat="48.07607" lon="5.44408">
        <ele>441</ele>
        <time>2018-06-25T11:15:19Z</time>
      </trkpt>
      <trkpt lat="48.07603" lon="5.44394">
        <ele>441</ele>
        <time>2018-06-25T11:15:26Z</time>
      </trkpt>
      <trkpt lat="48.07599" lon="5.44381">
        <ele>441</ele>
        <time>2018-06-25T11:15:33Z</time>
      </trkpt>
      <trkpt lat="48.07599" lon="5.44367">
        <ele>440</ele>
        <time>2018-06-25T11:15:41Z</time>
      </trkpt>
      <trkpt lat="48.07599" lon="5.44353">
        <ele>439</ele>
        <time>2018-06-25T11:15:49Z</time>
      </trkpt>
      <trkpt lat="48.07599" lon="5.44338">
        <ele>439</ele>
        <time>2018-06-25T11:15:57Z</time>
      </trkpt>
      <trkpt lat="48.07598" lon="5.44324">
        <ele>439</ele>
        <time>2018-06-25T11:16:05Z</time>
      </trkpt>
      <trkpt lat="48.07596" lon="5.44309">
        <ele>438</ele>
        <time>2018-06-25T11:16:13Z</time>
      </trkpt>
      <trkpt lat="48.07597" lon="5.44294">
        <ele>437</ele>
        <time>2018-06-25T11:16:21Z</time>
      </trkpt>
      <trkpt lat="48.076" lon="5.44278">
        <ele>437</ele>
        <time>2018-06-25T11:16:29Z</time>
      </trkpt>
      <trkpt lat="48.07601" lon="5.44264">
        <ele>435</ele>
        <time>2018-06-25T11:16:37Z</time>
      </trkpt>
      <trkpt lat="48.07601" lon="5.44248">
        <ele>435</ele>
        <time>2018-06-25T11:16:45Z</time>
      </trkpt>
      <trkpt lat="48.07604" lon="5.44233">
        <ele>434</ele>
        <time>2018-06-25T11:16:53Z</time>
      </trkpt>
      <trkpt lat="48.07607" lon="5.44217">
        <ele>433</ele>
        <time>2018-06-25T11:17:02Z</time>
      </trkpt>
      <trkpt lat="48.07611" lon="5.44202">
        <ele>432</ele>
        <time>2018-06-25T11:17:10Z</time>
      </trkpt>
      <trkpt lat="48.07617" lon="5.44188">
        <ele>432</ele>
        <time>2018-06-25T11:17:18Z</time>
      </trkpt>
      <trkpt lat="48.07621" lon="5.44173">
        <ele>430</ele>
        <time>2018-06-25T11:17:27Z</time>
      </trkpt>
      <trkpt lat="48.07624" lon="5.44156">
        <ele>429</ele>
        <time>2018-06-25T11:17:36Z</time>
      </trkpt>
      <trkpt lat="48.07622" lon="5.44139">
        <ele>428</ele>
        <time>2018-06-25T11:17:44Z</time>
      </trkpt>
      <trkpt lat="48.07618" lon="5.44123">
        <ele>427</ele>
        <time>2018-06-25T11:17:52Z</time>
      </trkpt>
      <trkpt lat="48.07615" lon="5.44108">
        <ele>426</ele>
        <time>2018-06-25T11:18:00Z</time>
      </trkpt>
      <trkpt lat="48.0761" lon="5.44094">
        <ele>425</ele>
        <time>2018-06-25T11:18:08Z</time>
      </trkpt>
      <trkpt lat="48.07606" lon="5.44081">
        <ele>424</ele>
        <time>2018-06-25T11:18:15Z</time>
      </trkpt>
      <trkpt lat="48.07601" lon="5.44067">
        <ele>423</ele>
        <time>2018-06-25T11:18:23Z</time>
      </trkpt>
      <trkpt lat="48.07596" lon="5.44054">
        <ele>422</ele>
        <time>2018-06-25T11:18:31Z</time>
      </trkpt>
      <trkpt lat="48.07593" lon="5.4404">
        <ele>421</ele>
        <time>2018-06-25T11:18:38Z</time>
      </trkpt>
      <trkpt lat="48.07588" lon="5.44025">
        <ele>420</ele>
        <time>2018-06-25T11:18:46Z</time>
      </trkpt>
      <trkpt lat="48.07585" lon="5.44013">
        <ele>419</ele>
        <time>2018-06-25T11:18:54Z</time>
      </trkpt>
      <trkpt lat="48.0758" lon="5.44001">
        <ele>418</ele>
        <time>2018-06-25T11:19:02Z</time>
      </trkpt>
      <trkpt lat="48.07576" lon="5.43988">
        <ele>417</ele>
        <time>2018-06-25T11:19:09Z</time>
      </trkpt>
      <trkpt lat="48.07572" lon="5.43975">
        <ele>416</ele>
        <time>2018-06-25T11:19:17Z</time>
      </trkpt>
      <trkpt lat="48.07568" lon="5.43961">
        <ele>415</ele>
        <time>2018-06-25T11:19:25Z</time>
      </trkpt>
      <trkpt lat="48.07567" lon="5.43952">
        <ele>414</ele>
        <time>2018-06-25T11:19:56Z</time>
      </trkpt>
      <trkpt lat="48.07563" lon="5.43935">
        <ele>414</ele>
        <time>2018-06-25T11:20:04Z</time>
      </trkpt>
      <trkpt lat="48.07558" lon="5.43921">
        <ele>413</ele>
        <time>2018-06-25T11:20:12Z</time>
      </trkpt>
      <trkpt lat="48.07554" lon="5.43906">
        <ele>412</ele>
        <time>2018-06-25T11:20:20Z</time>
      </trkpt>
      <trkpt lat="48.07551" lon="5.43891">
        <ele>412</ele>
        <time>2018-06-25T11:20:28Z</time>
      </trkpt>
      <trkpt lat="48.07547" lon="5.43877">
        <ele>411</ele>
        <time>2018-06-25T11:20:36Z</time>
      </trkpt>
      <trkpt lat="48.07541" lon="5.43864">
        <ele>411</ele>
        <time>2018-06-25T11:20:43Z</time>
      </trkpt>
      <trkpt lat="48.07538" lon="5.43851">
        <ele>410</ele>
        <time>2018-06-25T11:20:51Z</time>
      </trkpt>
      <trkpt lat="48.07535" lon="5.43836">
        <ele>410</ele>
        <time>2018-06-25T11:20:59Z</time>
      </trkpt>
      <trkpt lat="48.07532" lon="5.43821">
        <ele>409</ele>
        <time>2018-06-25T11:21:07Z</time>
      </trkpt>
      <trkpt lat="48.07528" lon="5.43807">
        <ele>408</ele>
        <time>2018-06-25T11:21:15Z</time>
      </trkpt>
      <trkpt lat="48.07525" lon="5.43793">
        <ele>408</ele>
        <time>2018-06-25T11:21:24Z</time>
      </trkpt>
      <trkpt lat="48.07522" lon="5.43779">
        <ele>407</ele>
        <time>2018-06-25T11:21:35Z</time>
      </trkpt>
      <trkpt lat="48.07517" lon="5.43763">
        <ele>406</ele>
        <time>2018-06-25T11:21:43Z</time>
      </trkpt>
      <trkpt lat="48.07513" lon="5.43748">
        <ele>405</ele>
        <time>2018-06-25T11:21:52Z</time>
      </trkpt>
      <trkpt lat="48.07506" lon="5.43737">
        <ele>404</ele>
        <time>2018-06-25T11:22:00Z</time>
      </trkpt>
      <trkpt lat="48.07499" lon="5.43725">
        <ele>404</ele>
        <time>2018-06-25T11:22:08Z</time>
      </trkpt>
      <trkpt lat="48.07489" lon="5.43718">
        <ele>402</ele>
        <time>2018-06-25T11:22:16Z</time>
      </trkpt>
      <trkpt lat="48.0748" lon="5.4372">
        <ele>401</ele>
        <time>2018-06-25T11:22:23Z</time>
      </trkpt>
      <trkpt lat="48.07471" lon="5.43726">
        <ele>401</ele>
        <time>2018-06-25T11:22:30Z</time>
      </trkpt>
      <trkpt lat="48.07466" lon="5.43739">
        <ele>400</ele>
        <time>2018-06-25T11:22:37Z</time>
      </trkpt>
      <trkpt lat="48.07461" lon="5.43753">
        <ele>399</ele>
        <time>2018-06-25T11:22:44Z</time>
      </trkpt>
      <trkpt lat="48.07458" lon="5.43767">
        <ele>399</ele>
        <time>2018-06-25T11:22:52Z</time>
      </trkpt>
      <trkpt lat="48.07454" lon="5.4378">
        <ele>399</ele>
        <time>2018-06-25T11:22:59Z</time>
      </trkpt>
      <trkpt lat="48.07451" lon="5.43794">
        <ele>398</ele>
        <time>2018-06-25T11:23:06Z</time>
      </trkpt>
      <trkpt lat="48.07447" lon="5.43808">
        <ele>398</ele>
        <time>2018-06-25T11:23:13Z</time>
      </trkpt>
      <trkpt lat="48.07444" lon="5.4382">
        <ele>397</ele>
        <time>2018-06-25T11:23:20Z</time>
      </trkpt>
      <trkpt lat="48.07442" lon="5.43833">
        <ele>396</ele>
        <time>2018-06-25T11:23:27Z</time>
      </trkpt>
      <trkpt lat="48.07438" lon="5.43844">
        <ele>396</ele>
        <time>2018-06-25T11:23:34Z</time>
      </trkpt>
      <trkpt lat="48.07433" lon="5.43856">
        <ele>395</ele>
        <time>2018-06-25T11:23:41Z</time>
      </trkpt>
      <trkpt lat="48.07427" lon="5.43868">
        <ele>394</ele>
        <time>2018-06-25T11:23:48Z</time>
      </trkpt>
      <trkpt lat="48.07419" lon="5.43876">
        <ele>395</ele>
        <time>2018-06-25T11:23:56Z</time>
      </trkpt>
      <trkpt lat="48.07411" lon="5.43873">
        <ele>394</ele>
        <time>2018-06-25T11:24:04Z</time>
      </trkpt>
      <trkpt lat="48.07402" lon="5.4387">
        <ele>394</ele>
        <time>2018-06-25T11:24:12Z</time>
      </trkpt>
      <trkpt lat="48.0739" lon="5.43864">
        <ele>393</ele>
        <time>2018-06-25T11:24:22Z</time>
      </trkpt>
      <trkpt lat="48.07379" lon="5.43861">
        <ele>392</ele>
        <time>2018-06-25T11:24:30Z</time>
      </trkpt>
      <trkpt lat="48.07367" lon="5.43856">
        <ele>392</ele>
        <time>2018-06-25T11:24:40Z</time>
      </trkpt>
      <trkpt lat="48.07356" lon="5.43854">
        <ele>392</ele>
        <time>2018-06-25T11:24:48Z</time>
      </trkpt>
      <trkpt lat="48.07347" lon="5.4385">
        <ele>393</ele>
        <time>2018-06-25T11:24:56Z</time>
      </trkpt>
      <trkpt lat="48.07336" lon="5.43849">
        <ele>393</ele>
        <time>2018-06-25T11:25:05Z</time>
      </trkpt>
      <trkpt lat="48.07329" lon="5.43855">
        <ele>393</ele>
        <time>2018-06-25T11:25:13Z</time>
      </trkpt>
      <trkpt lat="48.07319" lon="5.4386">
        <ele>393</ele>
        <time>2018-06-25T11:25:31Z</time>
      </trkpt>
      <trkpt lat="48.0731" lon="5.43869">
        <ele>394</ele>
        <time>2018-06-25T11:25:39Z</time>
      </trkpt>
      <trkpt lat="48.073" lon="5.43877">
        <ele>395</ele>
        <time>2018-06-25T11:25:48Z</time>
      </trkpt>
      <trkpt lat="48.07292" lon="5.43881">
        <ele>395</ele>
        <time>2018-06-25T11:25:58Z</time>
      </trkpt>
      <trkpt lat="48.07285" lon="5.43884">
        <ele>396</ele>
        <time>2018-06-25T11:26:35Z</time>
      </trkpt>
      <trkpt lat="48.07275" lon="5.43893">
        <ele>396</ele>
        <time>2018-06-25T11:26:43Z</time>
      </trkpt>
      <trkpt lat="48.07265" lon="5.43901">
        <ele>397</ele>
        <time>2018-06-25T11:26:51Z</time>
      </trkpt>
      <trkpt lat="48.07256" lon="5.43908">
        <ele>397</ele>
        <time>2018-06-25T11:26:58Z</time>
      </trkpt>
      <trkpt lat="48.07248" lon="5.43915">
        <ele>398</ele>
        <time>2018-06-25T11:27:05Z</time>
      </trkpt>
      <trkpt lat="48.07239" lon="5.43923">
        <ele>399</ele>
        <time>2018-06-25T11:27:12Z</time>
      </trkpt>
      <trkpt lat="48.0723" lon="5.43931">
        <ele>399</ele>
        <time>2018-06-25T11:27:20Z</time>
      </trkpt>
      <trkpt lat="48.07221" lon="5.43937">
        <ele>400</ele>
        <time>2018-06-25T11:27:28Z</time>
      </trkpt>
      <trkpt lat="48.07211" lon="5.43945">
        <ele>401</ele>
        <time>2018-06-25T11:27:36Z</time>
      </trkpt>
      <trkpt lat="48.07202" lon="5.43952">
        <ele>401</ele>
        <time>2018-06-25T11:27:44Z</time>
      </trkpt>
      <trkpt lat="48.07192" lon="5.43958">
        <ele>401</ele>
        <time>2018-06-25T11:27:52Z</time>
      </trkpt>
      <trkpt lat="48.07183" lon="5.43966">
        <ele>402</ele>
        <time>2018-06-25T11:28:00Z</time>
      </trkpt>
      <trkpt lat="48.07174" lon="5.43974">
        <ele>403</ele>
        <time>2018-06-25T11:28:08Z</time>
      </trkpt>
      <trkpt lat="48.07167" lon="5.43981">
        <ele>402</ele>
        <time>2018-06-25T11:28:15Z</time>
      </trkpt>
      <trkpt lat="48.07158" lon="5.43988">
        <ele>404</ele>
        <time>2018-06-25T11:28:23Z</time>
      </trkpt>
      <trkpt lat="48.07149" lon="5.43995">
        <ele>403</ele>
        <time>2018-06-25T11:28:31Z</time>
      </trkpt>
      <trkpt lat="48.0714" lon="5.44003">
        <ele>405</ele>
        <time>2018-06-25T11:28:39Z</time>
      </trkpt>
      <trkpt lat="48.07131" lon="5.4401">
        <ele>405</ele>
        <time>2018-06-25T11:28:47Z</time>
      </trkpt>
      <trkpt lat="48.07122" lon="5.44016">
        <ele>406</ele>
        <time>2018-06-25T11:28:54Z</time>
      </trkpt>
      <trkpt lat="48.07114" lon="5.44023">
        <ele>406</ele>
        <time>2018-06-25T11:29:01Z</time>
      </trkpt>
      <trkpt lat="48.07105" lon="5.44028">
        <ele>407</ele>
        <time>2018-06-25T11:29:08Z</time>
      </trkpt>
      <trkpt lat="48.07097" lon="5.44033">
        <ele>408</ele>
        <time>2018-06-25T11:29:15Z</time>
      </trkpt>
      <trkpt lat="48.07089" lon="5.4404">
        <ele>408</ele>
        <time>2018-06-25T11:29:22Z</time>
      </trkpt>
      <trkpt lat="48.0708" lon="5.44046">
        <ele>408</ele>
        <time>2018-06-25T11:29:29Z</time>
      </trkpt>
      <trkpt lat="48.07072" lon="5.44051">
        <ele>409</ele>
        <time>2018-06-25T11:29:36Z</time>
      </trkpt>
      <trkpt lat="48.07063" lon="5.44057">
        <ele>410</ele>
        <time>2018-06-25T11:29:43Z</time>
      </trkpt>
      <trkpt lat="48.07055" lon="5.44063">
        <ele>410</ele>
        <time>2018-06-25T11:29:50Z</time>
      </trkpt>
      <trkpt lat="48.07047" lon="5.4407">
        <ele>411</ele>
        <time>2018-06-25T11:29:58Z</time>
      </trkpt>
      <trkpt lat="48.07038" lon="5.44077">
        <ele>411</ele>
        <time>2018-06-25T11:30:06Z</time>
      </trkpt>
      <trkpt lat="48.07029" lon="5.44084">
        <ele>412</ele>
        <time>2018-06-25T11:30:14Z</time>
      </trkpt>
      <trkpt lat="48.07022" lon="5.44093">
        <ele>412</ele>
        <time>2018-06-25T11:30:21Z</time>
      </trkpt>
      <trkpt lat="48.07014" lon="5.441">
        <ele>413</ele>
        <time>2018-06-25T11:30:28Z</time>
      </trkpt>
      <trkpt lat="48.07006" lon="5.44108">
        <ele>413</ele>
        <time>2018-06-25T11:30:36Z</time>
      </trkpt>
      <trkpt lat="48.06998" lon="5.44117">
        <ele>413</ele>
        <time>2018-06-25T11:30:44Z</time>
      </trkpt>
      <trkpt lat="48.0699" lon="5.44127">
        <ele>414</ele>
        <time>2018-06-25T11:30:52Z</time>
      </trkpt>
      <trkpt lat="48.06982" lon="5.44138">
        <ele>414</ele>
        <time>2018-06-25T11:31:01Z</time>
      </trkpt>
      <trkpt lat="48.06977" lon="5.44151">
        <ele>414</ele>
        <time>2018-06-25T11:31:09Z</time>
      </trkpt>
      <trkpt lat="48.06971" lon="5.44165">
        <ele>416</ele>
        <time>2018-06-25T11:31:17Z</time>
      </trkpt>
      <trkpt lat="48.06966" lon="5.44176">
        <ele>416</ele>
        <time>2018-06-25T11:31:24Z</time>
      </trkpt>
      <trkpt lat="48.06962" lon="5.44188">
        <ele>416</ele>
        <time>2018-06-25T11:31:31Z</time>
      </trkpt>
      <trkpt lat="48.06957" lon="5.44201">
        <ele>417</ele>
        <time>2018-06-25T11:31:39Z</time>
      </trkpt>
      <trkpt lat="48.0695" lon="5.44212">
        <ele>417</ele>
        <time>2018-06-25T11:31:46Z</time>
      </trkpt>
      <trkpt lat="48.06944" lon="5.44224">
        <ele>416</ele>
        <time>2018-06-25T11:31:54Z</time>
      </trkpt>
      <trkpt lat="48.06937" lon="5.44236">
        <ele>416</ele>
        <time>2018-06-25T11:32:02Z</time>
      </trkpt>
      <trkpt lat="48.06931" lon="5.44246">
        <ele>417</ele>
        <time>2018-06-25T11:32:09Z</time>
      </trkpt>
      <trkpt lat="48.06925" lon="5.44256">
        <ele>417</ele>
        <time>2018-06-25T11:32:16Z</time>
      </trkpt>
      <trkpt lat="48.06917" lon="5.44263">
        <ele>416</ele>
        <time>2018-06-25T11:32:23Z</time>
      </trkpt>
      <trkpt lat="48.06909" lon="5.44271">
        <ele>416</ele>
        <time>2018-06-25T11:32:31Z</time>
      </trkpt>
      <trkpt lat="48.069" lon="5.44279">
        <ele>415</ele>
        <time>2018-06-25T11:32:39Z</time>
      </trkpt>
      <trkpt lat="48.06891" lon="5.44288">
        <ele>415</ele>
        <time>2018-06-25T11:32:47Z</time>
      </trkpt>
      <trkpt lat="48.06883" lon="5.44295">
        <ele>414</ele>
        <time>2018-06-25T11:32:55Z</time>
      </trkpt>
      <trkpt lat="48.06874" lon="5.44304">
        <ele>414</ele>
        <time>2018-06-25T11:33:04Z</time>
      </trkpt>
      <trkpt lat="48.06866" lon="5.44313">
        <ele>414</ele>
        <time>2018-06-25T11:33:12Z</time>
      </trkpt>
      <trkpt lat="48.06856" lon="5.44323">
        <ele>415</ele>
        <time>2018-06-25T11:33:21Z</time>
      </trkpt>
      <trkpt lat="48.06847" lon="5.44331">
        <ele>415</ele>
        <time>2018-06-25T11:33:29Z</time>
      </trkpt>
      <trkpt lat="48.06839" lon="5.44342">
        <ele>414</ele>
        <time>2018-06-25T11:33:37Z</time>
      </trkpt>
      <trkpt lat="48.06831" lon="5.44351">
        <ele>414</ele>
        <time>2018-06-25T11:33:45Z</time>
      </trkpt>
      <trkpt lat="48.06822" lon="5.44359">
        <ele>414</ele>
        <time>2018-06-25T11:33:53Z</time>
      </trkpt>
      <trkpt lat="48.06815" lon="5.44367">
        <ele>414</ele>
        <time>2018-06-25T11:34:00Z</time>
      </trkpt>
      <trkpt lat="48.06806" lon="5.44374">
        <ele>414</ele>
        <time>2018-06-25T11:34:08Z</time>
      </trkpt>
      <trkpt lat="48.06797" lon="5.4438">
        <ele>415</ele>
        <time>2018-06-25T11:34:16Z</time>
      </trkpt>
      <trkpt lat="48.06788" lon="5.44385">
        <ele>415</ele>
        <time>2018-06-25T11:34:23Z</time>
      </trkpt>
      <trkpt lat="48.06779" lon="5.4439">
        <ele>415</ele>
        <time>2018-06-25T11:34:31Z</time>
      </trkpt>
      <trkpt lat="48.0677" lon="5.44396">
        <ele>416</ele>
        <time>2018-06-25T11:34:39Z</time>
      </trkpt>
      <trkpt lat="48.06761" lon="5.44402">
        <ele>415</ele>
        <time>2018-06-25T11:34:47Z</time>
      </trkpt>
      <trkpt lat="48.06751" lon="5.44407">
        <ele>416</ele>
        <time>2018-06-25T11:34:54Z</time>
      </trkpt>
      <trkpt lat="48.06742" lon="5.4441">
        <ele>416</ele>
        <time>2018-06-25T11:35:02Z</time>
      </trkpt>
      <trkpt lat="48.06732" lon="5.44412">
        <ele>415</ele>
        <time>2018-06-25T11:35:10Z</time>
      </trkpt>
      <trkpt lat="48.06722" lon="5.44415">
        <ele>416</ele>
        <time>2018-06-25T11:35:18Z</time>
      </trkpt>
      <trkpt lat="48.06712" lon="5.44417">
        <ele>416</ele>
        <time>2018-06-25T11:35:26Z</time>
      </trkpt>
      <trkpt lat="48.06702" lon="5.4442">
        <ele>416</ele>
        <time>2018-06-25T11:35:34Z</time>
      </trkpt>
      <trkpt lat="48.06691" lon="5.44422">
        <ele>415</ele>
        <time>2018-06-25T11:35:42Z</time>
      </trkpt>
      <trkpt lat="48.06682" lon="5.44423">
        <ele>415</ele>
        <time>2018-06-25T11:35:49Z</time>
      </trkpt>
      <trkpt lat="48.06673" lon="5.44424">
        <ele>415</ele>
        <time>2018-06-25T11:35:56Z</time>
      </trkpt>
      <trkpt lat="48.06663" lon="5.44424">
        <ele>415</ele>
        <time>2018-06-25T11:36:04Z</time>
      </trkpt>
      <trkpt lat="48.06654" lon="5.44425">
        <ele>415</ele>
        <time>2018-06-25T11:36:11Z</time>
      </trkpt>
      <trkpt lat="48.06644" lon="5.44427">
        <ele>415</ele>
        <time>2018-06-25T11:36:19Z</time>
      </trkpt>
      <trkpt lat="48.06633" lon="5.44431">
        <ele>415</ele>
        <time>2018-06-25T11:36:27Z</time>
      </trkpt>
      <trkpt lat="48.06624" lon="5.44437">
        <ele>416</ele>
        <time>2018-06-25T11:36:35Z</time>
      </trkpt>
      <trkpt lat="48.06615" lon="5.44444">
        <ele>415</ele>
        <time>2018-06-25T11:36:43Z</time>
      </trkpt>
      <trkpt lat="48.06606" lon="5.44451">
        <ele>415</ele>
        <time>2018-06-25T11:36:51Z</time>
      </trkpt>
      <trkpt lat="48.06598" lon="5.44458">
        <ele>416</ele>
        <time>2018-06-25T11:36:58Z</time>
      </trkpt>
      <trkpt lat="48.0659" lon="5.44467">
        <ele>416</ele>
        <time>2018-06-25T11:37:06Z</time>
      </trkpt>
      <trkpt lat="48.06583" lon="5.44474">
        <ele>415</ele>
        <time>2018-06-25T11:37:13Z</time>
      </trkpt>
      <trkpt lat="48.06575" lon="5.44484">
        <ele>416</ele>
        <time>2018-06-25T11:37:21Z</time>
      </trkpt>
      <trkpt lat="48.06568" lon="5.44495">
        <ele>416</ele>
        <time>2018-06-25T11:37:28Z</time>
      </trkpt>
      <trkpt lat="48.06561" lon="5.44505">
        <ele>415</ele>
        <time>2018-06-25T11:37:35Z</time>
      </trkpt>
      <trkpt lat="48.06555" lon="5.44514">
        <ele>416</ele>
        <time>2018-06-25T11:37:42Z</time>
      </trkpt>
      <trkpt lat="48.06549" lon="5.44525">
        <ele>415</ele>
        <time>2018-06-25T11:37:49Z</time>
      </trkpt>
      <trkpt lat="48.06544" lon="5.44535">
        <ele>415</ele>
        <time>2018-06-25T11:37:57Z</time>
      </trkpt>
      <trkpt lat="48.06538" lon="5.44545">
        <ele>415</ele>
        <time>2018-06-25T11:38:05Z</time>
      </trkpt>
      <trkpt lat="48.06529" lon="5.44554">
        <ele>414</ele>
        <time>2018-06-25T11:38:13Z</time>
      </trkpt>
      <trkpt lat="48.06519" lon="5.44555">
        <ele>414</ele>
        <time>2018-06-25T11:38:21Z</time>
      </trkpt>
      <trkpt lat="48.0651" lon="5.44552">
        <ele>413</ele>
        <time>2018-06-25T11:38:28Z</time>
      </trkpt>
      <trkpt lat="48.065" lon="5.44546">
        <ele>413</ele>
        <time>2018-06-25T11:38:36Z</time>
      </trkpt>
      <trkpt lat="48.06492" lon="5.44535">
        <ele>412</ele>
        <time>2018-06-25T11:38:44Z</time>
      </trkpt>
      <trkpt lat="48.06485" lon="5.44527">
        <ele>412</ele>
        <time>2018-06-25T11:38:51Z</time>
      </trkpt>
      <trkpt lat="48.06477" lon="5.44517">
        <ele>411</ele>
        <time>2018-06-25T11:38:59Z</time>
      </trkpt>
      <trkpt lat="48.06469" lon="5.44507">
        <ele>411</ele>
        <time>2018-06-25T11:39:07Z</time>
      </trkpt>
      <trkpt lat="48.06461" lon="5.44497">
        <ele>410</ele>
        <time>2018-06-25T11:39:15Z</time>
      </trkpt>
      <trkpt lat="48.06453" lon="5.44488">
        <ele>409</ele>
        <time>2018-06-25T11:39:22Z</time>
      </trkpt>
      <trkpt lat="48.06445" lon="5.44477">
        <ele>409</ele>
        <time>2018-06-25T11:39:30Z</time>
      </trkpt>
      <trkpt lat="48.06438" lon="5.44468">
        <ele>409</ele>
        <time>2018-06-25T11:39:37Z</time>
      </trkpt>
      <trkpt lat="48.06431" lon="5.44461">
        <ele>409</ele>
        <time>2018-06-25T11:39:44Z</time>
      </trkpt>
      <trkpt lat="48.06423" lon="5.44451">
        <ele>408</ele>
        <time>2018-06-25T11:39:52Z</time>
      </trkpt>
      <trkpt lat="48.06416" lon="5.44442">
        <ele>407</ele>
        <time>2018-06-25T11:39:59Z</time>
      </trkpt>
      <trkpt lat="48.06409" lon="5.44431">
        <ele>406</ele>
        <time>2018-06-25T11:40:07Z</time>
      </trkpt>
      <trkpt lat="48.06401" lon="5.44422">
        <ele>407</ele>
        <time>2018-06-25T11:40:15Z</time>
      </trkpt>
      <trkpt lat="48.06394" lon="5.44411">
        <ele>406</ele>
        <time>2018-06-25T11:40:23Z</time>
      </trkpt>
      <trkpt lat="48.06386" lon="5.44402">
        <ele>405</ele>
        <time>2018-06-25T11:40:31Z</time>
      </trkpt>
      <trkpt lat="48.06378" lon="5.44392">
        <ele>405</ele>
        <time>2018-06-25T11:40:39Z</time>
      </trkpt>
      <trkpt lat="48.06371" lon="5.44382">
        <ele>404</ele>
        <time>2018-06-25T11:40:46Z</time>
      </trkpt>
      <trkpt lat="48.06364" lon="5.44372">
        <ele>403</ele>
        <time>2018-06-25T11:40:53Z</time>
      </trkpt>
      <trkpt lat="48.06358" lon="5.44363">
        <ele>402</ele>
        <time>2018-06-25T11:41:01Z</time>
      </trkpt>
      <trkpt lat="48.06351" lon="5.44353">
        <ele>402</ele>
        <time>2018-06-25T11:41:09Z</time>
      </trkpt>
      <trkpt lat="48.06343" lon="5.44342">
        <ele>401</ele>
        <time>2018-06-25T11:41:18Z</time>
      </trkpt>
      <trkpt lat="48.06336" lon="5.4433">
        <ele>401</ele>
        <time>2018-06-25T11:41:26Z</time>
      </trkpt>
      <trkpt lat="48.06327" lon="5.44319">
        <ele>401</ele>
        <time>2018-06-25T11:41:35Z</time>
      </trkpt>
      <trkpt lat="48.06319" lon="5.44307">
        <ele>400</ele>
        <time>2018-06-25T11:41:45Z</time>
      </trkpt>
      <trkpt lat="48.06313" lon="5.44295">
        <ele>400</ele>
        <time>2018-06-25T11:44:09Z</time>
      </trkpt>
      <trkpt lat="48.06301" lon="5.44285">
        <ele>399</ele>
        <time>2018-06-25T11:44:28Z</time>
      </trkpt>
      <trkpt lat="48.06295" lon="5.44271">
        <ele>398</ele>
        <time>2018-06-25T11:44:52Z</time>
      </trkpt>
      <trkpt lat="48.06285" lon="5.44261">
        <ele>398</ele>
        <time>2018-06-25T11:45:02Z</time>
      </trkpt>
      <trkpt lat="48.06276" lon="5.44252">
        <ele>398</ele>
        <time>2018-06-25T11:45:11Z</time>
      </trkpt>
      <trkpt lat="48.06268" lon="5.4424">
        <ele>397</ele>
        <time>2018-06-25T11:45:20Z</time>
      </trkpt>
      <trkpt lat="48.0626" lon="5.44227">
        <ele>397</ele>
        <time>2018-06-25T11:45:29Z</time>
      </trkpt>
      <trkpt lat="48.0625" lon="5.44214">
        <ele>396</ele>
        <time>2018-06-25T11:45:38Z</time>
      </trkpt>
      <trkpt lat="48.06243" lon="5.44203">
        <ele>396</ele>
        <time>2018-06-25T11:45:46Z</time>
      </trkpt>
      <trkpt lat="48.06235" lon="5.44194">
        <ele>396</ele>
        <time>2018-06-25T11:45:55Z</time>
      </trkpt>
      <trkpt lat="48.06227" lon="5.44183">
        <ele>395</ele>
        <time>2018-06-25T11:46:03Z</time>
      </trkpt>
      <trkpt lat="48.06218" lon="5.44176">
        <ele>394</ele>
        <time>2018-06-25T11:46:10Z</time>
      </trkpt>
      <trkpt lat="48.06209" lon="5.4417">
        <ele>394</ele>
        <time>2018-06-25T11:46:18Z</time>
      </trkpt>
      <trkpt lat="48.06201" lon="5.44166">
        <ele>395</ele>
        <time>2018-06-25T11:46:26Z</time>
      </trkpt>
      <trkpt lat="48.0619" lon="5.44164">
        <ele>395</ele>
        <time>2018-06-25T11:46:34Z</time>
      </trkpt>
      <trkpt lat="48.0618" lon="5.44166">
        <ele>395</ele>
        <time>2018-06-25T11:46:41Z</time>
      </trkpt>
      <trkpt lat="48.0617" lon="5.4417">
        <ele>395</ele>
        <time>2018-06-25T11:46:48Z</time>
      </trkpt>
      <trkpt lat="48.0616" lon="5.44175">
        <ele>395</ele>
        <time>2018-06-25T11:46:56Z</time>
      </trkpt>
      <trkpt lat="48.06151" lon="5.44181">
        <ele>395</ele>
        <time>2018-06-25T11:47:04Z</time>
      </trkpt>
      <trkpt lat="48.06142" lon="5.44187">
        <ele>395</ele>
        <time>2018-06-25T11:47:12Z</time>
      </trkpt>
      <trkpt lat="48.06133" lon="5.44194">
        <ele>395</ele>
        <time>2018-06-25T11:47:19Z</time>
      </trkpt>
      <trkpt lat="48.06124" lon="5.44201">
        <ele>395</ele>
        <time>2018-06-25T11:47:27Z</time>
      </trkpt>
      <trkpt lat="48.06115" lon="5.44209">
        <ele>395</ele>
        <time>2018-06-25T11:47:35Z</time>
      </trkpt>
      <trkpt lat="48.06105" lon="5.44216">
        <ele>395</ele>
        <time>2018-06-25T11:47:43Z</time>
      </trkpt>
      <trkpt lat="48.06096" lon="5.44225">
        <ele>395</ele>
        <time>2018-06-25T11:47:51Z</time>
      </trkpt>
      <trkpt lat="48.06087" lon="5.44233">
        <ele>395</ele>
        <time>2018-06-25T11:47:59Z</time>
      </trkpt>
      <trkpt lat="48.06078" lon="5.44239">
        <ele>395</ele>
        <time>2018-06-25T11:48:07Z</time>
      </trkpt>
      <trkpt lat="48.06068" lon="5.44247">
        <ele>395</ele>
        <time>2018-06-25T11:48:15Z</time>
      </trkpt>
      <trkpt lat="48.06059" lon="5.44253">
        <ele>395</ele>
        <time>2018-06-25T11:48:22Z</time>
      </trkpt>
      <trkpt lat="48.0605" lon="5.44258">
        <ele>394</ele>
        <time>2018-06-25T11:48:29Z</time>
      </trkpt>
      <trkpt lat="48.0604" lon="5.44263">
        <ele>394</ele>
        <time>2018-06-25T11:48:37Z</time>
      </trkpt>
      <trkpt lat="48.06031" lon="5.44266">
        <ele>395</ele>
        <time>2018-06-25T11:48:44Z</time>
      </trkpt>
      <trkpt lat="48.06021" lon="5.4427">
        <ele>395</ele>
        <time>2018-06-25T11:48:52Z</time>
      </trkpt>
      <trkpt lat="48.06011" lon="5.44273">
        <ele>395</ele>
        <time>2018-06-25T11:48:59Z</time>
      </trkpt>
      <trkpt lat="48.06002" lon="5.44276">
        <ele>395</ele>
        <time>2018-06-25T11:49:06Z</time>
      </trkpt>
      <trkpt lat="48.05992" lon="5.44279">
        <ele>396</ele>
        <time>2018-06-25T11:49:14Z</time>
      </trkpt>
      <trkpt lat="48.05982" lon="5.44282">
        <ele>396</ele>
        <time>2018-06-25T11:49:22Z</time>
      </trkpt>
      <trkpt lat="48.05973" lon="5.44284">
        <ele>396</ele>
        <time>2018-06-25T11:49:30Z</time>
      </trkpt>
      <trkpt lat="48.05962" lon="5.44286">
        <ele>397</ele>
        <time>2018-06-25T11:49:39Z</time>
      </trkpt>
      <trkpt lat="48.05951" lon="5.44291">
        <ele>398</ele>
        <time>2018-06-25T11:49:49Z</time>
      </trkpt>
      <trkpt lat="48.05939" lon="5.44295">
        <ele>398</ele>
        <time>2018-06-25T11:49:58Z</time>
      </trkpt>
      <trkpt lat="48.05926" lon="5.44298">
        <ele>399</ele>
        <time>2018-06-25T11:50:09Z</time>
      </trkpt>
      <trkpt lat="48.05914" lon="5.44303">
        <ele>399</ele>
        <time>2018-06-25T11:50:19Z</time>
      </trkpt>
      <trkpt lat="48.05902" lon="5.44306">
        <ele>399</ele>
        <time>2018-06-25T11:50:30Z</time>
      </trkpt>
      <trkpt lat="48.0589" lon="5.4431">
        <ele>400</ele>
        <time>2018-06-25T11:50:40Z</time>
      </trkpt>
      <trkpt lat="48.05878" lon="5.44313">
        <ele>401</ele>
        <time>2018-06-25T11:50:50Z</time>
      </trkpt>
      <trkpt lat="48.05866" lon="5.44317">
        <ele>401</ele>
        <time>2018-06-25T11:51:00Z</time>
      </trkpt>
      <trkpt lat="48.05855" lon="5.44321">
        <ele>401</ele>
        <time>2018-06-25T11:51:09Z</time>
      </trkpt>
      <trkpt lat="48.05844" lon="5.44321">
        <ele>401</ele>
        <time>2018-06-25T11:51:19Z</time>
      </trkpt>
      <trkpt lat="48.05832" lon="5.44314">
        <ele>401</ele>
        <time>2018-06-25T11:51:29Z</time>
      </trkpt>
      <trkpt lat="48.05821" lon="5.44306">
        <ele>402</ele>
        <time>2018-06-25T11:51:38Z</time>
      </trkpt>
      <trkpt lat="48.05808" lon="5.443">
        <ele>402</ele>
        <time>2018-06-25T11:51:48Z</time>
      </trkpt>
      <trkpt lat="48.05797" lon="5.44297">
        <ele>403</ele>
        <time>2018-06-25T11:51:59Z</time>
      </trkpt>
      <trkpt lat="48.05784" lon="5.44292">
        <ele>403</ele>
        <time>2018-06-25T11:52:08Z</time>
      </trkpt>
      <trkpt lat="48.05771" lon="5.44294">
        <ele>403</ele>
        <time>2018-06-25T11:52:20Z</time>
      </trkpt>
      <trkpt lat="48.05759" lon="5.44295">
        <ele>404</ele>
        <time>2018-06-25T11:52:30Z</time>
      </trkpt>
      <trkpt lat="48.05746" lon="5.44295">
        <ele>403</ele>
        <time>2018-06-25T11:52:41Z</time>
      </trkpt>
      <trkpt lat="48.05733" lon="5.44293">
        <ele>404</ele>
        <time>2018-06-25T11:52:51Z</time>
      </trkpt>
      <trkpt lat="48.05722" lon="5.44292">
        <ele>405</ele>
        <time>2018-06-25T11:53:00Z</time>
      </trkpt>
      <trkpt lat="48.05713" lon="5.44293">
        <ele>405</ele>
        <time>2018-06-25T11:53:08Z</time>
      </trkpt>
      <trkpt lat="48.05704" lon="5.44295">
        <ele>406</ele>
        <time>2018-06-25T11:53:16Z</time>
      </trkpt>
      <trkpt lat="48.05694" lon="5.44297">
        <ele>406</ele>
        <time>2018-06-25T11:53:24Z</time>
      </trkpt>
      <trkpt lat="48.05686" lon="5.44302">
        <ele>407</ele>
        <time>2018-06-25T11:53:32Z</time>
      </trkpt>
      <trkpt lat="48.05677" lon="5.44307">
        <ele>407</ele>
        <time>2018-06-25T11:53:40Z</time>
      </trkpt>
      <trkpt lat="48.05668" lon="5.44314">
        <ele>408</ele>
        <time>2018-06-25T11:53:49Z</time>
      </trkpt>
      <trkpt lat="48.0566" lon="5.44322">
        <ele>409</ele>
        <time>2018-06-25T11:53:57Z</time>
      </trkpt>
      <trkpt lat="48.05652" lon="5.44327">
        <ele>409</ele>
        <time>2018-06-25T11:54:05Z</time>
      </trkpt>
      <trkpt lat="48.05643" lon="5.44334">
        <ele>408</ele>
        <time>2018-06-25T11:54:13Z</time>
      </trkpt>
      <trkpt lat="48.05634" lon="5.4434">
        <ele>410</ele>
        <time>2018-06-25T11:54:22Z</time>
      </trkpt>
      <trkpt lat="48.05625" lon="5.44345">
        <ele>410</ele>
        <time>2018-06-25T11:54:30Z</time>
      </trkpt>
      <trkpt lat="48.05615" lon="5.44349">
        <ele>410</ele>
        <time>2018-06-25T11:54:38Z</time>
      </trkpt>
      <trkpt lat="48.05605" lon="5.44352">
        <ele>410</ele>
        <time>2018-06-25T11:54:45Z</time>
      </trkpt>
      <trkpt lat="48.05595" lon="5.44354">
        <ele>410</ele>
        <time>2018-06-25T11:54:52Z</time>
      </trkpt>
      <trkpt lat="48.05586" lon="5.44355">
        <ele>410</ele>
        <time>2018-06-25T11:54:59Z</time>
      </trkpt>
      <trkpt lat="48.05577" lon="5.44355">
        <ele>411</ele>
        <time>2018-06-25T11:55:06Z</time>
      </trkpt>
      <trkpt lat="48.05567" lon="5.44355">
        <ele>410</ele>
        <time>2018-06-25T11:55:13Z</time>
      </trkpt>
      <trkpt lat="48.05558" lon="5.44356">
        <ele>411</ele>
        <time>2018-06-25T11:55:20Z</time>
      </trkpt>
      <trkpt lat="48.05549" lon="5.44356">
        <ele>411</ele>
        <time>2018-06-25T11:55:28Z</time>
      </trkpt>
      <trkpt lat="48.05539" lon="5.44356">
        <ele>411</ele>
        <time>2018-06-25T11:55:36Z</time>
      </trkpt>
      <trkpt lat="48.05529" lon="5.44358">
        <ele>411</ele>
        <time>2018-06-25T11:55:44Z</time>
      </trkpt>
      <trkpt lat="48.05519" lon="5.4436">
        <ele>411</ele>
        <time>2018-06-25T11:55:52Z</time>
      </trkpt>
      <trkpt lat="48.0551" lon="5.44362">
        <ele>412</ele>
        <time>2018-06-25T11:56:00Z</time>
      </trkpt>
      <trkpt lat="48.05501" lon="5.44365">
        <ele>412</ele>
        <time>2018-06-25T11:56:07Z</time>
      </trkpt>
      <trkpt lat="48.05492" lon="5.44369">
        <ele>412</ele>
        <time>2018-06-25T11:56:14Z</time>
      </trkpt>
      <trkpt lat="48.05484" lon="5.44374">
        <ele>412</ele>
        <time>2018-06-25T11:56:21Z</time>
      </trkpt>
      <trkpt lat="48.05475" lon="5.44377">
        <ele>412</ele>
        <time>2018-06-25T11:56:28Z</time>
      </trkpt>
      <trkpt lat="48.05465" lon="5.44382">
        <ele>413</ele>
        <time>2018-06-25T11:56:36Z</time>
      </trkpt>
      <trkpt lat="48.05456" lon="5.44387">
        <ele>413</ele>
        <time>2018-06-25T11:56:44Z</time>
      </trkpt>
      <trkpt lat="48.05446" lon="5.44392">
        <ele>413</ele>
        <time>2018-06-25T11:56:52Z</time>
      </trkpt>
      <trkpt lat="48.05437" lon="5.44397">
        <ele>413</ele>
        <time>2018-06-25T11:57:00Z</time>
      </trkpt>
      <trkpt lat="48.05427" lon="5.44402">
        <ele>413</ele>
        <time>2018-06-25T11:57:08Z</time>
      </trkpt>
      <trkpt lat="48.05418" lon="5.44407">
        <ele>413</ele>
        <time>2018-06-25T11:57:16Z</time>
      </trkpt>
      <trkpt lat="48.05409" lon="5.44411">
        <ele>413</ele>
        <time>2018-06-25T11:57:24Z</time>
      </trkpt>
      <trkpt lat="48.05398" lon="5.44415">
        <ele>414</ele>
        <time>2018-06-25T11:57:33Z</time>
      </trkpt>
      <trkpt lat="48.05388" lon="5.44419">
        <ele>414</ele>
        <time>2018-06-25T11:57:41Z</time>
      </trkpt>
      <trkpt lat="48.05378" lon="5.44424">
        <ele>414</ele>
        <time>2018-06-25T11:57:49Z</time>
      </trkpt>
      <trkpt lat="48.05368" lon="5.44429">
        <ele>414</ele>
        <time>2018-06-25T11:57:57Z</time>
      </trkpt>
      <trkpt lat="48.05358" lon="5.44434">
        <ele>414</ele>
        <time>2018-06-25T11:58:05Z</time>
      </trkpt>
      <trkpt lat="48.05348" lon="5.44439">
        <ele>414</ele>
        <time>2018-06-25T11:58:13Z</time>
      </trkpt>
      <trkpt lat="48.05338" lon="5.44442">
        <ele>414</ele>
        <time>2018-06-25T11:58:21Z</time>
      </trkpt>
      <trkpt lat="48.05327" lon="5.44446">
        <ele>414</ele>
        <time>2018-06-25T11:58:29Z</time>
      </trkpt>
      <trkpt lat="48.05317" lon="5.4445">
        <ele>413</ele>
        <time>2018-06-25T11:58:37Z</time>
      </trkpt>
      <trkpt lat="48.05306" lon="5.44454">
        <ele>414</ele>
        <time>2018-06-25T11:58:45Z</time>
      </trkpt>
      <trkpt lat="48.05296" lon="5.44457">
        <ele>414</ele>
        <time>2018-06-25T11:58:53Z</time>
      </trkpt>
      <trkpt lat="48.05286" lon="5.44461">
        <ele>415</ele>
        <time>2018-06-25T11:59:00Z</time>
      </trkpt>
      <trkpt lat="48.05277" lon="5.44464">
        <ele>415</ele>
        <time>2018-06-25T11:59:07Z</time>
      </trkpt>
      <trkpt lat="48.05268" lon="5.44467">
        <ele>415</ele>
        <time>2018-06-25T11:59:14Z</time>
      </trkpt>
      <trkpt lat="48.0526" lon="5.44473">
        <ele>416</ele>
        <time>2018-06-25T11:59:22Z</time>
      </trkpt>
      <trkpt lat="48.05251" lon="5.44478">
        <ele>415</ele>
        <time>2018-06-25T11:59:29Z</time>
      </trkpt>
      <trkpt lat="48.05243" lon="5.44484">
        <ele>415</ele>
        <time>2018-06-25T11:59:37Z</time>
      </trkpt>
      <trkpt lat="48.05234" lon="5.44489">
        <ele>415</ele>
        <time>2018-06-25T11:59:46Z</time>
      </trkpt>
      <trkpt lat="48.05224" lon="5.44495">
        <ele>414</ele>
        <time>2018-06-25T11:59:54Z</time>
      </trkpt>
      <trkpt lat="48.05215" lon="5.44499">
        <ele>414</ele>
        <time>2018-06-25T12:00:02Z</time>
      </trkpt>
      <trkpt lat="48.05205" lon="5.44502">
        <ele>415</ele>
        <time>2018-06-25T12:00:10Z</time>
      </trkpt>
      <trkpt lat="48.05195" lon="5.44505">
        <ele>414</ele>
        <time>2018-06-25T12:00:18Z</time>
      </trkpt>
      <trkpt lat="48.05185" lon="5.44508">
        <ele>414</ele>
        <time>2018-06-25T12:00:26Z</time>
      </trkpt>
      <trkpt lat="48.05175" lon="5.44514">
        <ele>414</ele>
        <time>2018-06-25T12:00:35Z</time>
      </trkpt>
      <trkpt lat="48.05168" lon="5.44524">
        <ele>414</ele>
        <time>2018-06-25T12:00:43Z</time>
      </trkpt>
      <trkpt lat="48.0516" lon="5.44533">
        <ele>414</ele>
        <time>2018-06-25T12:00:51Z</time>
      </trkpt>
      <trkpt lat="48.05153" lon="5.44541">
        <ele>414</ele>
        <time>2018-06-25T12:00:58Z</time>
      </trkpt>
      <trkpt lat="48.05144" lon="5.44548">
        <ele>414</ele>
        <time>2018-06-25T12:01:06Z</time>
      </trkpt>
      <trkpt lat="48.05136" lon="5.44553">
        <ele>415</ele>
        <time>2018-06-25T12:01:14Z</time>
      </trkpt>
      <trkpt lat="48.05125" lon="5.44557">
        <ele>415</ele>
        <time>2018-06-25T12:01:22Z</time>
      </trkpt>
      <trkpt lat="48.05115" lon="5.44561">
        <ele>415</ele>
        <time>2018-06-25T12:01:31Z</time>
      </trkpt>
      <trkpt lat="48.05106" lon="5.44566">
        <ele>415</ele>
        <time>2018-06-25T12:01:40Z</time>
      </trkpt>
      <trkpt lat="48.05096" lon="5.44569">
        <ele>415</ele>
        <time>2018-06-25T12:01:48Z</time>
      </trkpt>
      <trkpt lat="48.05085" lon="5.44573">
        <ele>415</ele>
        <time>2018-06-25T12:01:57Z</time>
      </trkpt>
      <trkpt lat="48.05074" lon="5.44574">
        <ele>416</ele>
        <time>2018-06-25T12:02:06Z</time>
      </trkpt>
      <trkpt lat="48.05062" lon="5.44577">
        <ele>416</ele>
        <time>2018-06-25T12:02:16Z</time>
      </trkpt>
      <trkpt lat="48.05052" lon="5.44579">
        <ele>417</ele>
        <time>2018-06-25T12:02:24Z</time>
      </trkpt>
      <trkpt lat="48.05042" lon="5.4458">
        <ele>418</ele>
        <time>2018-06-25T12:02:32Z</time>
      </trkpt>
      <trkpt lat="48.05032" lon="5.44583">
        <ele>418</ele>
        <time>2018-06-25T12:02:41Z</time>
      </trkpt>
      <trkpt lat="48.05023" lon="5.44584">
        <ele>419</ele>
        <time>2018-06-25T12:02:49Z</time>
      </trkpt>
      <trkpt lat="48.05013" lon="5.44586">
        <ele>420</ele>
        <time>2018-06-25T12:02:58Z</time>
      </trkpt>
      <trkpt lat="48.05004" lon="5.44588">
        <ele>421</ele>
        <time>2018-06-25T12:03:06Z</time>
      </trkpt>
      <trkpt lat="48.04995" lon="5.44588">
        <ele>422</ele>
        <time>2018-06-25T12:03:15Z</time>
      </trkpt>
      <trkpt lat="48.04984" lon="5.44589">
        <ele>423</ele>
        <time>2018-06-25T12:03:23Z</time>
      </trkpt>
      <trkpt lat="48.04974" lon="5.44594">
        <ele>422</ele>
        <time>2018-06-25T12:03:31Z</time>
      </trkpt>
      <trkpt lat="48.04964" lon="5.44603">
        <ele>422</ele>
        <time>2018-06-25T12:03:40Z</time>
      </trkpt>
      <trkpt lat="48.04957" lon="5.44614">
        <ele>422</ele>
        <time>2018-06-25T12:03:48Z</time>
      </trkpt>
      <trkpt lat="48.04952" lon="5.44628">
        <ele>422</ele>
        <time>2018-06-25T12:03:56Z</time>
      </trkpt>
      <trkpt lat="48.04948" lon="5.4464">
        <ele>422</ele>
        <time>2018-06-25T12:04:03Z</time>
      </trkpt>
      <trkpt lat="48.0494" lon="5.4465">
        <ele>421</ele>
        <time>2018-06-25T12:04:11Z</time>
      </trkpt>
      <trkpt lat="48.04931" lon="5.44656">
        <ele>421</ele>
        <time>2018-06-25T12:04:19Z</time>
      </trkpt>
      <trkpt lat="48.04921" lon="5.44654">
        <ele>421</ele>
        <time>2018-06-25T12:04:27Z</time>
      </trkpt>
      <trkpt lat="48.04911" lon="5.44652">
        <ele>420</ele>
        <time>2018-06-25T12:04:35Z</time>
      </trkpt>
      <trkpt lat="48.04901" lon="5.4465">
        <ele>420</ele>
        <time>2018-06-25T12:04:43Z</time>
      </trkpt>
      <trkpt lat="48.04891" lon="5.4465">
        <ele>420</ele>
        <time>2018-06-25T12:04:52Z</time>
      </trkpt>
      <trkpt lat="48.04879" lon="5.44649">
        <ele>421</ele>
        <time>2018-06-25T12:05:01Z</time>
      </trkpt>
      <trkpt lat="48.04868" lon="5.44648">
        <ele>420</ele>
        <time>2018-06-25T12:05:09Z</time>
      </trkpt>
      <trkpt lat="48.04857" lon="5.44649">
        <ele>420</ele>
        <time>2018-06-25T12:05:17Z</time>
      </trkpt>
      <trkpt lat="48.04848" lon="5.44653">
        <ele>419</ele>
        <time>2018-06-25T12:05:25Z</time>
      </trkpt>
      <trkpt lat="48.04839" lon="5.44662">
        <ele>418</ele>
        <time>2018-06-25T12:05:34Z</time>
      </trkpt>
      <trkpt lat="48.0483" lon="5.44671">
        <ele>417</ele>
        <time>2018-06-25T12:05:42Z</time>
      </trkpt>
      <trkpt lat="48.04823" lon="5.44682">
        <ele>416</ele>
        <time>2018-06-25T12:05:50Z</time>
      </trkpt>
      <trkpt lat="48.04816" lon="5.44695">
        <ele>415</ele>
        <time>2018-06-25T12:05:59Z</time>
      </trkpt>
      <trkpt lat="48.04809" lon="5.44707">
        <ele>414</ele>
        <time>2018-06-25T12:06:08Z</time>
      </trkpt>
      <trkpt lat="48.04801" lon="5.44719">
        <ele>413</ele>
        <time>2018-06-25T12:06:16Z</time>
      </trkpt>
      <trkpt lat="48.04791" lon="5.44726">
        <ele>412</ele>
        <time>2018-06-25T12:06:24Z</time>
      </trkpt>
      <trkpt lat="48.04781" lon="5.44728">
        <ele>411</ele>
        <time>2018-06-25T12:06:31Z</time>
      </trkpt>
      <trkpt lat="48.04771" lon="5.44726">
        <ele>410</ele>
        <time>2018-06-25T12:06:39Z</time>
      </trkpt>
      <trkpt lat="48.04762" lon="5.44718">
        <ele>410</ele>
        <time>2018-06-25T12:06:47Z</time>
      </trkpt>
      <trkpt lat="48.04755" lon="5.44706">
        <ele>409</ele>
        <time>2018-06-25T12:06:56Z</time>
      </trkpt>
      <trkpt lat="48.0475" lon="5.44694">
        <ele>408</ele>
        <time>2018-06-25T12:07:05Z</time>
      </trkpt>
      <trkpt lat="48.04742" lon="5.4468">
        <ele>407</ele>
        <time>2018-06-25T12:07:15Z</time>
      </trkpt>
      <trkpt lat="48.04735" lon="5.44669">
        <ele>406</ele>
        <time>2018-06-25T12:07:23Z</time>
      </trkpt>
      <trkpt lat="48.04729" lon="5.44656">
        <ele>406</ele>
        <time>2018-06-25T12:07:31Z</time>
      </trkpt>
      <trkpt lat="48.04723" lon="5.44643">
        <ele>405</ele>
        <time>2018-06-25T12:07:39Z</time>
      </trkpt>
      <trkpt lat="48.04716" lon="5.44631">
        <ele>405</ele>
        <time>2018-06-25T12:07:49Z</time>
      </trkpt>
      <trkpt lat="48.0471" lon="5.44615">
        <ele>405</ele>
        <time>2018-06-25T12:07:59Z</time>
      </trkpt>
      <trkpt lat="48.04701" lon="5.44605">
        <ele>404</ele>
        <time>2018-06-25T12:08:07Z</time>
      </trkpt>
      <trkpt lat="48.04692" lon="5.44598">
        <ele>404</ele>
        <time>2018-06-25T12:08:15Z</time>
      </trkpt>
      <trkpt lat="48.04683" lon="5.44593">
        <ele>403</ele>
        <time>2018-06-25T12:08:23Z</time>
      </trkpt>
      <trkpt lat="48.04673" lon="5.4459">
        <ele>403</ele>
        <time>2018-06-25T12:08:31Z</time>
      </trkpt>
      <trkpt lat="48.04661" lon="5.44588">
        <ele>402</ele>
        <time>2018-06-25T12:08:40Z</time>
      </trkpt>
      <trkpt lat="48.0465" lon="5.44587">
        <ele>402</ele>
        <time>2018-06-25T12:08:48Z</time>
      </trkpt>
      <trkpt lat="48.0464" lon="5.44587">
        <ele>401</ele>
        <time>2018-06-25T12:08:55Z</time>
      </trkpt>
      <trkpt lat="48.0463" lon="5.44587">
        <ele>401</ele>
        <time>2018-06-25T12:09:03Z</time>
      </trkpt>
      <trkpt lat="48.0462" lon="5.44587">
        <ele>400</ele>
        <time>2018-06-25T12:09:10Z</time>
      </trkpt>
      <trkpt lat="48.04611" lon="5.44587">
        <ele>400</ele>
        <time>2018-06-25T12:09:18Z</time>
      </trkpt>
      <trkpt lat="48.04602" lon="5.4459">
        <ele>399</ele>
        <time>2018-06-25T12:09:26Z</time>
      </trkpt>
      <trkpt lat="48.04592" lon="5.44592">
        <ele>399</ele>
        <time>2018-06-25T12:09:33Z</time>
      </trkpt>
      <trkpt lat="48.04582" lon="5.44594">
        <ele>399</ele>
        <time>2018-06-25T12:09:40Z</time>
      </trkpt>
      <trkpt lat="48.04573" lon="5.44598">
        <ele>398</ele>
        <time>2018-06-25T12:09:48Z</time>
      </trkpt>
      <trkpt lat="48.04564" lon="5.44602">
        <ele>397</ele>
        <time>2018-06-25T12:09:55Z</time>
      </trkpt>
      <trkpt lat="48.04554" lon="5.44605">
        <ele>396</ele>
        <time>2018-06-25T12:10:03Z</time>
      </trkpt>
      <trkpt lat="48.04544" lon="5.44608">
        <ele>396</ele>
        <time>2018-06-25T12:10:11Z</time>
      </trkpt>
      <trkpt lat="48.04535" lon="5.44611">
        <ele>396</ele>
        <time>2018-06-25T12:10:18Z</time>
      </trkpt>
      <trkpt lat="48.04526" lon="5.44613">
        <ele>396</ele>
        <time>2018-06-25T12:10:25Z</time>
      </trkpt>
      <trkpt lat="48.04516" lon="5.44617">
        <ele>395</ele>
        <time>2018-06-25T12:10:33Z</time>
      </trkpt>
      <trkpt lat="48.04506" lon="5.44621">
        <ele>395</ele>
        <time>2018-06-25T12:10:41Z</time>
      </trkpt>
      <trkpt lat="48.04498" lon="5.44625">
        <ele>394</ele>
        <time>2018-06-25T12:10:48Z</time>
      </trkpt>
      <trkpt lat="48.04488" lon="5.44628">
        <ele>394</ele>
        <time>2018-06-25T12:10:56Z</time>
      </trkpt>
      <trkpt lat="48.04479" lon="5.4463">
        <ele>394</ele>
        <time>2018-06-25T12:11:04Z</time>
      </trkpt>
      <trkpt lat="48.04469" lon="5.44635">
        <ele>392</ele>
        <time>2018-06-25T12:11:37Z</time>
      </trkpt>
      <trkpt lat="48.04459" lon="5.44638">
        <ele>393</ele>
        <time>2018-06-25T12:11:45Z</time>
      </trkpt>
      <trkpt lat="48.04449" lon="5.44641">
        <ele>392</ele>
        <time>2018-06-25T12:11:53Z</time>
      </trkpt>
      <trkpt lat="48.04438" lon="5.44642">
        <ele>392</ele>
        <time>2018-06-25T12:12:01Z</time>
      </trkpt>
      <trkpt lat="48.04428" lon="5.44642">
        <ele>392</ele>
        <time>2018-06-25T12:12:09Z</time>
      </trkpt>
      <trkpt lat="48.04417" lon="5.44639">
        <ele>391</ele>
        <time>2018-06-25T12:12:17Z</time>
      </trkpt>
      <trkpt lat="48.04406" lon="5.44634">
        <ele>391</ele>
        <time>2018-06-25T12:12:25Z</time>
      </trkpt>
      <trkpt lat="48.04396" lon="5.4463">
        <ele>390</ele>
        <time>2018-06-25T12:12:33Z</time>
      </trkpt>
      <trkpt lat="48.04385" lon="5.44625">
        <ele>391</ele>
        <time>2018-06-25T12:12:42Z</time>
      </trkpt>
      <trkpt lat="48.04374" lon="5.44623">
        <ele>391</ele>
        <time>2018-06-25T12:12:50Z</time>
      </trkpt>
      <trkpt lat="48.04363" lon="5.44619">
        <ele>391</ele>
        <time>2018-06-25T12:12:58Z</time>
      </trkpt>
      <trkpt lat="48.04353" lon="5.44617">
        <ele>390</ele>
        <time>2018-06-25T12:13:06Z</time>
      </trkpt>
      <trkpt lat="48.04342" lon="5.44613">
        <ele>391</ele>
        <time>2018-06-25T12:13:14Z</time>
      </trkpt>
      <trkpt lat="48.04333" lon="5.44609">
        <ele>390</ele>
        <time>2018-06-25T12:13:22Z</time>
      </trkpt>
      <trkpt lat="48.04324" lon="5.44606">
        <ele>391</ele>
        <time>2018-06-25T12:13:30Z</time>
      </trkpt>
      <trkpt lat="48.04314" lon="5.44603">
        <ele>390</ele>
        <time>2018-06-25T12:13:39Z</time>
      </trkpt>
      <trkpt lat="48.04303" lon="5.446">
        <ele>391</ele>
        <time>2018-06-25T12:13:47Z</time>
      </trkpt>
      <trkpt lat="48.04294" lon="5.44598">
        <ele>391</ele>
        <time>2018-06-25T12:13:54Z</time>
      </trkpt>
      <trkpt lat="48.04285" lon="5.44594">
        <ele>391</ele>
        <time>2018-06-25T12:14:04Z</time>
      </trkpt>
      <trkpt lat="48.04276" lon="5.4459">
        <ele>391</ele>
        <time>2018-06-25T12:14:12Z</time>
      </trkpt>
      <trkpt lat="48.04266" lon="5.44585">
        <ele>391</ele>
        <time>2018-06-25T12:14:20Z</time>
      </trkpt>
      <trkpt lat="48.04258" lon="5.4458">
        <ele>391</ele>
        <time>2018-06-25T12:14:27Z</time>
      </trkpt>
      <trkpt lat="48.04248" lon="5.44577">
        <ele>391</ele>
        <time>2018-06-25T12:15:00Z</time>
      </trkpt>
      <trkpt lat="48.0424" lon="5.44572">
        <ele>391</ele>
        <time>2018-06-25T12:15:07Z</time>
      </trkpt>
      <trkpt lat="48.0423" lon="5.44569">
        <ele>391</ele>
        <time>2018-06-25T12:15:15Z</time>
      </trkpt>
      <trkpt lat="48.04221" lon="5.44565">
        <ele>391</ele>
        <time>2018-06-25T12:15:22Z</time>
      </trkpt>
      <trkpt lat="48.04211" lon="5.44562">
        <ele>392</ele>
        <time>2018-06-25T12:15:30Z</time>
      </trkpt>
      <trkpt lat="48.04201" lon="5.44559">
        <ele>392</ele>
        <time>2018-06-25T12:15:38Z</time>
      </trkpt>
      <trkpt lat="48.0419" lon="5.44556">
        <ele>392</ele>
        <time>2018-06-25T12:15:46Z</time>
      </trkpt>
      <trkpt lat="48.04181" lon="5.44554">
        <ele>392</ele>
        <time>2018-06-25T12:15:53Z</time>
      </trkpt>
      <trkpt lat="48.04171" lon="5.44553">
        <ele>392</ele>
        <time>2018-06-25T12:16:01Z</time>
      </trkpt>
      <trkpt lat="48.04161" lon="5.44552">
        <ele>392</ele>
        <time>2018-06-25T12:16:10Z</time>
      </trkpt>
      <trkpt lat="48.04151" lon="5.44553">
        <ele>392</ele>
        <time>2018-06-25T12:16:18Z</time>
      </trkpt>
      <trkpt lat="48.04141" lon="5.44553">
        <ele>392</ele>
        <time>2018-06-25T12:16:26Z</time>
      </trkpt>
      <trkpt lat="48.04131" lon="5.44553">
        <ele>392</ele>
        <time>2018-06-25T12:16:33Z</time>
      </trkpt>
      <trkpt lat="48.04122" lon="5.44553">
        <ele>392</ele>
        <time>2018-06-25T12:16:41Z</time>
      </trkpt>
      <trkpt lat="48.04113" lon="5.44555">
        <ele>392</ele>
        <time>2018-06-25T12:16:49Z</time>
      </trkpt>
      <trkpt lat="48.04102" lon="5.44556">
        <ele>392</ele>
        <time>2018-06-25T12:16:57Z</time>
      </trkpt>
      <trkpt lat="48.04092" lon="5.44558">
        <ele>392</ele>
        <time>2018-06-25T12:17:05Z</time>
      </trkpt>
      <trkpt lat="48.04083" lon="5.4456">
        <ele>393</ele>
        <time>2018-06-25T12:17:13Z</time>
      </trkpt>
      <trkpt lat="48.04073" lon="5.44564">
        <ele>392</ele>
        <time>2018-06-25T12:17:21Z</time>
      </trkpt>
      <trkpt lat="48.04063" lon="5.44567">
        <ele>393</ele>
        <time>2018-06-25T12:17:29Z</time>
      </trkpt>
      <trkpt lat="48.04053" lon="5.4457">
        <ele>393</ele>
        <time>2018-06-25T12:17:37Z</time>
      </trkpt>
      <trkpt lat="48.04044" lon="5.44571">
        <ele>393</ele>
        <time>2018-06-25T12:17:44Z</time>
      </trkpt>
      <trkpt lat="48.04035" lon="5.44574">
        <ele>393</ele>
        <time>2018-06-25T12:17:51Z</time>
      </trkpt>
      <trkpt lat="48.04025" lon="5.44575">
        <ele>394</ele>
        <time>2018-06-25T12:17:59Z</time>
      </trkpt>
      <trkpt lat="48.04014" lon="5.44576">
        <ele>393</ele>
        <time>2018-06-25T12:18:07Z</time>
      </trkpt>
      <trkpt lat="48.04004" lon="5.4458">
        <ele>394</ele>
        <time>2018-06-25T12:18:16Z</time>
      </trkpt>
      <trkpt lat="48.03996" lon="5.44583">
        <ele>394</ele>
        <time>2018-06-25T12:18:24Z</time>
      </trkpt>
      <trkpt lat="48.03986" lon="5.44584">
        <ele>394</ele>
        <time>2018-06-25T12:18:32Z</time>
      </trkpt>
      <trkpt lat="48.03976" lon="5.44588">
        <ele>395</ele>
        <time>2018-06-25T12:18:41Z</time>
      </trkpt>
      <trkpt lat="48.03967" lon="5.4459">
        <ele>396</ele>
        <time>2018-06-25T12:18:48Z</time>
      </trkpt>
      <trkpt lat="48.03956" lon="5.4459">
        <ele>396</ele>
        <time>2018-06-25T12:18:56Z</time>
      </trkpt>
      <trkpt lat="48.03947" lon="5.44587">
        <ele>397</ele>
        <time>2018-06-25T12:19:04Z</time>
      </trkpt>
      <trkpt lat="48.03938" lon="5.44584">
        <ele>397</ele>
        <time>2018-06-25T12:19:12Z</time>
      </trkpt>
      <trkpt lat="48.03928" lon="5.4458">
        <ele>398</ele>
        <time>2018-06-25T12:19:20Z</time>
      </trkpt>
      <trkpt lat="48.0392" lon="5.44576">
        <ele>398</ele>
        <time>2018-06-25T12:19:27Z</time>
      </trkpt>
      <trkpt lat="48.0391" lon="5.44574">
        <ele>399</ele>
        <time>2018-06-25T12:19:35Z</time>
      </trkpt>
      <trkpt lat="48.039" lon="5.44575">
        <ele>399</ele>
        <time>2018-06-25T12:19:43Z</time>
      </trkpt>
      <trkpt lat="48.03891" lon="5.44578">
        <ele>400</ele>
        <time>2018-06-25T12:19:51Z</time>
      </trkpt>
      <trkpt lat="48.03882" lon="5.44579">
        <ele>401</ele>
        <time>2018-06-25T12:19:59Z</time>
      </trkpt>
      <trkpt lat="48.03872" lon="5.44581">
        <ele>401</ele>
        <time>2018-06-25T12:20:07Z</time>
      </trkpt>
      <trkpt lat="48.03862" lon="5.44584">
        <ele>401</ele>
        <time>2018-06-25T12:20:16Z</time>
      </trkpt>
      <trkpt lat="48.03853" lon="5.44585">
        <ele>401</ele>
        <time>2018-06-25T12:20:23Z</time>
      </trkpt>
      <trkpt lat="48.03843" lon="5.44585">
        <ele>401</ele>
        <time>2018-06-25T12:20:31Z</time>
      </trkpt>
      <trkpt lat="48.03834" lon="5.44586">
        <ele>401</ele>
        <time>2018-06-25T12:20:39Z</time>
      </trkpt>
      <trkpt lat="48.03823" lon="5.44586">
        <ele>400</ele>
        <time>2018-06-25T12:20:48Z</time>
      </trkpt>
      <trkpt lat="48.03814" lon="5.44583">
        <ele>400</ele>
        <time>2018-06-25T12:20:55Z</time>
      </trkpt>
      <trkpt lat="48.03805" lon="5.44577">
        <ele>400</ele>
        <time>2018-06-25T12:21:03Z</time>
      </trkpt>
      <trkpt lat="48.03797" lon="5.4457">
        <ele>400</ele>
        <time>2018-06-25T12:21:10Z</time>
      </trkpt>
      <trkpt lat="48.0379" lon="5.44561">
        <ele>399</ele>
        <time>2018-06-25T12:21:17Z</time>
      </trkpt>
      <trkpt lat="48.03783" lon="5.44552">
        <ele>399</ele>
        <time>2018-06-25T12:21:24Z</time>
      </trkpt>
      <trkpt lat="48.03778" lon="5.44541">
        <ele>399</ele>
        <time>2018-06-25T12:21:32Z</time>
      </trkpt>
      <trkpt lat="48.03772" lon="5.4453">
        <ele>398</ele>
        <time>2018-06-25T12:21:40Z</time>
      </trkpt>
      <trkpt lat="48.03765" lon="5.44519">
        <ele>398</ele>
        <time>2018-06-25T12:21:48Z</time>
      </trkpt>
      <trkpt lat="48.03757" lon="5.44509">
        <ele>398</ele>
        <time>2018-06-25T12:21:56Z</time>
      </trkpt>
      <trkpt lat="48.03751" lon="5.44498">
        <ele>397</ele>
        <time>2018-06-25T12:22:03Z</time>
      </trkpt>
      <trkpt lat="48.03743" lon="5.4449">
        <ele>397</ele>
        <time>2018-06-25T12:22:10Z</time>
      </trkpt>
      <trkpt lat="48.03734" lon="5.44482">
        <ele>397</ele>
        <time>2018-06-25T12:22:18Z</time>
      </trkpt>
      <trkpt lat="48.03724" lon="5.44476">
        <ele>397</ele>
        <time>2018-06-25T12:22:26Z</time>
      </trkpt>
      <trkpt lat="48.03716" lon="5.44473">
        <ele>397</ele>
        <time>2018-06-25T12:22:33Z</time>
      </trkpt>
      <trkpt lat="48.03707" lon="5.4447">
        <ele>397</ele>
        <time>2018-06-25T12:22:40Z</time>
      </trkpt>
      <trkpt lat="48.03698" lon="5.44469">
        <ele>396</ele>
        <time>2018-06-25T12:22:47Z</time>
      </trkpt>
      <trkpt lat="48.03688" lon="5.44467">
        <ele>396</ele>
        <time>2018-06-25T12:22:55Z</time>
      </trkpt>
      <trkpt lat="48.03679" lon="5.44464">
        <ele>396</ele>
        <time>2018-06-25T12:23:03Z</time>
      </trkpt>
      <trkpt lat="48.03668" lon="5.44463">
        <ele>396</ele>
        <time>2018-06-25T12:23:11Z</time>
      </trkpt>
      <trkpt lat="48.03658" lon="5.44463">
        <ele>396</ele>
        <time>2018-06-25T12:23:19Z</time>
      </trkpt>
      <trkpt lat="48.03648" lon="5.44465">
        <ele>396</ele>
        <time>2018-06-25T12:23:27Z</time>
      </trkpt>
      <trkpt lat="48.03638" lon="5.44467">
        <ele>396</ele>
        <time>2018-06-25T12:23:34Z</time>
      </trkpt>
      <trkpt lat="48.03628" lon="5.44471">
        <ele>396</ele>
        <time>2018-06-25T12:23:42Z</time>
      </trkpt>
      <trkpt lat="48.03618" lon="5.44474">
        <ele>397</ele>
        <time>2018-06-25T12:23:50Z</time>
      </trkpt>
      <trkpt lat="48.03608" lon="5.44479">
        <ele>397</ele>
        <time>2018-06-25T12:23:58Z</time>
      </trkpt>
      <trkpt lat="48.036" lon="5.44484">
        <ele>396</ele>
        <time>2018-06-25T12:24:05Z</time>
      </trkpt>
      <trkpt lat="48.03592" lon="5.4449">
        <ele>397</ele>
        <time>2018-06-25T12:24:12Z</time>
      </trkpt>
      <trkpt lat="48.03583" lon="5.44497">
        <ele>397</ele>
        <time>2018-06-25T12:24:20Z</time>
      </trkpt>
      <trkpt lat="48.03576" lon="5.44509">
        <ele>397</ele>
        <time>2018-06-25T12:24:29Z</time>
      </trkpt>
      <trkpt lat="48.03569" lon="5.44518">
        <ele>397</ele>
        <time>2018-06-25T12:24:38Z</time>
      </trkpt>
      <trkpt lat="48.0356" lon="5.44529">
        <ele>397</ele>
        <time>2018-06-25T12:24:54Z</time>
      </trkpt>
      <trkpt lat="48.03553" lon="5.4454">
        <ele>397</ele>
        <time>2018-06-25T12:25:01Z</time>
      </trkpt>
      <trkpt lat="48.03544" lon="5.44551">
        <ele>397</ele>
        <time>2018-06-25T12:25:09Z</time>
      </trkpt>
      <trkpt lat="48.03537" lon="5.44562">
        <ele>396</ele>
        <time>2018-06-25T12:25:17Z</time>
      </trkpt>
      <trkpt lat="48.03531" lon="5.44573">
        <ele>397</ele>
        <time>2018-06-25T12:25:25Z</time>
      </trkpt>
      <trkpt lat="48.03524" lon="5.44585">
        <ele>397</ele>
        <time>2018-06-25T12:25:33Z</time>
      </trkpt>
      <trkpt lat="48.03517" lon="5.44597">
        <ele>397</ele>
        <time>2018-06-25T12:25:41Z</time>
      </trkpt>
      <trkpt lat="48.0351" lon="5.44607">
        <ele>397</ele>
        <time>2018-06-25T12:25:49Z</time>
      </trkpt>
      <trkpt lat="48.03503" lon="5.44617">
        <ele>397</ele>
        <time>2018-06-25T12:25:57Z</time>
      </trkpt>
      <trkpt lat="48.03495" lon="5.44628">
        <ele>397</ele>
        <time>2018-06-25T12:26:04Z</time>
      </trkpt>
      <trkpt lat="48.03488" lon="5.44639">
        <ele>398</ele>
        <time>2018-06-25T12:26:11Z</time>
      </trkpt>
      <trkpt lat="48.03481" lon="5.4465">
        <ele>398</ele>
        <time>2018-06-25T12:26:19Z</time>
      </trkpt>
      <trkpt lat="48.03473" lon="5.4466">
        <ele>397</ele>
        <time>2018-06-25T12:26:27Z</time>
      </trkpt>
      <trkpt lat="48.03464" lon="5.44662">
        <ele>397</ele>
        <time>2018-06-25T12:26:35Z</time>
      </trkpt>
      <trkpt lat="48.03454" lon="5.44662">
        <ele>397</ele>
        <time>2018-06-25T12:26:43Z</time>
      </trkpt>
      <trkpt lat="48.03452" lon="5.44669">
        <ele>397</ele>
        <time>2018-06-25T12:27:35Z</time>
      </trkpt>
      <trkpt lat="48.03452" lon="5.44686">
        <ele>397</ele>
        <time>2018-06-25T12:27:43Z</time>
      </trkpt>
      <trkpt lat="48.03451" lon="5.44702">
        <ele>397</ele>
        <time>2018-06-25T12:27:52Z</time>
      </trkpt>
      <trkpt lat="48.03449" lon="5.44716">
        <ele>396</ele>
        <time>2018-06-25T12:27:59Z</time>
      </trkpt>
      <trkpt lat="48.03443" lon="5.4473">
        <ele>396</ele>
        <time>2018-06-25T12:28:07Z</time>
      </trkpt>
      <trkpt lat="48.03437" lon="5.44741">
        <ele>395</ele>
        <time>2018-06-25T12:28:15Z</time>
      </trkpt>
      <trkpt lat="48.03441" lon="5.44748">
        <ele>397</ele>
        <time>2018-06-25T12:28:30Z</time>
      </trkpt>
    </trkseg>
  </trk>
</gpx>